[[{"header":{"parameterUnit":"m.s-1","parameterCategory":1,"la1":30.6,"la2":29.2853,"lo1":-89.7004,"lo2":-87.6739,"dy":0.0162,"dx":0.0183,"nx":112,"ny":82,"refTime":"2023-04-24T06:00:00:Z","depth":0,"parameterNumber":2,"parameterNumberName":"U-component_of_WINDS"},"data":[0.0,0.0,0.0,0.0,0.0,0.0,0.0,0.0,0.0,0.0,0.0,0.0,0.0,0.0,0.0,0.0,0.0,0.0,0.0,0.0,0.0,0.0,0.0,0.0,0.0,0.0,0.0,0.0,0.0,0.0,0.0,0.0,0.0,0.0,0.0,0.0,0.0,0.0,0.0,0.0,0.0,0.0,0.0,0.0,0.0,0.0,0.0,0.0,0.0,0.0,0.0,0.0,0.0,0.0,0.0,0.0,0.0,0.0,0.0,0.0,0.0,0.0,0.0,0.0,0.0,0.0,0.0,0.0,0.0,0.0,0.0,0.0,0.0,0.0,0.0,0.0,0.0,0.0,0.0,0.0,0.0,0.0,0.0,0.0,0.0,0.0,0.0,0.0,0.0,0.0,0.0,0.0,0.0,0.0,0.0,0.0,0.0,0.0,0.0,0.0,0.0,0.0,0.0,0.0,0.0,0.0,0.0,0.0,0.0,0.0,0.0,0.0,0.0,0.0,0.0,0.0,0.0,0.0,0.0,0.0,0.0,0.0,0.0,0.0,0.0,0.0,0.0,0.0,0.0,0.0,0.0,0.0,0.0,0.0,0.0,0.0,0.0,0.0,0.0,0.0,0.0,0.0,0.0,0.0,0.0,0.0,0.0,0.0,0.0,0.0,0.0,0.0,0.0,0.0,0.0,0.0,0.0,0.0,0.0,0.0,0.0,0.0,0.0,0.0,0.0,0.0,0.0,0.0,0.0,0.0,0.0,0.0,0.0,0.0,0.0,0.0,0.0,0.0,0.0,0.0,0.0,0.0,0.0,0.0,0.0,0.0,0.0,0.0,0.0,0.0,0.0,0.0,0.0,0.0,0.0,0.0,0.0,0.0,0.0,0.0,0.0,0.0,0.0,0.0,0.0,0.0,0.0,0.0,0.0,0.0,0.0,0.0,0.0,0.0,0.0,0.0,0.0,0.0,0.0,0.0,0.0,0.0,0.0,0.0,0.0,0.0,0.0,0.0,0.0,0.0,0.0,0.0,0.0,0.0,0.0,0.0,0.0,0.0,0.0,0.0,0.0,0.0,0.0,0.0,0.0,0.0,0.0,0.0,0.0,0.0,0.0,0.0,0.0,0.0,0.0,0.0,0.0,0.0,0.0,0.0,0.0,0.0,0.0,0.0,0.0,0.0,0.0,0.0,0.0,0.0,0.0,0.0,0.0,0.0,0.0,0.0,0.0,0.0,0.0,0.0,0.0,0.0,0.0,0.0,0.0,0.0,0.0,0.0,0.0,0.0,0.0,0.0,0.0,0.0,0.0,0.0,0.0,0.0,0.0,0.0,0.0,0.0,0.0,0.0,0.0,0.0,0.0,0.0,0.0,0.0,0.0,0.0,0.0,0.0,0.0,0.0,0.0,0.0,0.0,0.0,0.0,0.0,0.0,0.0,0.0,0.0,0.0,0.0,0.0,0.0,0.0,0.0,0.0,0.0,0.0,0.0,0.0,0.0,0.0,0.0,0.0,0.0,0.0,0.0,0.0,0.0,0.0,0.0,0.0,0.0,0.0,0.0,0.0,0.0,0.0,0.0,0.0,0.0,0.0,0.0,0.0,0.0,0.0,0.0,0.0,0.0,0.0,0.0,0.0,0.0,0.0,0.0,0.0,0.0,0.0,0.0,0.0,0.0,0.0,0.0,0.0,0.0,0.0,0.0,0.0,0.0,0.0,0.0,0.0,0.0,0.0,0.0,0.0,0.0,0.0,0.0,0.0,0.0,0.0,0.0,0.0,0.0,0.0,0.0,0.0,0.0,0.0,0.0,0.0,0.0,0.0,0.0,0.0,0.0,0.0,0.0,0.0,0.0,0.0,0.0,0.0,0.0,0.0,0.0,0.0,0.0,0.0,0.0,0.0,0.0,0.0,0.0,0.0,0.0,0.0,0.0,0.0,0.0,0.0,0.0,0.0,0.0,0.0,0.0,0.0,0.0,0.0,0.0,0.0,0.0,0.0,0.0,0.0,0.0,0.0,0.0,0.0,0.0,0.0,0.0,0.0,0.0,0.0,0.0,0.0,0.0,0.0,0.0,0.0,0.0,0.0,0.0,0.0,0.0,0.0,0.0,0.0,0.0,0.0,0.0,0.0,0.0,0.0,0.0,0.0,0.0,0.0,0.0,0.0,0.0,0.0,0.0,0.0,0.0,0.0,0.0,0.0,0.0,0.0,0.0,0.0,0.0,0.0,0.0,0.0,0.0,0.0,0.0,0.0,0.0,0.0,0.0,0.0,0.0,0.0,0.0,0.0,0.0,0.0,0.0,0.0,0.0,0.0,0.0,0.0,0.0,0.0,0.0,0.0,0.0,0.0,0.0,0.0,0.0,0.0,0.0,0.0,0.0,0.0,0.0,0.0,0.0,0.0,0.0,0.0,0.0,0.0,0.0,0.0,0.0,0.0,0.0,0.0,0.0,0.0,0.0,0.0,0.0,0.0,0.0,0.0,0.0,0.0,0.0,0.0,0.0,0.0,0.0,0.0,0.0,0.0,0.0,0.0,0.0,0.0,0.0,0.0,0.0,0.0,0.0,0.0,0.0,0.0,0.0,0.0,0.0,0.0,0.0,0.0,0.0,0.0,0.0,0.0,0.0,0.0,0.0,0.0,0.0,0.0,0.0,0.0,0.0,0.0,0.0,0.0,0.0,0.0,0.0,0.0,0.0,0.0,0.0,0.0,0.0,0.0,0.0,0.0,0.0,0.0,0.0,0.0,0.0,0.0,0.0,0.0,0.0,0.0,0.0,0.0,0.0,0.0,0.0,0.0,0.0,0.0,0.0,0.0,0.0,0.0,0.0,0.0,0.0,0.0,0.0,0.0,0.0,0.0,0.0,0.0,0.0,0.0,0.0,0.0,0.0,0.0,0.0,0.0,0.0,0.0,0.0,0.0,0.0,0.0,0.0,0.0,0.0,0.0,0.0,0.0,0.0,0.0,0.0,0.0,0.0,0.0,0.0,0.0,0.0,0.0,0.0,0.0,0.0,0.0,0.0,0.0,0.0,0.0,0.0,0.0,0.0,0.0,0.0,0.0,0.0,0.0,0.0,0.0,0.0,0.0,0.0,0.0,0.0,0.0,0.0,0.0,0.0,0.0,0.0,0.0,0.0,0.0,0.0,0.0,0.0,0.0,0.0,0.0,0.0,0.0,0.0,0.0,0.0,0.0,0.0,0.0,0.0,0.0,0.0,0.0,0.0,0.0,0.0,0.0,0.0,0.0,0.0,0.0,0.0,0.0,0.0,0.0,0.0,0.0,0.0,0.0,0.0,0.0,0.0,0.0,0.0,0.0,0.0,0.0,0.0,0.0,0.0,0.0,0.0,0.0,0.0,0.0,0.0,0.0,0.0,0.0,0.0,0.0,0.0,0.0,0.0,0.0,0.0,0.0,0.0,0.0,0.0,0.0,0.0,0.0,0.0,0.0,0.0,0.0,0.0,0.0,0.0,0.0,0.0,0.0,0.0,0.0,0.0,0.0,0.0,0.0,0.0,0.0,0.0,0.0,0.0,0.0,0.0,0.0,0.0,0.0,0.0,0.0,0.0,0.0,0.0,0.0,0.0,0.0,0.0,0.0,0.0,0.0,0.0,0.0,0.0,0.0,0.0,0.0,0.0,0.0,0.0,0.0,0.0,0.0,0.0,0.0,0.0,0.0,0.0,0.0,0.0,0.0,0.0,0.0,0.0,0.0,0.0,0.0,0.0,0.0,0.0,0.0,0.0,0.0,0.0,0.0,0.0,0.0,0.0,0.0,0.0,0.0,0.0,0.0,0.0,0.0,0.0,0.0,0.0,0.0,0.0,0.0,0.0,0.0,0.0,0.0,0.0,0.0,0.0,0.0,0.0,0.0,0.0,0.0,0.0,0.0,0.0,0.0,0.0,0.0,0.0,0.0,0.0,0.0,0.0,0.0,0.0,0.0,0.0,0.0,0.0,0.0,0.0,0.0,0.0,0.0,0.0,0.0,0.0,0.0,0.0,0.0,0.0,0.0,0.0,0.0,0.0,0.0,0.0,0.0,0.0,0.0,0.0,0.0,0.0,0.0,0.0,0.0,0.0,0.0,0.0,0.0,0.0,0.0,0.0,0.0,0.0,0.0,0.0,0.0,0.0,0.0,0.0,0.0,0.0,0.0,0.0,0.0,0.0,0.0,0.0,0.0,0.0,0.0,0.0,0.0,0.0,0.0,0.0,0.0,0.0,0.0,0.0,0.0,0.0,0.0,0.0,0.0,0.0,0.0,0.0,0.0,0.0,0.0,0.0,0.0,0.0,0.0,0.0,0.0,0.0,0.0,0.0,0.0,0.0,0.0,0.0,0.0,0.0,0.0,0.0,0.0,0.0,0.0,0.0,0.0,0.0,0.0,0.0,0.0,0.0,0.0,0.0,0.0,0.0,0.0,0.0,0.0,0.0,0.0,0.0,0.0,0.0,0.0,0.0,0.0,0.0,0.0,0.0,0.0,0.0,0.0,0.0,0.0,0.0,0.0,0.0,0.0,0.0,0.0,0.0,0.0,0.0,0.0,0.0,0.0,0.0,0.0,0.0,0.0,0.0,0.0,0.0,0.0,0.0,0.0,0.0,0.0,0.0,0.0,0.0,0.0,0.0,0.0,0.0,0.0,0.0,0.0,0.0,0.0,0.0,0.0,0.0,0.0,0.0,0.0,0.0,0.0,0.0,0.0,0.0,0.0,0.0,0.0,0.0,0.0,0.0,0.0,0.0,0.0,0.0,0.0,0.0,0.0,0.0,0.0,0.0,0.0,0.0,0.0,0.0,0.0,0.0,0.0,0.0,0.0,0.0,0.0,0.0,0.0,0.0,0.0,0.0,0.0,0.0,0.0,0.0,0.0,0.0,0.0,0.0,0.0,0.0,0.0,0.0,0.0,0.0,0.0,0.0,0.0,0.0,0.0,0.0,0.0,0.0,0.0,0.0,0.0,0.0,0.0,0.0,0.0,0.0,0.0,0.0,0.0,0.0,0.0,0.0,0.0,0.0,0.0,0.0,0.0,0.0,0.0,0.0,0.0,0.0,0.0,0.0,0.0,0.0,0.0,0.0,0.0,0.0,0.0,0.0,0.0,0.0,0.0,0.0,0.0,0.0,0.0,0.0,0.0,0.0,0.0,0.0,0.0,0.0,0.0,0.0,0.0,0.0,0.0,0.0,0.0,0.0,0.0,0.0,0.0,0.0,0.0,0.0,0.0,0.0,0.0,0.0,0.0,0.0,0.0,0.0,0.0,0.0,0.0,0.0,0.0,0.0,0.0,0.0,0.0,0.0,0.0,0.0,0.0,0.0,0.0,0.0,0.0,0.0,0.0,0.0,0.0,0.0,0.0,0.0,0.0,0.0,0.0,0.0,0.0,0.0,0.0,0.0,0.0,0.0,0.0,0.0,0.0,0.0,0.0,0.0,0.0,0.0,0.0,0.0,0.0,0.0,0.0,0.0,0.0,0.0,0.0,0.0,0.0,0.0,0.0,0.0,0.0,0.0,0.0,0.0,0.0,0.0,0.0,0.0,0.0,0.0,0.0,0.0,0.0,0.0,0.0,0.0,0.0,0.0,0.0,0.0,0.0,0.0,0.0,0.0,0.0,0.0,0.0,0.0,0.0,0.0,0.0,0.0,0.0,0.0,0.0,0.0,0.0,0.0,0.0,0.0,0.0,0.0,0.0,0.0,0.0,0.0,0.0,0.0,0.0,0.0,0.0,0.0,0.0,0.0,0.0,0.0,0.0,0.0,0.0,0.0,0.0,0.0,0.0,0.0,0.0,0.0,0.0,0.0,0.0,0.0,0.0,0.0,0.0,0.0,0.0,0.0,0.0,0.0,0.0,0.0,0.0,0.0,0.0,0.0,0.0,0.0,0.0,0.0,0.0,0.0,0.0,0.0,0.0,0.0,0.0,0.0,0.0,0.0,0.0,0.0,0.0,0.0,0.0,0.0,0.0,0.0,0.0,0.0,0.0,0.0,0.0,0.0,0.0,0.0,0.0,0.0,0.0,0.0,0.0,0.0,0.0,0.0,0.0,0.0,0.0,0.0,0.0,0.0,0.0,0.0,0.0,0.0,0.0,0.0,0.0,0.0,0.0,0.0,0.0,0.0,0.0,0.0,0.0,0.0,0.0,0.0,0.0,0.0,0.0,0.0,0.0,0.0,0.0,0.0,0.0,0.0,0.0,0.0,0.0,0.0,0.0,0.0,0.0,0.0,0.0,0.0,0.0,0.0,0.0,0.0,0.0,0.0,0.0,0.0,0.0,0.0,0.0,0.0,0.0,0.0,0.0,0.0,0.0,0.0,0.0,0.0,0.0,0.0,0.0,0.0,0.0,0.0,0.0,0.0,0.0,0.0,0.0,0.0,0.0,0.0,0.0,0.0,0.0,0.0,0.0,0.0,0.0,0.0,0.0,0.0,0.0,0.0,0.0,0.0,0.0,0.0,0.0,0.0,0.0,0.0,0.0,0.0,0.0,0.0,0.0,0.0,0.0,0.0,0.0,0.0,0.0,0.0,0.0,0.0,0.0,0.0,0.0,0.0,0.0,0.0,0.0,0.0,0.0,0.0,0.0,0.0,0.0,0.0,0.0,0.0,0.0,0.0,0.0,0.0,0.0,0.0,0.0,0.0,0.0,0.0,0.0,0.0,0.0,0.0,0.0,0.0,0.0,0.0,0.0,0.0,0.0,0.0,0.0,0.0,0.0,0.0,0.0,0.0,0.0,0.0,0.0,0.0,0.0,0.0,0.0,0.0,0.0,0.0,0.0,0.0,0.0,0.0,0.0,0.0,0.0,0.0,0.0,0.0,0.0,0.0,0.0,0.0,0.0,0.0,0.0,0.0,0.0,0.0,0.0,0.0,0.0,0.0,0.0,0.0,0.0,0.0,0.0,0.0,0.0,0.0,0.0,0.0,0.0,0.0,0.0,0.0,0.0,0.0,0.0,0.0,0.0,0.0,0.0,0.0,0.0,0.0,0.0,0.0,0.0,0.0,0.0,0.0,0.0,0.0,0.0,0.0,0.0,0.0,0.0,0.0,0.0,0.0,0.0,0.0,0.0,0.0,0.0,0.0,0.0,0.0,0.0,0.0,0.0,0.0,0.0,0.0,0.0,0.0,0.0,0.0,0.0,0.0,0.0,0.0,0.0,0.0,0.0,0.0,0.0,0.0,0.0,0.0,0.0,0.0,0.0,0.0,0.0,0.0,0.0,0.0,0.0,0.0,0.0,0.0,0.0,0.0,0.0,0.0,0.0,0.0,0.0,0.0,0.0,0.0,0.0,0.0,0.0,0.0,0.0,0.0,0.0,0.0,0.0,0.0,0.0,0.0,0.0,0.0,0.0,0.0,0.0,0.0,0.0,0.0,0.0,0.0,0.0,0.0,0.0,0.0,0.0,0.0,0.0,0.0,0.0,0.0,0.0,0.0,0.0,0.0,0.0,0.0,0.0,0.0,0.0,0.0,0.0,0.0,0.0,0.0,0.0,0.0,0.0,0.0,0.0,0.0,0.0,0.0,0.0,0.0,0.0,0.0,0.0,0.0,0.0,0.0,0.0,0.0,0.0,0.0,0.0,0.0,0.0,0.0,0.0,0.0,0.0,0.0,0.0,0.0,0.0,0.0,0.0,0.0,0.0,0.0,0.0,0.0,0.0,0.0,0.0,0.0,0.0,0.0,0.0,0.0,0.0,0.0,0.0,0.0,0.0,0.0,0.0,0.0,0.0,0.0,0.0,0.0,0.0,0.0,0.0,0.0,0.0,0.0,0.0,0.0,0.0,0.0,0.0,0.0,0.0,0.0,0.0,0.0,0.0,0.0,0.0,0.0,0.0,0.0,0.0,0.0,0.0,0.0,0.0,0.0,-0.0222,0.0,0.0,0.0,0.0,0.0,0.0,0.0,0.0,0.0,0.0,0.0,0.0,0.0,0.0,0.0,0.0,0.0,0.0,0.0,0.0,0.0,0.0,0.0,0.0,0.0,0.0,0.0,0.0,-0.038,-0.0493,-0.0044,-0.0363,-0.0453,0.0,0.0,0.0,0.0,0.0,0.0,0.0,0.0,0.0,0.0,0.0,0.0,0.0,0.0,0.0,0.0,0.0,0.0,0.0,0.0,0.0,0.0,0.0,0.0,0.0,0.0,0.0,0.0,0.0,0.0,0.0,0.0,0.0,0.0,0.0,0.0,0.0,0.0,0.0,0.0,0.0,0.0,0.0,0.0,0.0,0.0,0.0,0.0,0.0,0.0,-0.0242,-0.0532,-0.0532,-0.0761,-0.0913,0.0,-0.0479,-0.0575,-0.0853,0.0,0.0,0.0,0.0,-0.088,-0.0903,-0.0935,-0.082,-0.0486,-0.048,-0.0352,-0.0038,0.0,0.0,0.0,0.0,0.0,0.0,0.0,-0.0297,-0.0947,0.0,0.0,0.0,0.0,0.0,0.0,0.0,0.0,0.0,0.0,0.0,0.0,0.0,0.0,0.0,0.0,0.0,0.0,0.0,0.0,0.0,0.0,0.0,0.0,0.0,0.0,0.0,0.0,0.0,-0.0175,-0.1397,0.0,0.0,0.0,0.0,0.0,0.0,0.0,0.0,0.0,0.0,0.0,0.0,0.0,0.0,0.0,0.0,0.0,0.0,0.0,0.0,0.0,0.0,0.0,0.0,0.0,0.0,0.0,0.0,0.0,0.0,0.0,0.0,0.0,0.0,0.0,0.0,0.0,0.0,0.0,0.0,0.0,0.0,0.0,0.0,0.0,0.0,0.0,0.0,0.0,0.0,0.0,-0.0955,-0.1907,-0.1907,-0.2917,-0.34,0.0,-0.1792,-0.2066,-0.3221,0.0,-0.3168,-0.3205,-0.3213,-0.3286,-0.3414,-0.3432,-0.2989,-0.1823,-0.17,-0.1232,-0.0114,0.0,0.0,0.0,0.0,0.0,0.0,0.0,-0.0034,-0.0067,-0.0064,0.0,0.0,0.0,0.0,0.0,0.0,0.0,0.0,0.0,0.0,0.0,0.0,0.0,0.0,0.0,0.0,0.0,0.0,0.0,0.0,0.0,0.0,0.0,0.0,0.0,0.0,0.0,0.0,-0.3171,-0.3878,0.0,-0.351,-0.3494,-0.3488,-0.3456,-0.2413,-0.2224,-0.3442,-0.2355,-0.2294,-0.3408,-0.3495,-0.3447,-0.3466,-0.3453,-0.2862,-0.1725,-0.29,-0.2256,-0.0064,-0.2401,-0.2189,-0.0062,-0.1233,-0.1091,0.0,0.0,0.0,0.0,0.0,0.0,0.0,0.0,0.0,0.0,0.0,0.0,0.0,0.0,0.0,0.0,0.0,0.0,0.0,0.0,0.0,-0.0195,-0.1148,-0.1356,-0.1513,-0.25,-0.2992,-0.3265,-0.3265,-0.3648,-0.4104,-0.4506,-0.3817,-0.3326,-0.3665,-0.3673,-0.3594,-0.3527,-0.3534,-0.3553,-0.3581,-0.3593,-0.3454,-0.2998,-0.2884,-0.2653,-0.2176,-0.2058,-0.2005,-0.1987,-0.1906,-0.186,-0.186,-0.1794,-0.2029,-0.2686,-0.27,-0.286,0.0,0.0,0.0,0.0,0.0,0.0,0.0,0.0,0.0,0.0,0.0,0.0,0.0,0.0,0.0,0.0,0.0,0.0,0.0,0.0,0.0,0.0,0.0,0.0,0.0,0.0,-0.5288,-0.5153,-0.586,-0.6173,-0.56,-0.5516,-0.5537,-0.551,-0.4429,-0.4233,-0.5434,-0.4328,-0.4195,-0.535,-0.5419,-0.5419,-0.5419,-0.5405,-0.4781,-0.3651,-0.4847,-0.4117,-0.1882,-0.4316,-0.4079,-0.1764,-0.3034,-0.2874,-0.1711,-0.1701,-0.1705,-0.162,-0.0435,0.0,0.0,0.0,0.0,0.0,0.0,0.0,0.0,0.0,0.0,0.0,0.0,-0.0356,-0.0719,-0.0719,-0.114,-0.1729,-0.2702,-0.2883,-0.2998,-0.3975,-0.4427,-0.4668,-0.4668,-0.5018,-0.5622,-0.6481,-0.5572,-0.4656,-0.4755,-0.4756,-0.4624,-0.4337,-0.427,-0.4307,-0.4326,-0.449,-0.4444,-0.4018,-0.4035,-0.3866,-0.3362,-0.3116,-0.3067,-0.3092,-0.2924,-0.2882,-0.297,-0.2799,-0.3006,-0.368,-0.3547,-0.366,-0.4089,0.0,0.0,0.0,0.0,0.0,0.0,0.0,0.0,0.0,0.0,0.0,0.0,0.0,0.0,0.0,0.0,0.0,0.0,0.0,0.0,0.0,0.0,0.0,-0.5063,-0.6465,-0.7198,-0.5915,-0.7327,-0.7786,-0.6125,-0.5953,-0.5962,-0.5989,-0.5946,-0.583,-0.5759,-0.5701,-0.564,-0.557,-0.5566,-0.5566,-0.5566,-0.5566,-0.5563,-0.5496,-0.5551,-0.5515,-0.5381,-0.5501,-0.5421,-0.5098,-0.5365,-0.5351,-0.5084,-0.5132,-0.51,-0.4767,-0.1462,-0.0171,-0.0168,-0.0168,-0.0168,-0.0168,-0.0165,-0.0164,-0.0164,-0.0161,-0.016,-0.016,-0.016,-0.1119,-0.2289,-0.2288,-0.335,-0.4517,-0.457,-0.4404,-0.4291,-0.4343,-0.5251,-0.6087,-0.6087,-0.7086,-0.7988,-0.7988,-0.6831,-0.6067,-0.6646,-0.6614,-0.6361,-0.5739,-0.565,0.0,-0.584,-0.624,-0.6085,-0.4906,-0.5168,-0.4892,-0.3487,-0.3154,-0.3059,-0.3204,-0.2952,-0.2926,-0.3194,-0.2937,-0.2787,-0.2787,-0.2348,-0.2282,-0.2613,0.0,0.0,0.0,0.0,0.0,0.0,0.0,0.0,0.0,0.0,0.0,0.0,0.0,0.0,0.0,0.0,0.0,0.0,0.0,0.0,0.0,0.0,-0.8481,-0.7998,-0.8787,-0.939,-0.9441,-1.0124,-1.0385,-1.0023,-0.9844,-0.9758,-0.9823,-0.8565,-0.8245,-0.9385,-0.8251,-0.8121,-0.9317,-0.9291,-0.9291,-0.9385,-0.9291,-0.8573,-0.7298,-0.8607,-0.7923,-0.5464,-0.8091,-0.7817,-0.5383,-0.6701,-0.6528,-0.5294,-0.5336,-0.5231,-0.4971,-0.3976,-0.3545,-0.3532,-0.3532,-0.3506,-0.3411,-0.3395,-0.3365,-0.3274,-0.3258,-0.3253,-0.3246,-0.326,-0.3548,-0.385,-0.3856,-0.415,-0.4739,-0.5841,-0.598,-0.6114,-0.7186,-0.7553,-0.7693,-0.7693,-0.7862,-0.7988,-0.7988,-0.7657,-0.743,-0.7463,-0.7468,-0.7353,-0.7088,-0.7048,0.0,-0.7102,-0.721,-0.7014,-0.621,-0.6584,-0.643,-0.5354,-0.5505,-0.558,-0.5431,-0.5229,-0.511,-0.518,-0.5021,-0.4974,-0.5074,-0.4874,-0.4809,0.0,0.0,0.0,0.0,0.0,0.0,0.0,0.0,0.0,0.0,0.0,0.0,0.0,0.0,0.0,0.0,0.0,0.0,0.0,0.0,0.0,0.0,-0.8927,-0.9632,-1.0195,-1.0412,-1.0717,-1.1253,-1.1531,-1.1681,-1.1708,-1.1545,-1.1457,-1.1484,-1.0407,-1.0162,-1.1076,-1.0153,-1.006,-1.0975,-1.0955,-1.0921,-1.088,-1.0793,-1.0238,-0.9172,-1.018,-0.9643,-0.7702,-0.9782,-0.9569,0.0,-0.8639,-0.853,-0.7513,-0.7513,-0.7473,0.0,0.0,0.0,0.0,0.0,-0.4867,-0.4796,-0.4796,-0.4711,-0.4676,-0.4676,-0.4676,-0.4669,-0.468,-0.5092,-0.5568,-0.5528,-0.5991,-0.6644,-0.7438,-0.75,-0.7618,-0.8494,-0.8533,-0.8357,-0.8357,-0.8241,-0.8133,-0.8133,0.0,0.0,-0.7874,-0.7699,-0.7421,-0.7088,-0.7041,-0.7041,-0.7041,-0.7204,-0.7163,-0.6742,-0.7102,-0.7109,-0.6424,-0.6525,0.0,0.0,0.0,-0.6098,-0.5993,-0.5881,0.0,0.0,0.0,-0.5711,-0.5895,0.0,0.0,0.0,-0.5185,-0.5393,0.0,0.0,0.0,0.0,0.0,0.0,0.0,0.0,0.0,0.0,0.0,0.0,0.0,0.0,0.0,0.0,-0.9646,-1.0507,-1.1755,-1.1572,-1.1463,-1.1857,-1.2026,-1.2054,-1.1898,-1.185,-1.1775,-1.1653,-1.1626,-1.1552,-1.1402,0.0,0.0,0.0,0.0,-1.1111,-1.0934,-1.0894,-1.0813,-1.0744,-1.0731,-1.0717,-1.0717,-1.0717,-1.0649,-1.0527,-1.0663,-1.0643,-1.0521,-1.0521,-1.0507,-1.0201,-0.6918,-0.5602,-0.546,-0.5445,-0.5424,-0.5409,-0.5409,0.0,0.0,-0.5393,-0.5393,-0.5393,-0.5393,-0.6327,-0.7359,-0.7179,-0.8118,-0.9173,-0.8974,-0.8838,-0.8737,-0.8737,-0.8621,-0.8506,-0.8506,-0.8384,-0.832,-0.832,-0.8147,-0.7988,-0.7988,-0.755,-0.7024,-0.6579,-0.6504,-0.6504,-0.6504,-0.681,-0.6937,-0.677,0.0,0.0,-0.6905,-0.6675,-0.6593,-0.6695,-0.6497,-0.6247,-0.6074,-0.5976,-0.5779,-0.5556,-0.5549,-0.5711,-0.6067,-0.6067,-0.6322,-0.6709,-0.603,-0.5935,0.0,0.0,0.0,0.0,0.0,0.0,0.0,0.0,0.0,0.0,0.0,0.0,0.0,0.0,0.0,-0.9937,-1.0928,-1.1843,-1.2467,-1.2372,-1.2277,-1.2359,-1.24,-1.2359,-1.2216,-1.1979,-1.1823,-1.1789,-1.1687,-1.1552,-1.1402,-1.1389,0.0,-1.1348,-1.1226,-1.1206,-1.1307,-1.107,-1.0867,-1.0833,0.0,0.0,-1.0717,-1.0717,-1.0704,-1.0677,-1.0711,-1.0704,-1.0677,-1.0677,-1.0602,-1.0395,-0.9463,-0.8958,-0.8836,-0.8872,-0.878,-0.8669,-0.8669,-0.8595,-0.8555,-0.8555,-0.8555,-0.8555,-0.8555,-0.8736,0.0,-0.8793,-0.8981,-0.9173,-0.8974,-0.8858,-0.8838,-0.8838,-0.8777,-0.8669,-0.8669,-0.8459,-0.832,-0.832,-0.8147,-0.7988,-0.7988,-0.7894,-0.7779,-0.7665,-0.7651,-0.7651,-0.7651,-0.7725,-0.7577,-0.7065,-0.7461,-0.7407,-0.6627,-0.6837,-0.6919,-0.6715,-0.6647,-0.66,-0.6573,-0.6539,-0.6498,-0.6444,-0.6444,-0.6485,-0.6573,-0.6573,-0.6681,-0.6836,-0.6614,-0.66,0.0,0.0,0.0,0.0,0.0,0.0,0.0,0.0,0.0,0.0,0.0,-0.8113,0.0,0.0,-1.0331,-1.0867,-1.1701,-1.2413,-1.2793,-1.2779,-1.2705,-1.2623,-1.2549,-1.2447,-1.2305,-1.2149,-1.1999,-1.1843,-1.1769,-1.166,-1.1511,-1.1504,-1.1504,-1.1504,-1.143,-1.1389,-1.1389,-1.1246,-1.1131,-1.1056,-1.0907,-1.0766,-1.0833,-1.0758,-1.0717,-1.0717,-1.0717,-1.0717,-1.0717,-1.0717,-1.0629,-1.048,-1.0331,-1.0134,-0.9862,-0.9849,-0.9774,-0.9713,-0.9713,-0.9666,-0.9598,-0.9598,-0.9598,-0.9598,-0.9598,-0.9598,-0.9571,-0.9422,-0.9381,-0.9347,-0.9198,-0.9103,-0.9049,-0.9049,-0.8933,-0.8825,-0.8825,-0.8648,-0.8465,-0.8391,-0.8255,-0.8133,-0.8002,-0.7988,-0.7988,-0.7988,-0.7988,-0.7988,-0.7988,-0.7988,-0.7847,-0.7469,-0.7678,-0.757,-0.7016,-0.7054,-0.7031,-0.6932,-0.6851,-0.6817,-0.6817,-0.6742,-0.6736,-0.681,-0.6817,-0.6851,-0.6919,-0.6919,-0.6916,-0.6991,-0.691,-0.6916,0.0,0.0,0.0,0.0,0.0,0.0,0.0,0.0,-0.7678,-0.8045,-0.8499,-0.9036,-0.9514,-1.0276,-1.109,-1.1728,-1.2284,-1.2718,-1.2969,-1.2949,-1.2861,-1.2705,-1.2603,-1.2481,-1.2305,-1.2264,-1.2128,-1.185,-1.1809,-1.1742,-1.1626,-1.1619,-1.1619,-1.1619,-1.1619,-1.1572,-1.1477,-1.1416,-1.1341,-1.1246,-1.1043,-1.088,-1.0873,-1.0792,-1.0717,-1.0717,-1.0717,-1.0717,-1.0717,-1.0717,-1.0649,-1.0534,-1.0507,-1.0344,-1.0051,-0.9964,-0.991,-0.991,-0.991,-0.989,-0.9863,-0.9863,-0.9842,-0.9822,-0.9822,-0.9822,-0.9788,-0.9652,-0.9612,-0.9571,-0.9422,-0.935,-0.9255,-0.9255,-0.9089,-0.8981,-0.8981,-0.8838,-0.8676,-0.8554,-0.8411,-0.8262,-0.8113,-0.8035,-0.8022,-0.7995,-0.7988,-0.7988,-0.7988,-0.7988,-0.7941,-0.7868,-0.7828,-0.7706,-0.7441,-0.7272,-0.7139,-0.7139,-0.7004,-0.6923,-0.6923,-0.6851,-0.6844,-0.6923,-0.6923,-0.6984,-0.7098,-0.7098,-0.7098,-0.7098,-0.7125,-0.7125,-0.6107,-0.5985,-0.6236,-0.6734,-0.7075,-0.7583,0.0,0.0,-0.9293,-0.9863,-1.0439,-1.0927,-1.0928,-1.1674,-1.2352,-1.2569,-1.2881,-1.3112,-1.3146,-1.2922,-1.2698,-1.2549,-1.263,-1.2596,-1.2318,-1.2169,-1.2013,-1.1843,-1.1714,-1.1633,-1.1619,-1.1619,-1.1619,-1.1619,-1.1619,-1.1674,-1.1782,-1.1525,-1.145,-1.1565,-1.1076,-1.088,-1.0873,-1.0792,-1.0717,-1.0717,-1.0717,-1.0717,-1.0717,-1.0717,-1.0711,-1.0683,-1.0548,-1.0473,-1.0426,-1.0283,-1.0229,-1.0229,-1.0229,-1.0141,-0.9963,-0.9963,-0.9869,-0.9822,-0.9822,-0.9822,-0.9788,-0.9652,-0.9612,-0.9571,-0.9422,-0.9367,-0.9354,-0.9354,-0.9296,-0.9187,-0.9187,-0.8906,-0.8703,-0.8689,-0.856,-0.8411,-0.8269,-0.8241,-0.8201,-0.8008,-0.7988,-0.7988,-0.7988,-0.7988,-0.7982,-0.7968,-0.7889,-0.7746,-0.759,-0.7434,-0.7346,-0.7346,-0.7204,-0.7071,-0.7071,-0.7058,-0.7058,-0.7071,-0.7071,-0.7078,-0.7098,-0.7098,-0.7098,-0.7098,-0.7278,-0.7272,-0.7149,-0.7007,-0.7129,0.0,-0.8323,-0.8784,-0.972,-1.012,-1.0412,-1.0839,-1.1402,-1.1843,-1.1925,-1.2461,-1.2915,0.0,-1.3091,-1.3112,-1.2942,-1.2732,-1.2508,-1.2271,-1.2223,-1.2196,-1.2162,-1.2101,-1.1999,-1.1843,-1.1775,-1.1742,-1.1742,-1.166,-1.1653,-1.1742,-1.1742,-1.1735,-1.1708,-1.1667,-1.164,-1.1613,-1.1341,-1.1158,-1.107,-1.0921,-1.0739,-1.0717,-1.0717,-1.0717,-1.0717,-1.0717,-1.0717,-1.0711,-1.0649,-1.0622,-1.0595,-1.0365,-1.0283,-1.027,-1.0175,-1.0038,-0.997,-0.9883,-0.9876,-0.9822,-0.9822,-0.9822,-0.9808,-0.9747,-0.9734,-0.972,-0.9652,-0.9578,-0.9517,-0.9517,-0.9395,-0.9316,-0.9228,-0.9111,-0.892,-0.8743,-0.8662,-0.854,-0.8361,-0.832,-0.8214,-0.8015,-0.7988,-0.7988,-0.7988,-0.7988,-0.7988,-0.7988,-0.7902,-0.7787,-0.7726,-0.759,-0.7502,-0.7502,-0.7441,-0.7407,-0.7407,-0.7407,-0.7407,-0.7407,-0.7407,-0.7407,-0.7407,-0.7407,-0.7407,-0.7407,-0.7475,-0.7468,-0.7645,-0.7706,0.0,-0.8925,-0.9564,-1.0059,-1.0765,-1.1158,-1.1436,-1.1653,-1.2115,-1.2481,-1.2501,-1.28,-1.3051,-1.3051,-1.3017,-1.2915,-1.2698,-1.2501,-1.2257,-1.1918,-1.1742,-1.1674,-1.1748,-1.187,-1.1911,-1.1837,-1.183,-1.185,-1.1891,-1.1796,-1.1789,-1.1891,-1.1898,-1.1864,-1.1803,-1.1864,-1.1843,-1.1742,-1.1545,-1.1355,-1.1158,-1.0968,-1.0759,-1.0717,-1.0717,-1.0717,-1.0717,-1.0717,-1.0717,-1.0717,-1.0717,-1.0717,-1.0697,-1.048,-1.0399,-1.0378,-1.0222,-1.0175,-1.0141,-0.9944,-0.9883,-0.9876,-0.9836,-0.9822,-0.9822,-0.9822,-0.9822,-0.9822,-0.9822,-0.9747,-0.9666,-0.9666,-0.9551,-0.9401,-0.9309,-0.9241,-0.9132,-0.8825,-0.8771,-0.8696,-0.8438,-0.8391,-0.833,-0.8133,-0.8106,-0.8085,-0.7995,-0.7988,-0.7988,-0.7988,-0.7894,-0.7875,-0.7875,-0.774,-0.7658,-0.7658,-0.7617,-0.7597,-0.7597,-0.7597,-0.7597,-0.7597,-0.7597,-0.7597,-0.7597,-0.7597,-0.7597,-0.7604,-0.7638,-0.7658,-0.7326,-0.7706,-0.816,-0.9586,-1.0568,-1.1267,-1.1877,-1.2244,-1.2461,-1.2467,-1.2718,-1.2854,-1.2556,-1.263,-1.2745,-1.2745,-1.2617,-1.2522,-1.2508,-1.2257,-1.1911,-1.1463,-1.1274,-1.1131,0.0,-1.1375,-1.1687,-1.1823,-1.183,-1.1898,-1.2047,-1.2128,-1.2128,-1.2054,-1.2054,-1.2121,-1.2271,-1.2128,-1.2054,-1.2047,-1.1755,-1.1457,-1.122,-1.086,-1.0724,-1.0717,-1.0717,-1.0717,-1.0717,-1.0717,-1.0717,-1.0717,-1.0717,-1.0717,-1.0717,-1.0711,-1.0704,-1.0683,-1.0534,-1.048,-1.0432,-1.0078,-0.9977,-0.995,-0.9869,-0.9822,-0.9822,-0.9822,-0.9822,-0.9822,-0.9822,-0.9815,-0.9815,-0.9815,-0.9707,-0.9557,-0.9408,-0.9316,-0.9166,-0.896,-0.8878,-0.8824,-0.8723,-0.8696,-0.8601,-0.8309,-0.8313,-0.8208,-0.8008,-0.7988,-0.7988,-0.7988,-0.7988,-0.7982,-0.7982,-0.7889,-0.7801,-0.7801,-0.7678,-0.7597,-0.7597,-0.7597,-0.7597,-0.7597,-0.7597,-0.7597,-0.7597,-0.7597,-0.7597,-0.7604,-0.774,-0.7801,-0.8079,-0.8804,-0.9505,-1.0663,-1.1497,-1.2155,-1.2569,-1.2739,-1.2752,-1.2542,-1.2189,-1.1796,-1.1396,-1.1118,-1.1084,-1.1484,-1.1674,-1.187,-1.2169,-1.2128,-1.1898,-1.1443,-1.1253,0.0,0.0,0.0,0.0,-1.1518,-1.1633,-1.1803,-1.2047,-1.2135,-1.2108,-1.221,-1.221,-1.2189,-1.2142,-1.2088,-1.2013,-1.1904,-1.1504,-1.126,-1.122,-1.0853,-1.0717,-1.0717,-1.0717,-1.0717,-1.0717,-1.0717,-1.0717,-1.0717,-1.0717,-1.0717,-1.0717,-1.0717,-1.0717,-1.0697,-1.0548,-1.0432,-1.0317,-1.0051,-0.9916,-0.9849,-0.9896,-0.9903,-0.9842,-0.9883,-0.9835,-0.9822,-0.9822,-0.9822,-0.9822,-0.9822,-0.9781,-0.9707,-0.9564,-0.949,-0.9381,-0.913,-0.9083,-0.9001,-0.875,-0.871,-0.8608,-0.8316,-0.818,-0.8099,-0.7995,-0.7988,-0.7988,-0.7988,-0.7988,-0.7988,-0.7988,-0.7941,-0.7914,-0.7914,-0.7867,-0.784,-0.784,-0.784,-0.784,-0.784,-0.784,-0.784,-0.784,-0.784,-0.784,-0.7847,-0.7894,-0.7914,-0.8859,-0.9802,-1.0677,-1.1633,-1.2311,-1.2793,-1.299,-1.2956,-1.2732,-1.221,-1.1552,-1.09,-1.0344,-0.9876,-0.9822,-1.0588,-1.0826,-1.1158,-1.1877,-1.1843,-1.1653,-1.1416,-1.1165,-1.0955,0.0,0.0,0.0,-1.1369,-1.1633,-1.1884,-1.2128,-1.2189,-1.2264,-1.2366,-1.2366,-1.2318,-1.2223,-1.2169,-1.204,-1.1823,-1.1375,-1.1234,-1.122,-1.0853,-1.0717,-1.0717,-1.0717,-1.0717,-1.0717,-1.0717,-1.0717,-1.0717,-1.0717,-1.0717,-1.0717,-1.0717,-1.0717,-1.0697,-1.0548,-1.0466,-1.0405,-1.0195,-1.01,-1.0073,-1.012,-1.0059,-0.9992,-0.9977,-0.9916,-0.989,-0.9836,-0.9822,-0.9822,-0.9822,-0.9822,-0.9781,-0.9639,-0.9612,-0.9537,-0.9344,-0.9289,-0.9228,-0.8981,-0.8859,-0.871,-0.8465,-0.8255,-0.8099,-0.7995,-0.7988,-0.7988,-0.7988,-0.7988,-0.7988,-0.7988,-0.7988,-0.7988,-0.7988,-0.7988,-0.7988,-0.7988,-0.7988,-0.7988,-0.7988,-0.7988,-0.7988,-0.7988,-0.7988,-0.7988,-0.7988,-0.7988,-0.7988,-0.9606,-1.0683,-1.1497,-1.2515,-1.2969,-1.3166,-1.3152,-1.2888,-1.24,-1.1504,-1.0799,-1.012,-0.9388,0.0,-0.8974,-1.0025,-1.0127,-1.0415,-1.1667,-1.1477,-1.1267,0.0,0.0,0.0,0.0,0.0,0.0,-1.1396,0.0,-1.2121,-1.2284,-1.2427,-1.2501,-1.2501,-1.2494,-1.2488,-1.2488,-1.2338,-1.2121,-1.1823,-1.1375,-1.1234,-1.122,-1.0853,-1.0717,-1.0717,-1.0717,-1.0717,-1.0717,-1.0717,-1.0717,-1.0717,-1.0717,-1.0717,-1.0717,-1.0717,-1.0717,-1.0697,-1.0555,-1.0595,-1.0663,-1.0385,-1.0378,-1.046,-1.0331,-1.0283,-1.0249,-1.0038,-0.999,-0.9957,-0.9869,-0.9829,-0.9822,-0.9829,-0.9829,-0.9781,-0.9652,-0.9618,-0.9578,-0.9422,-0.9388,-0.9381,-0.9367,-0.9137,-0.8838,-0.8737,-0.8472,-0.8235,-0.8022,-0.7995,-0.7988,-0.7988,-0.7988,-0.7988,-0.7988,-0.7988,-0.7988,-0.7988,-0.7988,-0.7988,-0.7988,-0.7988,-0.7988,-0.7988,-0.7988,-0.7988,-0.7988,-0.7988,-0.7988,-0.7988,-0.7988,-0.7988,-1.1043,-1.1925,-1.2617,-1.3105,-1.32,-1.3112,-1.2895,-1.2176,-1.1341,-1.0555,-0.9293,-0.8174,-0.7651,-0.7496,0.0,-0.894,-0.9822,0.0,-1.1694,-1.1932,0.0,-1.1742,0.0,-1.1525,-1.1457,-1.1545,0.0,0.0,-1.1823,-1.2006,-1.2277,-1.2427,-1.2501,-1.2501,-1.24,-1.2345,-1.2345,-1.2081,-1.1911,-1.1823,-1.1375,-1.1234,-1.122,-1.0853,-1.0717,-1.0717,-1.0717,-1.0717,-1.0717,-1.0717,-1.0717,-1.0717,-1.0717,-1.0717,-1.0717,-1.0717,-1.0717,-1.0717,-1.0677,-1.0616,-1.0534,-1.046,-1.0392,-1.0344,-1.0419,-1.0365,-1.027,-1.0236,-1.0141,-0.9977,-0.9936,-0.9849,-0.9849,-0.9903,-0.9903,-0.9808,-0.9774,-0.9768,-0.9727,-0.9578,-0.9456,-0.9347,-0.9289,-0.9207,-0.9008,-0.875,-0.8648,-0.8506,-0.8248,-0.8113,-0.7988,-0.7988,-0.7988,-0.7988,-0.7988,-0.7988,-0.7988,-0.7988,-0.7988,-0.7988,-0.7988,-0.7988,-0.7988,-0.7988,-0.7988,-0.7988,-0.7988,-0.7988,-0.7988,-0.7988,-0.7988,-0.7988,-1.2121,-1.2874,-1.337,-1.3471,-1.3336,-1.2976,-1.2216,-1.1389,-1.0432,-0.9225,-0.8031,-0.7129,-0.6871,-0.6837,0.0,0.0,0.0,0.0,-1.1572,-1.183,-1.1932,0.0,-1.1911,0.0,-1.1816,-1.1945,-1.2033,0.0,-1.2033,-1.2108,-1.2284,-1.2427,-1.2501,-1.2501,-1.2427,-1.2318,-1.2189,-1.1952,-1.1796,-1.1735,-1.1348,-1.1234,-1.122,-1.0853,-1.0717,-1.0717,0.0,-1.0717,-1.0717,-1.0717,-1.0717,-1.0717,-1.0717,-1.0717,-1.0717,-1.0717,-1.0717,-1.0717,-1.0717,-1.0622,-1.05,-1.0568,-1.0541,-1.0487,-1.0568,-1.0534,-1.046,-1.0392,-1.0263,-1.0134,-1.0004,-0.9923,-0.9862,-0.9883,-0.9876,-0.9842,-0.9836,-0.9822,-0.9795,-0.972,-0.9632,-0.9503,-0.935,-0.9309,-0.915,-0.8852,-0.875,-0.8648,-0.8486,-0.8275,-0.8113,-0.7995,-0.7988,-0.7988,-0.7988,-0.7988,-0.7988,-0.7988,-0.7988,-0.7988,-0.7988,-0.7988,-0.7988,-0.7988,-0.7988,-0.7988,-0.7988,-0.7988,-0.7988,-0.7988,-0.7988,-0.7988,-1.2915,-1.3532,-1.3824,-1.3648,-1.3342,-1.2732,-1.1382,-1.0555,-0.9585,-0.7862,-0.7014,-0.6593,-0.6634,-0.6552,-0.7014,-0.8615,0.0,-0.993,-1.1409,-1.1538,-1.1681,-1.2223,-1.2088,-1.1999,-1.2135,-1.2291,-1.2372,-1.2352,-1.2366,-1.2372,-1.2352,-1.2467,-1.2515,-1.2474,-1.2454,-1.2318,-1.206,-1.1891,-1.1748,-1.1647,-1.1341,-1.1261,-1.1255,-1.0887,-1.0751,-1.0751,0.0,0.0,-1.0717,-1.0717,-1.0717,-1.0717,-1.0717,-1.0717,-1.0717,-1.0717,-1.0717,-1.0717,-1.0717,-1.0636,-1.0541,-1.0656,-1.069,-1.069,-1.069,-1.0704,-1.069,-1.0534,-1.0405,-1.0276,-1.0078,-1.0031,-0.9984,-0.991,-0.9903,-0.9943,-0.9856,-0.9822,-0.9822,-0.9822,-0.9822,-0.9734,-0.9456,-0.9395,-0.9286,-0.9008,-0.8838,-0.873,-0.871,-0.8472,-0.8241,-0.8035,-0.8022,-0.8015,-0.7988,-0.7988,-0.7988,-0.7988,-0.7988,-0.7988,-0.7988,-0.7988,-0.7988,-0.7988,-0.7988,-0.7988,-0.7988,-0.7988,-0.7988,-0.7988,-0.7988,-0.7988,-1.3268,-1.3688,-1.3939,-1.3539,-1.3024,-1.2264,-1.0914,-0.9768,0.0,-0.7312,-0.6464,-0.6037,-0.6327,-0.645,-0.7014,-0.8615,-0.9293,-1.0053,-1.1423,0.0,-1.2033,0.0,0.0,0.0,0.0,0.0,0.0,0.0,0.0,-1.2793,-1.2657,-1.2678,-1.2576,-1.2332,-1.2203,-1.2115,-1.2135,-1.1796,-1.1701,-1.1789,-1.1491,-1.1348,-1.1341,-1.1043,-1.084,-1.0833,-1.0772,0.0,-1.0717,-1.0717,-1.0717,-1.0717,-1.0717,-1.0717,-1.0717,-1.0717,-1.0717,-1.0717,-1.0717,-1.0704,-1.0663,-1.0561,-1.0534,-1.0534,-1.0534,-1.0622,-1.069,-1.0534,-1.0473,-1.0453,-1.0426,-1.0331,-1.0236,-1.0209,-1.012,-0.9943,-0.9856,-0.9822,-0.9822,-0.9822,-0.9822,-0.9768,-0.9598,-0.9462,-0.932,-0.92,-0.8994,-0.8797,-0.8723,-0.8554,-0.8391,-0.8248,-0.8228,-0.818,-0.8002,-0.7988,-0.7988,-0.7988,-0.7988,-0.7988,-0.7988,-0.7988,-0.7988,-0.7988,-0.7988,-0.7988,-0.7988,-0.7988,-0.7988,-0.7988,-0.7988,-0.7988,-1.3261,-1.3607,-1.3865,-1.3492,-1.2834,-1.1962,-1.0626,0.0,0.0,-0.7195,-0.7126,-0.7294,-0.7026,-0.7185,-0.7851,-0.9258,-0.928,-1.0053,-1.2588,0.0,0.0,0.0,0.0,0.0,0.0,0.0,0.0,0.0,0.0,-1.2935,-1.263,-1.261,-1.2549,-1.2406,-1.2257,-1.2142,-1.2135,-1.1843,-1.1728,-1.1714,-1.1497,-1.1348,-1.1267,-1.105,-1.084,-1.0759,-1.0751,0.0,-1.0717,-1.0717,-1.0717,-1.0717,-1.0717,-1.0717,-1.0717,-1.0717,-1.0717,-1.0717,-1.0717,-1.067,-1.0588,-1.0514,-1.0548,-1.0609,-1.0609,-1.0663,-1.0704,-1.0629,-1.0555,-1.0473,-1.0399,-1.0331,-1.0243,-1.008,-0.9985,-0.9849,-0.9836,-0.9822,-0.9822,-0.9822,-0.9822,-0.9774,-0.9632,-0.9551,-0.9422,-0.9248,-0.9096,-0.8994,-0.8845,-0.8764,-0.8608,-0.8354,-0.832,-0.8208,-0.8002,-0.7988,-0.7988,-0.7988,-0.7988,-0.7988,-0.7988,-0.7988,-0.7988,-0.7988,-0.7988,-0.7988,-0.7988,-0.7988,-0.7988,-0.7988,-0.7988,-0.7988,-1.3139,-1.3498,-1.3828,-1.3844,-1.3141,-1.2199,-1.1109,-1.0441,0.0,-0.7457,-0.8014,-0.862,-0.7851,-0.8037,-0.8705,-0.9892,-0.9502,-1.0176,-1.3558,0.0,0.0,0.0,0.0,0.0,0.0,0.0,0.0,0.0,0.0,0.0,-1.2569,-1.2549,-1.2535,-1.2501,-1.2366,-1.2216,-1.206,-1.1911,-1.1762,-1.1619,-1.1497,-1.1375,-1.1253,-1.1077,-1.0928,-1.0812,-1.0751,0.0,0.0,-1.0717,-1.0717,-1.0717,-1.0717,-1.0717,-1.0717,-1.0717,-1.0717,-1.0717,-1.0717,-1.0643,-1.0541,-1.0541,-1.0602,-1.067,-1.067,-1.0697,-1.0717,-1.0717,-1.0636,-1.0514,-1.0405,-1.0378,-1.0297,-0.9992,-0.9869,-0.9822,-0.9822,-0.9822,-0.9822,-0.9822,-0.9822,-0.9788,-0.9673,-0.9632,-0.953,-0.9344,-0.9255,-0.9166,-0.9001,-0.8905,-0.8791,-0.8404,-0.8336,-0.8255,-0.8099,-0.8008,-0.7988,-0.7988,-0.7988,-0.7988,-0.7988,-0.7988,-0.7988,-0.7988,-0.7988,-0.7988,-0.7988,-0.7988,-0.7988,-0.7988,-0.7988,-0.7988,-1.3024,-1.3498,-1.4006,-1.509,-1.4445,-1.3557,-1.3088,0.0,-1.0613,-0.799,-0.8298,-0.8869,-0.8256,-0.8467,-0.9102,-1.0208,-1.0201,-1.0877,-1.325,-1.4365,0.0,0.0,0.0,0.0,0.0,0.0,0.0,0.0,0.0,0.0,-1.2705,-1.2712,-1.2644,-1.2508,-1.2366,-1.2216,-1.206,-1.1911,-1.1762,-1.1619,-1.1606,-1.1592,-1.1565,-1.1274,-1.1138,-1.1111,-1.0839,0.0,0.0,-1.0717,-1.0717,-1.0717,-1.0717,-1.0717,-1.0717,-1.0717,-1.0717,-1.0717,-1.0717,-1.0711,-1.0697,-1.0697,-1.0616,-1.0514,-1.0514,-1.0609,-1.0717,-1.0717,-1.0711,-1.0697,-1.0683,-1.0677,-1.0609,-1.031,-1.0025,-0.9822,-0.9822,-0.9822,-0.9822,-0.9822,-0.9822,-0.9815,-0.9802,-0.9693,-0.9598,-0.9571,-0.9334,-0.9207,-0.9193,-0.9022,-0.8817,-0.8689,-0.8547,-0.8404,-0.8262,-0.8119,-0.7988,-0.7988,-0.7988,-0.7988,-0.7988,-0.7988,-0.7988,-0.7988,-0.7988,-0.7988,-0.7988,-0.7988,-0.7988,-0.7988,-0.7988,-0.7988,-1.3467,-1.4539,-1.5432,-1.6879,-1.6065,-1.4725,-1.3853,0.0,-1.1532,-0.9637,-1.0196,-1.0726,-0.97,-0.9721,-1.0094,-1.0671,-1.0058,-1.0688,-1.3955,-1.4941,0.0,0.0,0.0,0.0,0.0,0.0,0.0,0.0,0.0,0.0,-1.4431,-1.3205,-1.2562,-1.2501,-1.2366,-1.2216,-1.206,-1.1911,-1.1762,-1.1619,-1.1619,-1.1525,-1.1341,-1.1219,-1.1063,-1.0887,-1.0772,0.0,0.0,-1.0717,-1.0717,-1.0717,-1.0717,-1.0717,-1.0717,-1.0717,-1.0717,-1.0717,-1.0717,-1.0717,-1.0717,-1.0717,-1.0677,-1.0629,-1.0629,-1.067,-1.0717,-1.0717,-1.0717,-1.0697,-1.0609,-1.0453,-1.031,-1.0283,-1.0114,-0.9896,-0.9896,-0.9896,-0.9869,-0.9836,-0.9822,-0.9822,-0.9822,-0.9774,-0.9707,-0.9618,-0.9429,-0.9316,-0.9221,-0.9028,-0.8858,-0.8797,-0.871,-0.8526,-0.834,-0.8214,-0.814,-0.7995,-0.7988,-0.7988,-0.7988,-0.7988,-0.7988,-0.7988,-0.7988,-0.7988,-0.7988,-0.7988,-0.7988,-0.7988,-0.7988,-0.7988,-1.3733,-1.5088,-1.6313,-1.8384,-1.7254,-1.5561,0.0,0.0,-1.2248,-1.0809,-1.1487,-1.1931,-1.073,-1.0852,-1.1148,-1.1261,-1.0503,-1.1062,-1.4401,-1.5477,0.0,0.0,0.0,0.0,0.0,0.0,0.0,0.0,0.0,0.0,0.0,-1.5089,-1.3699,-1.2517,-1.2345,-1.2196,-1.1993,-1.1884,-1.1762,-1.1619,-1.1619,-1.1484,-1.1226,-1.1255,-1.1029,-1.0785,0.0,0.0,0.0,-1.0717,-1.0717,-1.0717,-1.0717,-1.0717,-1.0717,-1.0717,-1.0717,-1.0717,-1.0717,-1.0717,-1.0717,-1.0717,-1.0717,-1.0717,-1.0717,-1.0717,-1.0717,-1.0717,-1.0717,-1.0697,-1.0588,-1.0371,-1.0195,-1.0263,-1.0161,-0.9977,-0.993,-0.9923,-0.9889,-0.9842,-0.9822,-0.9822,-0.9822,-0.9822,-0.9788,-0.9686,-0.9503,-0.9361,-0.935,-0.9117,-0.9001,-0.9001,-0.8906,-0.8723,-0.8425,-0.8323,-0.8221,-0.8113,-0.8015,-0.7988,-0.7988,-0.7988,-0.7988,-0.7988,-0.8379,-0.8577,-0.8577,-0.8966,-0.8973,-0.8577,-0.8966,-0.8973,-1.3649,-1.4913,-1.6226,-1.9338,-1.7859,-1.5977,-1.6938,-1.511,-1.2726,-1.1127,-1.1613,-1.1996,-1.0969,-1.1613,-1.2198,-1.194,-1.1864,-1.2492,-1.4269,-1.5792,0.0,0.0,0.0,0.0,0.0,0.0,0.0,0.0,0.0,0.0,0.0,-1.8572,-1.6594,-1.2443,-1.2291,-1.2142,-1.1837,-1.183,-1.1762,-1.1619,-1.1619,-1.1538,-1.1382,-1.1233,-1.1084,0.0,0.0,0.0,0.0,-1.0717,-1.0717,-1.0717,-1.0717,-1.0717,-1.0717,-1.0717,-1.0717,-1.0717,-1.0717,-1.0717,-1.0717,-1.0717,-1.0717,-1.0717,-1.0717,-1.0717,-1.0717,-1.0717,-1.0717,-1.0717,-1.0717,-1.0602,-1.0453,-1.0317,-1.0161,-0.9943,-0.9856,-0.9822,-0.9822,-0.9822,-0.9822,-0.9822,-0.9822,-0.9822,-0.9822,-0.9822,-0.9571,-0.9435,-0.9585,-0.934,-0.9207,-0.9207,-0.9207,-0.9084,-0.873,-0.8438,-0.832,-0.832,-0.8126,-0.7988,-0.7988,-0.7988,-0.7988,-0.7988,-0.9312,-1.0002,-1.0002,-1.1219,-1.1219,-1.0002,-1.1268,-1.117,-1.2311,-1.3909,-1.5384,-1.7547,-1.6807,-1.5403,-1.5133,-1.3976,-1.2696,-1.1963,-1.207,-1.2194,-1.1885,-1.207,-1.2278,-1.2184,-1.2171,-1.2505,-1.3494,0.0,0.0,0.0,0.0,0.0,0.0,0.0,0.0,0.0,0.0,0.0,0.0,-2.046,-1.9139,-1.6385,-1.6175,-1.5976,-1.5714,-1.4297,-1.3571,-1.3515,-1.3334,-1.2562,-1.1295,-1.2293,0.0,0.0,0.0,0.0,0.0,-1.0717,-1.0717,-1.0717,-1.0717,-1.0717,-1.0717,-1.0717,-1.0717,-1.0717,-1.0717,-1.0717,-1.0717,-1.0717,-1.0649,-1.0582,-1.069,-1.0717,-1.0717,-1.0717,-1.0717,-1.0717,-1.0717,-1.0609,-1.0507,-1.0568,-1.0392,-1.0222,-1.027,-1.012,-0.9916,-0.9916,-0.989,-0.9822,-0.9822,-0.9822,-0.9822,-0.9822,-1.0599,-1.1176,-1.1232,-1.2006,-1.2467,-1.2283,-1.2265,-1.1283,-0.8899,-0.8621,-0.8486,-0.8333,-0.9069,-0.948,-0.9369,-1.019,-1.0681,-1.0681,-1.1072,-1.1317,-1.1317,-1.1707,-1.1707,-1.1317,-1.1707,-1.1835,-1.1391,-1.3029,-1.4392,-1.6362,-1.5685,0.0,-1.4162,-1.3133,-1.2288,-1.2291,-1.2305,-1.2305,-1.2305,-1.2305,-1.2305,-1.2305,-1.2211,-1.2385,0.0,0.0,0.0,0.0,0.0,0.0,0.0,0.0,0.0,0.0,0.0,0.0,0.0,-2.2423,-2.1643,-2.0123,-1.858,-1.76,-1.7379,-1.6117,-1.5379,-1.5298,-1.5111,-1.4362,-1.3094,-1.4057,0.0,0.0,0.0,0.0,0.0,-1.0982,-1.0717,-1.0717,-1.0717,-1.0717,-1.0717,-1.0717,-1.0717,-1.0717,-1.0717,-1.0717,-1.0717,-1.0717,-1.0616,-1.0521,-1.0677,-1.0717,-1.0717,-1.0717,-1.0717,-1.0717,-1.0717,-1.0649,-1.0588,-1.0622,-1.0493,-1.0371,-1.0405,-1.027,-1.0322,-1.1003,-1.0925,-1.0997,-1.1659,-1.1663,-1.1615,-1.1615,-1.2344,-1.2894,-1.2967,-1.3722,-1.4173,-1.3974,-1.3826,-1.2913,-1.0786,-1.0423,-1.0253,-1.0087,-1.0766,-1.1125,-1.1057,-1.1795,-1.2242,-1.2242,-1.2738,-1.2985,-1.2985,-1.2985,-1.3232,-1.3686,-1.2688,-1.2613,0.0,-1.2042,-1.3101,-1.5325,-1.4429,-1.3173,-1.3761,-1.2612,0.0,-1.2184,-1.2305,-1.2305,-1.2305,-1.2305,-1.2305,-1.2331,-1.2131,-1.2265,0.0,0.0,0.0,0.0,0.0,0.0,0.0,0.0,0.0,0.0,0.0,0.0,0.0,-2.4182,-2.3915,-2.334,-1.9778,-1.7805,-1.7599,-1.7448,-1.7256,-1.6973,-1.6932,-1.6641,-1.6125,-1.6237,0.0,0.0,0.0,0.0,0.0,-1.1762,-1.1049,-1.1049,-1.1049,-1.1049,-1.1049,-1.1049,-1.1049,-1.1049,-1.1049,-1.1049,-1.1042,-1.1035,-1.0995,-1.0904,-1.1052,-1.0895,-1.0704,-1.0717,-1.0717,-1.0717,-1.0717,-1.0717,-1.0683,-1.0541,-1.05,-1.046,-1.0337,-1.0297,-1.0848,-1.2548,-1.2631,-1.2926,-1.4689,-1.4811,-1.4599,-1.4599,-1.4603,-1.4659,-1.4757,-1.4769,-1.475,-1.4729,-1.4406,-1.4178,-1.3996,-1.3408,-1.3046,-1.3026,-1.2946,-1.2936,-1.2915,-1.3017,-1.3069,-1.3069,-1.4292,-1.4951,-1.4951,-1.4951,-1.5519,-1.665,-1.4191,-1.3744,-0.7523,0.0,-1.0414,-1.1633,-1.1578,-1.1377,0.0,-1.1695,-1.1562,-1.2184,-1.2305,-1.2305,-1.2305,-1.2305,-1.2371,-1.2636,-1.2786,-1.3053,0.0,0.0,0.0,0.0,0.0,0.0,0.0,0.0,0.0,0.0,0.0,0.0,0.0,-2.3995,-2.3701,-2.334,-2.2241,-2.159,-2.1527,-1.9851,-1.897,-1.8971,-1.8451,-1.7487,-1.6115,-1.738,0.0,0.0,0.0,0.0,-1.5265,-1.4874,-1.4688,-1.4688,-1.4688,-1.4688,-1.4688,-1.4688,-1.4688,-1.4688,-1.4688,-1.4688,-1.466,-1.4557,-1.4418,-1.4326,-1.4501,-1.2661,-1.0568,-1.0683,-1.0717,-1.0717,-1.0717,-1.0717,-1.0711,-1.0677,-1.0575,-1.0514,-1.0602,-1.0439,-1.0877,-1.2697,-1.2716,-1.2926,-1.4689,-1.4811,-1.4599,-1.4599,-1.5622,-1.6423,-1.6433,-1.7453,-1.8109,-1.7894,-1.7572,-1.7282,-1.6993,-1.4698,-1.3166,-1.2983,-1.3926,-1.4447,-1.4343,-1.5267,-1.5783,-1.5783,-1.6085,-1.6236,-1.6236,-1.6236,-1.64,-1.67,-1.6085,-1.61,-0.6433,-0.7665,-0.8807,-0.9288,-1.0104,-1.0777,-1.0806,-1.1218,-1.1757,-1.2211,-1.2305,-1.2305,-1.2305,-1.2305,-1.2398,-1.273,-1.328,0.0,0.0,0.0,0.0,0.0,0.0,0.0,0.0,0.0,0.0,0.0,0.0,0.0,0.0,-2.3728,-2.3367,-2.2926,-2.2752,-2.2659,-2.2659,-2.1459,-2.0784,-2.0535,-2.017,-1.9427,-1.8388,-1.9288,-1.9164,0.0,0.0,0.0,-1.7023,-1.6237,-1.5913,-1.5913,-1.5913,-1.5913,-1.5913,-1.5913,-1.5913,-1.5913,-1.5913,-1.5913,-1.5893,-1.5836,-1.56,-1.5468,-1.5734,-1.4317,-1.2786,-1.2988,-1.3062,-1.3062,-1.3062,-1.3062,-1.3062,-1.3062,-1.3053,-1.3003,-1.3046,-1.297,-1.3439,-1.5199,-1.5127,-1.533,-1.7101,-1.7146,-1.6937,-1.682,-1.7669,-1.8248,-1.8123,-1.8881,-1.9305,-1.9145,-1.8744,-1.8477,-1.8437,-1.6476,-1.5246,-1.5106,-1.5801,-1.6158,-1.6111,-1.6742,-1.7101,-1.7101,-1.7101,-1.7101,-1.7101,-1.7101,-1.7101,-1.7101,-1.7101,-1.7194,-0.6253,-0.7242,-0.8032,-0.8235,-0.9545,-1.0743,-1.0447,-1.115,-1.1993,-1.2238,-1.2305,-1.2331,-1.2425,-1.2518,0.0,0.0,0.0,0.0,0.0,0.0,0.0,0.0,0.0,0.0,0.0,0.0,0.0,0.0,0.0,0.0,0.0,-2.342,-2.2993,-2.2432,-2.2378,-2.2338,-2.2285,-2.2285,-2.2044,-2.1614,-2.1574,-2.1349,-2.1109,-2.1109,-2.1109,0.0,0.0,0.0,-1.8768,-1.7269,-1.6689,-1.6689,-1.6689,-1.6689,-1.6689,-1.6689,-1.6689,-1.6689,-1.6689,-1.6668,-1.6647,-1.6679,-1.6466,-1.619,-1.6562,-1.6477,-1.6243,-1.6583,-1.6302,-1.5913,-1.5913,-1.5913,-1.5913,-1.5913,-1.5913,-1.5913,-1.5913,-1.5913,-1.6421,-1.8134,-1.8038,-1.8214,-1.9871,-2.0,-1.976,-1.947,-1.9613,-1.9693,-1.9399,-1.943,-1.943,-1.943,-1.8878,-1.8651,-1.8905,-1.8183,-1.7702,-1.7662,-1.7609,-1.7582,-1.7582,-1.7582,-1.7582,-1.7582,-1.7582,-1.7582,-1.7582,-1.7582,-1.7582,-1.7582,-1.7582,-1.7582,-0.5515,-0.6761,-0.8235,-0.9196,-0.9653,-1.019,-1.1361,-1.1766,-1.1993,-1.2238,-1.2305,-1.2465,-1.2973,-1.348,-1.3988,0.0,0.0,0.0,0.0,0.0,0.0,0.0,0.0,0.0,0.0,0.0,0.0,0.0,0.0,0.0,0.0,-2.31,-2.2779,-2.2432,-2.2178,-2.1937,-2.1762,-2.1748,-2.1708,-2.1614,-2.1296,-2.1149,-2.1109,-2.1109,-2.1109,0.0,0.0,-2.0716,-2.0652,-2.0399,-2.0322,-2.0322,-2.0322,-2.0322,-2.0322,-2.0322,-2.0322,-2.0322,-2.0322,-2.0168,-2.0013,-2.0245,-2.0103,-1.991,-2.0232,-2.0271,-2.0219,-2.0297,-1.818,-1.5913,-1.5913,-1.5913,-1.5913,-1.5913,-1.5913,-1.5913,-1.5913,-1.5913,-1.6379,-1.784,-1.8125,-1.8432,-1.9647,-2.004,-1.9987,-1.9452,-1.9613,-1.9693,-1.9399,-1.943,-1.943,-1.943,-1.9065,-1.8878,-1.8918,-1.8571,-1.825,-1.7942,-1.7729,-1.7582,-1.7582,-1.7582,-1.7582,-1.7582,-1.7582,-1.7582,-1.7582,-1.7582,-1.7582,-1.7582,-1.7582,-1.7582,-0.533,-0.6334,-0.7721,-0.9518,-1.0194,-1.0501,-1.0871,-1.1426,-1.1993,-1.2238,-1.2171,-1.2345,-1.324,0.0,-1.4803,-1.7032,0.0,0.0,0.0,0.0,0.0,0.0,0.0,0.0,0.0,0.0,0.0,0.0,0.0,0.0,0.0,0.0,-2.2258,-2.1964,-2.1817,-2.1617,-2.1309,-2.1309,-2.1309,-2.1309,-2.1176,-2.1109,-2.1109,-2.1109,-2.1109,-2.1109,0.0,-2.1109,-2.1109,-2.1109,-2.1109,-2.1096,-2.0935,-2.0869,-2.0869,-2.0869,-2.0975,-2.1109,-2.1109,-2.1029,-2.0935,-2.1069,-2.0909,-2.0735,-2.1029,-2.1002,-2.0909,-2.1069,-1.9941,-1.8704,-1.8704,-1.8704,-1.8704,-1.8704,-1.8704,-1.8704,-1.8704,-1.8704,-1.8924,-1.9575,-1.9625,-1.9696,-2.0199,-2.0388,-2.0334,-1.9893,-1.9947,-1.9933,-1.9639,-1.9466,-1.943,-1.943,-1.9105,-1.8985,-1.9145,-1.8744,-1.837,-1.8009,-1.7756,-1.7582,-1.7582,-1.7582,-1.7582,-1.7582,-1.7582,-1.7582,-1.7582,-1.7582,-1.7582,-1.7582,-1.7582,-1.7675,-0.5237,-0.6007,-0.7192,-0.9191,-1.0349,-1.1076,-1.1378,-1.2081,-1.2851,-1.324,-1.3106,-1.3239,-1.4133,-1.483,0.0,-1.8824,0.0,0.0,0.0,0.0,0.0,0.0,0.0,0.0,0.0,0.0,0.0,0.0,0.0,0.0,0.0,0.0,-2.1777,-2.1628,-2.1547,-2.1336,-2.1109,-2.1109,-2.1109,-2.1109,-2.1109,-2.1109,-2.1109,-2.1109,-2.1109,-2.1109,-2.1042,-2.1002,-2.1002,-2.1002,-2.1002,-2.0989,-2.0762,-2.0681,-2.0681,-2.0681,-2.0855,-2.1109,-2.1109,-2.1109,-2.1109,-2.1109,-2.0962,-2.0815,-2.1042,-2.0949,-2.0828,-2.1042,-2.1109,-2.1109,-2.1109,-2.1109,-2.1109,-2.1109,-2.1109,-2.1109,-2.1109,-2.1109,-2.1082,-2.1029,-2.0882,-2.0735,-2.0601,-2.0681,-2.0655,-2.0294,-2.0294,-2.0201,-1.984,-1.9599,-1.9439,-1.943,-1.9158,-1.9118,-1.9403,-1.8891,-1.849,-1.8209,-1.7969,-1.7769,-1.7689,-1.7689,-1.7662,-1.7582,-1.7582,-1.7582,-1.7582,-1.7649,-1.7689,-1.7689,-1.7769,-1.7916,-0.5076,-0.5883,-0.6933,-0.7926,-0.9602,-1.1772,-1.4733,-1.5278,-1.5378,-1.6219,-1.6152,-1.6059,-1.642,-1.7635,0.0,0.0,0.0,0.0,0.0,0.0,0.0,0.0,0.0,0.0,0.0,0.0,0.0,0.0,0.0,0.0,0.0,0.0,0.0,-2.1614,-2.1283,-2.1136,-2.1109,-2.1109,-2.1109,-2.1109,-2.1109,-2.1109,-2.1109,-2.1109,-2.1109,-2.1096,-2.0828,-2.0708,-2.0708,-2.0708,-2.0708,-2.0708,-2.0681,-2.0681,-2.0681,-2.0681,-2.0855,-2.1109,-2.1109,-2.1109,-2.1109,-2.1109,-2.1096,-2.1082,-2.1096,-2.1096,-2.1082,-2.1096,-2.1109,-2.1109,-2.1109,-2.1109,-2.1109,-2.1109,-2.1109,-2.1109,-2.1109,-2.1109,-2.1029,-2.0762,-2.0909,-2.0909,-2.0361,-2.0722,-2.0882,-2.0321,-2.0468,-2.0441,-1.9867,-1.9786,-1.9666,-1.9457,-1.9403,-1.9345,-1.943,-1.9078,-1.8878,-1.8865,-1.8584,-1.8303,-1.7969,-1.7955,-1.7822,-1.7582,-1.7582,-1.7582,-1.7582,-1.7876,-1.7955,-1.7969,-1.829,-1.8437,-0.5237,-0.6907,-0.8587,-0.8656,-1.0684,-1.3011,-1.4409,-1.4423,-1.4631,-1.6378,-1.6767,-1.7072,-1.7689,0.0,-2.0187,0.0,0.0,0.0,0.0,0.0,0.0,0.0,0.0,0.0,0.0,0.0,0.0,0.0,0.0,0.0,0.0,0.0,0.0,-2.1269,-2.1162,-2.1029,-2.0842,-2.0842,-2.0748,-2.0561,-2.0748,-2.0748,-2.0561,-2.0561,-2.0561,-2.0561,-2.0454,-2.0401,-2.0401,-2.0401,-2.0401,-2.0374,-2.0201,-2.0241,-2.0401,-2.0401,-2.0695,-2.1109,-2.1109,-2.1109,-2.1109,-2.1109,-2.1109,-2.1109,-2.1109,-2.1109,-2.1109,-2.1109,-2.1109,-2.1109,-2.1109,-2.1109,-2.1109,-2.1109,-2.1109,-2.1109,-2.1109,-2.1109,-2.1082,-2.0962,-2.1029,-2.1042,-2.0815,-2.0962,-2.1029,-2.0815,-2.0722,-2.0535,-2.012,-1.9907,-1.9693,-1.9457,-1.943,-1.943,-1.943,-1.9265,-1.9199,-1.9199,-1.8758,-1.8357,-1.8009,-1.7995,-1.7849,-1.7595,-1.7769,-1.7876,-1.7876,-1.817,-1.833,-1.833,-1.8437,-1.8584,-0.5851,-0.776,-0.9698,-0.9697,-1.1433,-1.3485,-1.4895,-1.4722,-1.5008,-1.7477,-1.805,-1.8223,-1.8571,0.0,0.0,0.0,0.0,0.0,0.0,0.0,0.0,0.0,0.0,0.0,0.0,0.0,0.0,0.0,0.0,0.0,0.0,0.0,0.0,0.0,-2.1015,-2.0882,-2.0681,-2.0588,-2.0388,-2.0094,-2.0307,-2.0347,-2.0167,-2.0167,-2.0167,-2.0227,-2.0134,-2.0094,-2.0094,-2.0094,-2.0094,-2.008,-1.9973,-2.0,-2.012,-2.0307,-2.0628,-2.0989,-2.1082,-2.1109,-2.1109,-2.1109,-2.1109,-2.1109,-2.1109,-2.1109,-2.1109,-2.1109,-2.1109,-2.1109,-2.1109,-2.1109,-2.1109,-2.1109,-2.1109,-2.1109,-2.1109,-2.1109,-2.1109,-2.1109,-2.1109,-2.1109,-2.1109,-2.1109,-2.1109,-2.1109,-2.0869,-2.0575,-2.0267,-1.9987,-1.9693,-1.9457,-1.943,-1.943,-1.943,-1.943,-1.943,-1.943,-1.8985,-1.8637,-1.8275,-1.8275,-1.8183,-1.7876,-1.8076,-1.8129,-1.8129,-1.849,-1.8624,-1.8624,-1.8718,-1.8878,-0.69,-0.8308,-0.9943,-1.0781,-1.1578,-1.3117,-1.6782,-1.6914,-1.7128,-2.0054,-2.0441,-1.9973,-1.9105,-1.9653,0.0,0.0,0.0,0.0,0.0,0.0,0.0,0.0,0.0,0.0,0.0,0.0,0.0,0.0,0.0,0.0,0.0,0.0,0.0,0.0,-2.0828,-2.0668,-2.0668,-2.0374,-2.008,-1.98,-1.98,-1.9947,-2.0167,-2.0167,-2.0167,-2.0214,-1.992,-1.98,-1.98,-1.98,-1.98,-1.9826,-2.0107,-2.0054,-1.9867,-2.0454,-2.0668,-2.0708,-2.1002,-2.1109,-2.1109,-2.1109,-2.1109,-2.1109,-2.1096,-2.1096,-2.1109,-2.1109,-2.1109,-2.1109,-2.1109,-2.1109,-2.1109,-2.1109,-2.1109,-2.1109,-2.1109,-2.1109,-2.1109,-2.1109,-2.1109,-2.1109,-2.1109,-2.1109,-2.1109,-2.1109,-2.0869,-2.0575,-2.0267,-1.9973,-1.9679,-1.9457,-1.943,-1.943,-1.943,-1.943,-1.943,-1.943,-1.943,-1.9239,-1.8931,-1.8918,-1.8784,-1.8504,-1.849,-1.849,-1.849,-1.8784,-1.8931,-1.8931,-1.9225,-1.943,-0.7798,-1.0124,-1.2377,-1.1894,-1.3425,-1.5394,-1.6559,-1.6481,-1.6838,-1.9264,-2.0508,-2.0962,-2.0281,-2.0869,0.0,0.0,0.0,0.0,0.0,0.0,0.0,0.0,0.0,0.0,0.0,0.0,0.0,0.0,0.0,0.0,0.0,0.0,0.0,0.0,-2.0722,-2.0481,-2.0067,-1.9973,-1.9786,-1.9492,-1.9492,-1.9546,-1.9626,-1.9626,-1.9626,-1.9626,-1.9533,-1.9492,-1.9492,-1.9492,-1.9492,-1.9506,-1.9586,-1.9693,-1.984,-2.0227,-2.0361,-2.0441,-2.0935,-2.0975,-2.0802,-2.0802,-2.0802,-2.0762,-2.0561,-2.0641,-2.0802,-2.0802,-2.0949,-2.1109,-2.1109,-2.1109,-2.1109,-2.1109,-2.1109,-2.1109,-2.1109,-2.1109,-2.1109,-2.1109,-2.1109,-2.1109,-2.1109,-2.1109,-2.1109,-2.1109,-2.0869,-2.0494,-1.9987,-1.9679,-1.9466,-1.943,-1.943,-1.943,-1.943,-1.943,-1.943,-1.943,-1.943,-1.9239,-1.8931,-1.8918,-1.8784,-1.8504,-1.8691,-1.8798,-1.8798,-1.9092,-1.9239,-1.9239,-1.9332,-1.943,-0.9346,-1.1785,-1.4289,-1.3862,-1.5494,-1.7199,-1.7401,-1.788,-1.8677,-2.0,-2.1092,-2.1657,-2.1416,-2.1617,0.0,0.0,0.0,0.0,0.0,0.0,0.0,0.0,0.0,0.0,0.0,0.0,0.0,0.0,0.0,0.0,0.0,0.0,0.0,0.0,-2.0454,-2.016,-1.98,-1.9679,-1.9546,-1.943,-1.943,-1.943,-1.943,-1.943,-1.943,-1.943,-1.943,-1.943,-1.943,-1.943,-1.943,-1.943,-1.9492,-1.9573,-1.9679,-2.008,-2.016,-2.0134,-2.0601,-2.0641,-2.0494,-2.0494,-2.0494,-2.0494,-2.0428,-2.0454,-2.0548,-2.0788,-2.0895,-2.0962,-2.1082,-2.1109,-2.1109,-2.1109,-2.1109,-2.1109,-2.1109,-2.1109,-2.1109,-2.1109,-2.1109,-2.1109,-2.1109,-2.1109,-2.1109,-2.1109,-2.0762,-2.0294,-1.9706,-1.9479,-1.943,-1.943,-1.943,-1.943,-1.943,-1.943,-1.943,-1.943,-1.943,-1.9292,-1.9105,-1.9105,-1.9011,-1.8838,-1.9011,-1.9105,-1.9105,-1.9279,-1.943,-1.943,-1.943,-1.943,-1.1246,-1.3252,-1.5605,-1.6299,-1.7609,-1.8811,-1.9092,-2.0428,-2.1601,-2.1387,0.0,-2.2071,-2.2231,0.0,0.0,0.0,0.0,0.0,0.0,0.0,0.0,0.0,0.0,0.0,0.0,0.0,0.0,0.0,0.0,0.0,0.0,0.0,0.0,-2.0601,-2.008,-1.9786,-1.976,-1.9506,-1.943,0.0,-1.943,-1.943,-1.943,-1.943,-1.943,-1.943,-1.943,-1.943,-1.943,-1.943,-1.943,-1.9399,-1.9653,-1.9599,-1.9439,-1.9987,-2.0013,-1.9813,-2.012,-2.0153,-2.0127,-2.0127,-2.0127,-2.0241,-2.0481,-2.0388,-2.0307,-2.0869,-2.0855,-2.0748,-2.1029,-2.1109,-2.1109,-2.1109,-2.1109,-2.1109,-2.1109,-2.1109,-2.1109,-2.1109,-2.1109,-2.1109,-2.1109,-2.1109,-2.1096,-2.1042,-2.0548,-2.0,-1.9497,-1.943,-1.943,-1.943,-1.943,-1.943,-1.943,-1.943,-1.943,-1.943,-1.943,-1.943,-1.943,-1.943,-1.943,-1.943,-1.943,-1.943,-1.943,-1.943,-1.943,-1.943,-1.943,-1.943,-1.2362,-1.4097,-1.6099,-1.7635,-1.9292,-2.0628,-2.0922,-2.1456,-2.1376,-1.9533,-2.0842,-2.2058,0.0,0.0,0.0,0.0,0.0,0.0,0.0,0.0,0.0,0.0,0.0,0.0,0.0,0.0,0.0,0.0,0.0,0.0,0.0,0.0,0.0,-2.0,-1.9867,-1.9693,-1.9466,-1.9457,-1.943,0.0,-1.943,-1.943,-1.943,-1.943,-1.943,-1.943,-1.943,-1.943,-1.943,-1.943,-1.943,-1.943,-1.9439,-1.9426,-1.947,-1.976,-1.9706,-1.9533,-2.0054,-2.008,-1.9893,-1.9893,-1.9893,-1.9867,-1.9693,-1.976,-1.996,-2.0321,-2.0548,-2.0748,-2.1029,-2.1109,-2.1109,-2.1109,-2.1109,-2.1109,-2.1109,-2.1109,-2.1109,-2.1109,-2.1109,-2.1109,-2.1109,-2.1109,-2.0949,-2.0433,-2.012,-1.976,-1.9412,-1.943,-1.943,-1.943,-1.943,-1.943,-1.943,-1.943,-1.943,-1.943,-1.943,-1.943,-1.943,-1.943,-1.943,-1.943,-1.943,-1.943,-1.943,-1.943,-1.943,-1.943,-1.943,-1.943,-1.313,-1.4637,-1.654,-1.8597,-2.0013,-2.0975,-2.1269,-2.1563,-2.139,-2.0027,-2.1056,0.0,0.0,0.0,0.0,0.0,0.0,0.0,0.0,0.0,0.0,0.0,0.0,0.0,0.0,0.0,0.0,0.0,0.0,0.0,0.0,-2.0187,-1.9893,-1.9599,-1.9452,-1.9305,-1.9158,-1.9011,-1.9011,-1.9158,-1.9158,-1.9225,-1.943,-1.943,-1.943,-1.943,-1.943,-1.943,-1.943,-1.943,-1.943,-1.943,-1.943,-1.943,-1.9444,-1.9533,-1.9492,-1.947,-1.972,-1.972,-1.9599,-1.9599,-1.9599,-1.9586,-1.9573,-1.9586,-1.9706,-2.0281,-2.0454,-2.0561,-2.1002,-2.1109,-2.1109,-2.1109,-2.1109,-2.1109,-2.1109,-2.1109,-2.1109,-2.1109,-2.1109,-2.1109,-2.1109,-2.0989,-2.0748,-2.0294,-1.9987,-1.9693,-1.9399,-1.943,-1.943,-1.943,-1.943,-1.943,-1.943,-1.943,-1.943,-1.943,-1.943,-1.943,-1.943,-1.943,-1.943,-1.943,-1.943,-1.943,-1.943,-1.943,-1.943,-1.943,-1.943,-1.943,-1.3493,-1.5003,-1.6991,-1.9105,-2.0094,-2.0601,-2.0895,-2.1189,-2.14,-2.1082,-2.1496,0.0,0.0,0.0,0.0,0.0,0.0,0.0,0.0,0.0,0.0,0.0,0.0,0.0,0.0,0.0,0.0,0.0,0.0,0.0,-2.008,-1.98,-1.9519,-1.9225,-1.8971,-1.8851,-1.8851,-1.8611,-1.8611,-1.8851,-1.8851,-1.8998,-1.9292,-1.9292,-1.9377,-1.943,-1.943,-1.943,-1.943,-1.943,-1.943,-1.943,-1.943,-1.943,-1.943,-1.943,-1.943,-1.943,-1.943,-1.943,-1.943,-1.943,-1.943,-1.947,-1.9653,-1.9559,-1.9591,-2.0361,-2.0414,-2.0374,-2.0949,-2.1109,-2.1109,-2.1109,-2.1109,-2.1109,-2.1109,-2.1109,-2.1109,-2.1109,-2.1109,-2.1109,-2.1109,-2.0869,-2.0588,-2.0347,-2.0067,-1.9786,-1.9546,-1.9519,-1.9519,-1.9519,-1.9519,-1.9492,-1.9452,-1.9492,-1.9492,-1.9452,-1.9492,-1.9492,-1.9439,-1.9439,-1.947,-1.943,-1.943,-1.943,-1.943,-1.943,-1.943,-1.943,-1.943,-1.943,-1.3387,-1.5297,-1.7407,-1.8704,-1.9479,-1.9987,-2.0281,-2.0575,-2.0788,0.0,0.0,0.0,0.0,0.0,0.0,0.0,0.0,0.0,0.0,0.0,0.0,0.0,0.0,0.0,0.0,0.0,0.0,0.0,0.0,0.0,-1.9492,-1.9199,-1.8905,-1.8624,-1.8571,-1.8544,-1.8544,-1.8504,-1.8504,-1.8544,-1.8544,-1.8704,-1.8985,-1.8985,-1.9118,-1.943,-1.943,-1.943,-1.943,-1.943,-1.943,-1.943,-1.943,-1.943,-1.943,-1.943,-1.943,-1.943,-1.943,-1.943,-1.943,-1.943,-1.943,-1.943,-1.9412,-1.9457,-1.9492,-2.012,-2.0207,-2.0374,-2.0949,-2.1109,-2.1109,-2.1109,-2.1109,-2.1109,-2.1109,-2.1109,-2.1109,-2.1109,-2.1109,-2.1109,-2.1109,-2.0869,-2.0655,-2.0628,-2.0361,-2.016,-2.012,-2.012,-2.012,-2.012,-2.012,-2.0013,-1.976,-1.9973,-2.0013,-1.976,-1.9973,-2.0,-1.976,-1.9746,-1.9626,-1.943,-1.943,-1.943,-1.943,-1.943,-1.943,-1.943,-1.943,-1.943,-1.336,-1.5003,-1.6647,-1.7675,-1.8624,-1.9426,-1.988,-2.0214,-2.0428,0.0,0.0,0.0,0.0,0.0,0.0,0.0,0.0,0.0,0.0,0.0,0.0,0.0,0.0,0.0,0.0,0.0,0.0,0.0,0.0,-1.9426,-1.9132,-1.8998,-1.8718,-1.8263,-1.8237,-1.8237,-1.8237,-1.8063,-1.8063,-1.8223,-1.8237,-1.8397,-1.8677,-1.8677,-1.8838,-1.9118,-1.9118,-1.9118,-1.9118,-1.9118,-1.9212,-1.943,-1.943,-1.943,-1.943,-1.943,-1.943,-1.943,-1.943,-1.943,-1.943,-1.943,-1.943,-1.943,-1.943,-1.943,-1.9492,-2.0067,-2.0167,-2.0374,-2.0949,-2.1109,-2.1109,-2.1109,-2.1109,-2.1109,-2.1109,-2.1109,-2.1109,-2.1109,-2.1109,-2.1109,-2.1109,-2.0869,-2.0681,-2.0681,-2.0428,-2.0167,-2.0167,-2.0167,-2.0167,-2.0167,-2.0167,-2.0127,-2.0054,-2.016,-2.0174,-2.0054,-2.016,-2.0174,-2.0054,-2.004,-1.9907,-1.9613,-1.9511,-1.943,-1.943,-1.943,-1.943,-1.943,-1.943,-1.943,-1.3267,-1.4346,-1.5524,-1.6553,-1.7542,-1.845,-1.9185,0.0,-1.992,0.0,0.0,0.0,0.0,0.0,0.0,0.0,0.0,0.0,0.0,0.0,0.0,0.0,0.0,0.0,0.0,0.0,0.0,0.0,0.0,-1.9118,-1.8824,-1.8744,-1.8408,-1.7889,-1.7876,-1.7876,-1.7876,-1.7702,-1.7689,-1.7903,-1.7916,-1.809,-1.8384,-1.8384,-1.849,-1.8704,-1.8784,-1.8811,-1.8824,-1.8891,-1.9052,-1.9265,-1.939,-1.943,-1.943,-1.943,-1.943,-1.943,-1.943,-1.943,-1.943,-1.943,-1.943,-1.943,-1.943,-1.943,-1.9466,-1.9987,-2.0174,-2.0347,-2.0869,-2.1056,-2.1109,-2.1109,-2.1109,-2.1109,-2.1109,-2.1109,-2.1109,-2.1109,-2.1109,-2.1109,-2.1109,-2.0922,-2.0788,-2.0788,-2.0601,-2.0454,-2.0454,-2.0454,-2.0454,-2.0454,-2.0454,-2.0428,-2.0347,-2.0414,-2.0428,-2.0347,-2.0414,-2.0428,-2.0347,-2.0347,-2.0214,-1.992,-1.9626,-1.9497,-1.943,-1.943,-1.943,-1.943,-1.943,-1.943,-1.3066,-1.3453,-1.4066,-1.5491,-1.6152,-1.6714,0.0,0.0,0.0,0.0,0.0,0.0,0.0,0.0,0.0,0.0,0.0,0.0,0.0,0.0,0.0,0.0,0.0,0.0,0.0,0.0,0.0,0.0,0.0,-1.8824,-1.8531,-1.825,-1.7943,-1.7622,-1.7609,-1.7609,-1.7609,-1.7595,-1.7595,-1.7609,-1.7609,-1.7769,-1.8009,-1.8009,-1.8022,-1.8049,-1.8384,-1.8517,-1.8531,-1.8811,-1.8931,-1.8971,-1.9252,-1.943,-1.943,-1.943,-1.943,-1.943,-1.943,-1.943,-1.943,-1.943,-1.943,-1.943,-1.943,-1.943,-1.9439,-1.9733,-2.0013,-2.0307,-2.0615,-2.0909,-2.1109,-2.1109,-2.1109,-2.1109,-2.1109,-2.1109,-2.1109,-2.1109,-2.1109,-2.1109,-2.1109,-2.1096,-2.1082,-2.1082,-2.1069,-2.1069,-2.1069,-2.1069,-2.1069,-2.1069,-2.1069,-2.0949,-2.0681,-2.0909,-2.0949,-2.0668,-2.0909,-2.0935,-2.0668,-2.0655,-2.0508,-2.0214,-1.992,-1.9639,-1.943,-1.943,-1.943,-1.943,-1.943,-1.943,-1.2345,-1.2852,-1.3453,-1.4015,-1.479,-1.5638,-1.6206,-1.6941,0.0,0.0,0.0,0.0,0.0,0.0,0.0,0.0,0.0,0.0,0.0,0.0,0.0,0.0,0.0,0.0,0.0,0.0,0.0,0.0,0.0,0.0,-1.8223,-1.7916,-1.7609,-1.7367,-1.7114,-1.7021,-1.7021,-1.7021,-1.7114,-1.7353,-1.7353,-1.7462,-1.7756,-1.7756,-1.7756,-1.7756,-1.7862,-1.8023,-1.8169,-1.8531,-1.8758,-1.8958,-1.9252,-1.943,-1.943,-1.943,-1.943,-1.943,-1.943,-1.943,-1.943,-1.943,-1.943,-1.943,-1.943,-1.943,-1.9484,-1.972,-2.0013,-2.0307,-2.0601,-2.0895,-2.1109,-2.1109,-2.1109,-2.1109,-2.1109,-2.1109,-2.1109,-2.1109,-2.1109,-2.1109,-2.1109,-2.1109,-2.1109,-2.1109,-2.1109,-2.1109,-2.1109,-2.1109,-2.1109,-2.1109,-2.1109,-2.1069,-2.0962,-2.1042,-2.1069,-2.0962,-2.1056,-2.1069,-2.0962,-2.0949,-2.0815,-2.0521,-2.0414,-2.012,-1.9639,-1.9452,-1.943,-1.943,-1.943,-1.943,-1.2064,-1.2452,-1.2959,-1.316,-1.3801,-1.4509,-1.499,0.0,0.0,0.0,0.0,0.0,0.0,0.0,0.0,0.0,0.0,0.0,0.0,0.0,0.0,0.0,0.0,0.0,0.0,0.0,0.0,0.0,0.0,0.0,-1.7995,-1.7569,-1.7194,-1.7058,-1.6807,-1.67,-1.67,-1.67,-1.6807,-1.7058,-1.7058,-1.7206,-1.7487,-1.7487,-1.7488,-1.7582,-1.7582,-1.7702,-1.7916,-1.833,-1.8597,-1.8811,-1.9212,-1.943,-1.943,-1.943,-1.943,-1.943,-1.943,-1.943,-1.943,-1.943,-1.943,-1.943,-1.943,-1.943,-1.947,-1.9599,-1.9933,-2.0281,-2.0481,-2.0815,-2.1109,-2.1109,-2.1109,-2.1109,-2.1109,-2.1109,-2.1109,-2.1109,-2.1109,-2.1109,-2.1109,-2.1109,-2.1109,-2.1109,-2.1109,-2.1109,-2.1109,-2.1109,-2.1109,-2.1109,-2.1109,-2.1109,-2.1109,-2.1109,-2.1109,-2.1109,-2.1109,-2.1109,-2.1109,-2.1109,-2.1015,-2.0828,-2.0722,-2.0481,-2.0094,-1.9706,-1.9466,-1.943,-1.943,-1.943,0.0,0.0,0.0,0.0,0.0,0.0,-1.4239,0.0,0.0,0.0,0.0,0.0,0.0,0.0,0.0,0.0,0.0,0.0,0.0,0.0,0.0,0.0,0.0,0.0,0.0,0.0,0.0,0.0,0.0,-1.7689,-1.7942,-1.7168,-1.6687,-1.6673,-1.6673,-1.6673,-1.6673,-1.6673,-1.6687,-1.6687,-1.6687,-1.6847,-1.7192,-1.7192,-1.7353,-1.7569,-1.7582,-1.7582,-1.7635,-1.8223,-1.8477,-1.8544,-1.9132,-1.9417,-1.943,-1.943,-1.943,-1.943,-1.943,-1.943,-1.943,-1.943,-1.943,-1.943,-1.943,-1.943,-1.943,-1.943,-1.9773,-2.0167,-2.0241,-2.0681,-2.1109,-2.1109,-2.1109,-2.1109,-2.1109,-2.1109,-2.1109,-2.1109,-2.1109,-2.1109,-2.1109,-2.1109,-2.1109,-2.1109,-2.1109,-2.1109,-2.1109,-2.1109,-2.1109,-2.1109,-2.1109,-2.1109,-2.1109,-2.1109,-2.1109,-2.1109,-2.1109,-2.1109,-2.1109,-2.1109,-2.1109,-2.1109,-2.0828,-2.0681,-2.0681,-2.0094,-1.9666,-1.9399,-1.9444,-1.943,-1.2305,0.0,0.0,0.0,0.0,0.0,0.0,0.0,0.0,0.0,0.0,0.0,0.0,0.0,0.0,0.0,0.0,0.0,0.0,0.0,0.0,0.0,0.0,0.0,0.0,0.0,0.0,0.0,-1.6994,-1.6981,-1.7074,-1.6647,-1.6299,-1.6072,-1.6072,-1.6072,-1.6072,-1.6072,-1.6179,-1.6393,-1.6393,-1.654,-1.6834,-1.7099,-1.7246,-1.7326,-1.7541,-1.7582,-1.7609,-1.8009,-1.829,-1.8531,-1.8905,-1.9185,-1.943,-1.943,-1.943,-1.943,-1.943,-1.943,-1.943,-1.943,-1.943,-1.943,-1.943,-1.943,-1.943,-1.943,-1.9639,-2.0013,-2.0441,-2.0828,-2.1109,-2.1109,-2.1109,-2.1109,-2.1109,-2.1109,-2.1109,-2.1109,-2.1109,-2.1109,-2.1109,-2.1109,-2.1109,-2.1109,-2.1109,-2.1109,-2.1109,-2.1109,-2.1109,-2.1109,-2.1109,-2.1109,-2.1109,-2.1109,-2.1109,-2.1109,-2.1109,-2.1109,-2.1109,-2.1109,-2.1109,-2.1109,-2.1029,-2.0882,-2.0681,-2.0294,-2.0067,-1.9987,-1.9773,-1.9573,0.0,0.0,0.0,0.0,0.0,0.0,-1.2746,-1.3026,0.0,0.0,0.0,0.0,0.0,0.0,0.0,0.0,0.0,0.0,0.0,0.0,0.0,0.0,0.0,0.0,0.0,0.0,0.0,-1.67,-1.6593,-1.6473,-1.6353,-1.6299,-1.6139,-1.5798,-1.5784,-1.5784,-1.5784,-1.5784,-1.5912,-1.6086,-1.6086,-1.6246,-1.6526,-1.675,-1.6898,-1.6981,-1.7141,-1.7288,-1.7474,-1.7595,-1.7929,-1.8343,-1.8758,-1.9025,-1.9199,-1.9319,-1.943,-1.943,-1.943,-1.943,-1.943,-1.943,-1.943,-1.943,-1.943,-1.943,-1.943,-1.943,-1.9573,-1.996,-2.0668,-2.0895,-2.0962,-2.1082,-2.1109,-2.1109,-2.1109,-2.1109,-2.1109,-2.1109,-2.1109,-2.1109,-2.1109,-2.1109,-2.1109,-2.1109,-2.1109,-2.1109,-2.1109,-2.1109,-2.1109,-2.1109,-2.1109,-2.1109,-2.1109,-2.1109,-2.1109,-2.1109,-2.1109,-2.1109,-2.1109,-2.1109,-2.1109,-2.1109,-2.1109,-2.1029,-2.0855,-2.0561,-2.0361,-2.0227,-2.0054,-1.9893,0.0,0.0,0.0,0.0,0.0,0.0,-1.2385,-1.2772,-1.3293,0.0,0.0,0.0,0.0,0.0,0.0,0.0,0.0,0.0,0.0,0.0,0.0,0.0,0.0,0.0,0.0,-1.6607,-1.6607,-1.6607,-1.6366,-1.6112,-1.5798,-1.6086,-1.6099,-1.5784,-1.5784,-1.5784,-1.5784,-1.5784,-1.5784,-1.5784,-1.5784,-1.5965,-1.6268,-1.6259,-1.642,-1.666,-1.6727,-1.6901,-1.7206,-1.7233,-1.7528,-1.8049,-1.8651,-1.8891,-1.8958,-1.9252,-1.943,-1.943,-1.943,-1.943,-1.943,-1.943,-1.943,-1.943,-1.943,-1.943,-1.943,-1.943,-1.9573,-1.9987,-2.0802,-2.0842,-2.0748,-2.1042,-2.1109,-2.1109,-2.1109,-2.1109,-2.1109,-2.1109,-2.1109,-2.1109,-2.1109,-2.1109,-2.1109,-2.1109,-2.1109,-2.1109,-2.1109,-2.1109,-2.1109,-2.1109,-2.1109,-2.1109,-2.1109,-2.1109,-2.1109,-2.1109,-2.1109,-2.1109,-2.1109,-2.1109,-2.1109,-2.1109,-2.1109,-2.1109,-2.1109,-2.0855,-2.0575,-2.0281,-2.0281,-2.0267,0.0,0.0,0.0,0.0,0.0,0.0,-1.2919,-1.2746,-1.2786,0.0,0.0,0.0,0.0,0.0,0.0,0.0,0.0,0.0,0.0,0.0,0.0,0.0,0.0,0.0,0.0,-1.6005,-1.6005,-1.6005,-1.5952,-1.5885,-1.5784,-1.5838,-1.5885,-1.5784,-1.5784,-1.5784,-1.5784,-1.5784,-1.5784,-1.5784,-1.5784,-1.5811,-1.5925,-1.6166,-1.6348,-1.638,-1.6911,-1.7152,-1.7219,-1.7447,-1.7716,-1.8035,-1.8437,-1.8718,-1.8958,-1.9252,-1.943,-1.943,-1.943,-1.943,-1.943,-1.943,-1.943,-1.943,-1.943,-1.943,-1.943,-1.943,-1.9573,-1.9893,-2.0294,-2.0535,-2.0748,-2.1042,-2.1109,-2.1109,-2.1109,-2.1109,-2.1109,-2.1109,-2.1109,-2.1109,-2.1109,-2.1109,-2.1109,-2.1109,-2.1109,-2.1109,-2.1109,-2.1109,-2.1109,-2.1109,-2.1109,-2.1109,-2.1109,-2.1109,-2.1109,-2.1109,-2.1109,-2.1109,-2.1109,-2.1109,-2.1109,-2.1109,-2.1109,-2.1109,-2.1109,-2.1056,-2.0869,-2.0588,-2.0588,-2.0468,0.0,0.0,0.0,-1.2305,0.0,0.0,0.0,-1.2518,-1.2559,0.0,0.0,0.0,0.0,0.0,0.0,0.0,0.0,0.0,0.0,0.0,0.0,0.0,0.0,0.0,0.0,-1.5784,-1.5784,-1.5784,-1.5784,-1.5784,-1.5784,-1.5784,-1.5784,-1.5784,-1.5784,-1.5784,-1.5784,-1.5784,-1.5784,-1.5784,-1.5784,-1.5784,-1.5832,-1.5979,-1.6046,-1.6072,-1.6366,-1.666,-1.6941,-1.7088,-1.7408,-1.7849,-1.8143,-1.845,-1.8744,-1.9038,-1.9239,-1.943,-1.943,-1.943,-1.943,-1.943,-1.943,-1.943,-1.943,-1.943,-1.9457,-1.9546,-1.9586,-1.972,-2.0307,-2.0454,-2.0561,-2.1002,-2.1109,-2.1109,-2.1109,-2.1109,-2.1109,-2.1109,-2.1109,-2.1109,-2.1109,-2.1109,-2.1109,-2.1109,-2.1109,-2.1109,-2.1109,-2.1109,-2.1109,-2.1109,-2.1109,-2.1109,-2.1109,-2.1109,-2.1109,-2.1109,-2.1109,-2.1109,-2.1109,-2.1109,-2.1109,-2.1109,-2.1109,-2.1109,-2.1109,-2.1109,-2.1029,-2.0895,-2.0895,-2.0815,0.0,0.0,0.0,0.0,0.0,-1.2385,0.0,0.0,0.0,-1.3013,0.0,0.0,0.0,0.0,0.0,0.0,0.0,0.0,0.0,0.0,0.0,0.0,0.0,0.0,0.0,-1.5718,-1.5784,-1.5784,-1.5784,-1.5784,-1.5784,-1.5784,-1.5784,-1.5784,-1.5784,-1.5784,-1.5784,-1.5784,-1.5784,-1.5784,-1.5784,-1.5784,-1.5784,-1.5784,-1.5784,-1.5784,-1.5885,-1.6179,-1.6633,-1.674,-1.7074,-1.7528,-1.7903,-1.8196,-1.845,-1.8798,-1.9078,-1.9292,-1.9403,-1.943,-1.943,-1.943,-1.943,-1.943,-1.943,-1.943,-1.947,-1.9653,-1.9546,-1.9618,-2.0374,-2.0414,-2.0326,-2.0975,-2.1109,-2.1109,-2.1109,-2.1109,-2.1109,-2.1109,-2.1109,-2.1109,-2.1109,-2.1109,-2.1109,-2.1109,-2.1109,-2.1109,-2.1109,-2.1109,-2.1109,-2.1109,-2.1109,-2.1109,-2.1109,-2.1109,-2.1109,-2.1109,-2.1109,-2.1109,-2.1109,-2.1109,-2.1109,-2.1109,-2.1109,-2.1109,-2.1109,-2.1109,-2.1109,-2.1109,-2.1109,-2.1109,0.0,0.0,0.0,0.0,-1.2543,0.0,0.0,0.0,-1.2757,-1.2824,0.0,0.0,0.0,0.0,0.0,0.0,0.0,0.0,0.0,0.0,0.0,0.0,0.0,0.0,0.0,0.0,-1.5784,-1.5784,-1.5784,-1.5784,-1.5784,-1.5784,-1.5784,-1.5784,-1.5784,-1.5784,-1.5784,-1.5784,-1.5784,-1.5784,-1.5784,-1.5784,-1.5784,-1.5784,-1.5784,-1.5798,-1.6112,-1.6259,-1.6415,-1.6938,-1.7192,-1.73,-1.7822,-1.8009,-1.8115,-1.8661,-1.8945,-1.9011,-1.9279,-1.943,-1.943,-1.943,-1.943,-1.943,-1.943,-1.943,-1.943,-1.947,-1.9399,-1.9506,-2.012,-2.0254,-2.0326,-2.0975,-2.1109,-2.1109,-2.1109,-2.1109,-2.1109,-2.1109,-2.1109,-2.1109,-2.1109,-2.1109,-2.1109,-2.1109,-2.1109,-2.1109,-2.1109,-2.1109,-2.1109,-2.1109,-2.1109,-2.1109,-2.1109,-2.1109,-2.1109,-2.1109,-2.1109,-2.1109,-2.1109,-2.1109,-2.1109,-2.1109,-2.1109,-2.1109,-2.1109,-2.1109,-2.1109,-2.1109,-2.1109,-2.1109,0.0,0.0,0.0,0.0,0.0,0.0,0.0,0.0,-1.2998,0.0,0.0,0.0,0.0,0.0,0.0,0.0,0.0,0.0,0.0,0.0,0.0,0.0,0.0,0.0,0.0,0.0,0.0,0.0,0.0,-1.5324,-1.5324,-1.5645,-1.5784,-1.5784,-1.5784,-1.5784,-1.5784,-1.5784,-1.5784,-1.5784,-1.5784,-1.5784,-1.5784,-1.5784,-1.5784,-1.5784,-1.5965,-1.6112,-1.6335,-1.6589,-1.6898,-1.7233,-1.7422,-1.7742,-1.8049,-1.8517,-1.8784,-1.8971,-1.9265,-1.943,-1.943,-1.943,-1.943,-1.943,-1.943,-1.9492,-1.9626,-1.9626,-1.9626,-1.976,-2.0334,-2.0361,-2.0326,-2.0975,-2.1109,-2.1109,-2.1109,-2.1109,-2.1109,-2.1109,-2.1109,-2.1109,-2.1109,-2.1109,-2.1109,-2.1109,-2.1109,-2.1109,-2.1109,-2.1109,-2.1109,-2.1109,-2.1109,-2.1109,-2.1109,-2.1109,-2.1109,-2.1109,-2.1109,-2.1109,-2.1109,-2.1109,-2.1109,-2.1109,-2.1109,-2.1109,-2.1109,-2.1109,-2.1109,-2.1109,-2.1109,-2.1109,-1.3413,0.0,0.0,0.0,0.0,0.0,0.0,0.0,0.0,0.0,0.0,0.0,0.0,0.0,0.0,0.0,0.0,0.0,0.0,0.0,0.0,0.0,0.0,0.0,0.0,0.0,0.0,-1.5288,-1.5226,-1.5218,-1.5383,-1.5502,-1.5658,-1.5784,-1.5784,-1.5784,-1.5784,-1.5784,-1.5784,-1.5784,-1.5784,-1.5784,-1.5784,-1.5784,-1.5784,-1.5784,-1.5784,-1.5952,-1.6166,-1.6326,-1.6697,-1.7099,-1.7259,-1.7528,-1.7969,-1.8357,-1.8624,-1.8865,-1.9239,-1.943,-1.943,-1.943,-1.943,-1.943,-1.943,-1.9573,-1.98,-1.98,-1.9853,-2.004,-2.0548,-2.0521,-2.0481,-2.0989,-2.1109,-2.1109,-2.1109,-2.1109,-2.1109,-2.1109,-2.1109,-2.1109,-2.1109,-2.1109,-2.1109,-2.1109,-2.1109,-2.1109,-2.1109,-2.1109,-2.1109,-2.1109,-2.1109,-2.1109,-2.1109,-2.1109,-2.1109,-2.1109,-2.1109,-2.1109,-2.1109,-2.1109,-2.1109,-2.1109,-2.1109,-2.1109,-2.1109,-2.1109,-2.1109,-2.1109,-2.1109,-2.1109,0.0,0.0,0.0,-1.3935,0.0,0.0,0.0,0.0,-1.3213,0.0,0.0,0.0,0.0,0.0,0.0,0.0,0.0,0.0,0.0,0.0,0.0,0.0,0.0,0.0,0.0,0.0,0.0,-1.6222,-1.5792,-1.5714,-1.6301,-1.55,-1.5244,-1.5758,-1.5784,-1.5784,-1.5784,-1.5784,-1.5784,-1.5784,-1.5784,-1.5784,-1.5784,-1.5784,-1.5784,-1.5784,-1.5784,-1.5832,-1.5838,-1.646,-1.67,-1.678,-1.7341,-1.7582,-1.7662,-1.8263,-1.8504,-1.8584,-1.9172,-1.943,-1.943,-1.943,-1.943,-1.943,-1.943,-1.9573,-1.98,-1.98,-2.0,-2.0294,-2.0601,-2.0668,-2.0735,-2.1042,-2.1109,-2.1109,-2.1109,-2.1109,-2.1109,-2.1109,-2.1109,-2.1109,-2.1109,-2.1109,-2.1109,-2.1109,-2.1109,-2.1109,-2.1109,-2.1109,-2.1109,-2.1109,-2.1109,-2.1109,-2.1109,-2.1109,-2.1109,-2.1109,-2.1109,-2.1109,-2.1109,-2.1109,-2.1109,-2.1109,-2.1109,-2.1109,-2.1109,-2.1109,-2.1109,-2.1109,-2.1109,-2.1109,0.0,0.0,-1.4469,-1.4856,0.0,0.0,0.0,0.0,0.0,0.0,0.0,0.0,0.0,0.0,0.0,0.0,0.0,0.0,0.0,0.0,0.0,0.0,0.0,0.0,0.0,0.0,0.0,-1.5638,-1.5532,-1.5534,-1.5784,-1.5893,-1.5885,-1.5805,-1.5784,-1.5784,-1.5784,-1.5784,-1.5784,-1.5784,-1.5784,-1.5784,-1.5784,-1.5784,-1.5784,-1.5784,-1.5784,-1.5939,-1.6139,-1.6339,-1.6647,-1.7072,-1.7273,-1.7542,-1.7943,-1.8343,-1.849,-1.8571,-1.9158,-1.943,-1.943,-1.943,-1.943,-1.9399,-1.9599,-1.9853,-2.0134,-2.0321,-2.0454,-2.0588,-2.0882,-2.0815,-2.0748,-2.1042,-2.1109,-2.1109,-2.1109,-2.1109,-2.1109,-2.1109,-2.1109,-2.1109,-2.1109,-2.1109,-2.1109,-2.1109,-2.1109,-2.1109,-2.1109,-2.1109,-2.1109,-2.1109,-2.1109,-2.1109,-2.1109,-2.1109,-2.1109,-2.1109,-2.1109,-2.1109,-2.1109,-2.1109,-2.1109,-2.1109,-2.1109,-2.1109,-2.1109,-2.1109,-2.1109,-2.1109,-2.1109,-2.1109,-1.5164,-1.5169,0.0,-1.5444,-1.5177,0.0,-1.483,0.0,0.0,0.0,0.0,0.0,0.0,0.0,0.0,0.0,0.0,0.0,0.0,-1.4945,0.0,0.0,0.0,0.0,0.0,0.0,-1.4815,-1.5774,-1.5699,-1.5898,0.0,0.0,-1.6226,-1.6452,-1.6055,-1.5784,-1.5784,-1.5784,-1.5784,-1.5784,-1.5784,-1.5784,-1.5784,-1.5784,-1.5784,-1.5784,-1.5939,-1.6099,-1.6335,-1.6549,-1.6857,-1.7206,-1.7313,-1.7609,-1.8035,-1.8384,-1.8624,-1.8851,-1.9296,-1.943,-1.943,-1.943,-1.943,-1.9399,-1.9586,-1.992,-2.0254,-2.0334,-2.0588,-2.0855,-2.0935,-2.0895,-2.0882,-2.1069,-2.1109,-2.1109,-2.1109,-2.1109,-2.1109,-2.1109,-2.1109,-2.1109,-2.1109,-2.1109,-2.1109,-2.1109,-2.1109,-2.1109,-2.1109,-2.1109,-2.1109,-2.1109,-2.1109,-2.1109,-2.1109,-2.1109,-2.1109,-2.1109,-2.1109,-2.1109,-2.1109,-2.1109,-2.1203,-2.1416,-2.1216,-2.1216,-2.1416,-2.1216,-2.1109,-2.1109,-2.1109,-2.1109]},{"header":{"parameterUnit":"m.s-1","parameterCategory":1,"la1":30.6,"la2":29.2853,"lo1":-89.7004,"lo2":-87.6739,"dy":0.0162,"dx":0.0183,"nx":112,"ny":82,"refTime":"2023-04-24T06:00:00:Z","depth":0,"parameterNumber":3,"parameterNumberName":"V-component_of_WINDS"},"data":[0.0,0.0,0.0,0.0,0.0,0.0,0.0,0.0,0.0,0.0,0.0,0.0,0.0,0.0,0.0,0.0,0.0,0.0,0.0,0.0,0.0,0.0,0.0,0.0,0.0,0.0,0.0,0.0,0.0,0.0,0.0,0.0,0.0,0.0,0.0,0.0,0.0,0.0,0.0,0.0,0.0,0.0,0.0,0.0,0.0,0.0,0.0,0.0,0.0,0.0,0.0,0.0,0.0,0.0,0.0,0.0,0.0,0.0,0.0,0.0,0.0,0.0,0.0,0.0,0.0,0.0,0.0,0.0,0.0,0.0,0.0,0.0,0.0,0.0,0.0,0.0,0.0,0.0,0.0,0.0,0.0,0.0,0.0,0.0,0.0,0.0,0.0,0.0,0.0,0.0,0.0,2.8984,3.4101,3.6992,3.625,3.7305,3.4219,2.5352,0.0,0.0,0.0,0.0,0.0,0.0,0.0,0.0,0.0,0.0,0.0,0.0,0.0,0.0,0.0,0.0,0.0,0.0,0.0,0.0,0.0,0.0,0.0,0.0,0.0,0.0,0.0,0.0,0.0,0.0,0.0,0.0,0.0,0.0,0.0,0.0,0.0,0.0,0.0,0.0,0.0,0.0,0.0,0.0,0.0,0.0,0.0,0.0,0.0,0.0,0.0,0.0,0.0,0.0,0.0,0.0,0.0,0.0,0.0,0.0,0.0,0.0,0.0,0.0,0.0,0.0,0.0,0.0,0.0,0.0,0.0,0.0,0.0,0.0,0.0,0.0,0.0,0.0,0.0,0.0,0.0,0.0,0.0,0.0,0.0,0.0,0.0,0.0,0.0,0.0,0.0,0.0,0.0,0.0,0.0,0.0,0.0,0.0,0.0,0.0,0.0,0.0,0.0,0.0,2.6172,3.3008,3.5859,3.7266,3.7109,3.5976,3.2812,2.6953,0.0,0.0,0.0,0.0,0.0,0.0,0.0,0.0,0.0,0.0,0.0,0.0,0.0,0.0,0.0,0.0,0.0,0.0,0.0,0.0,0.0,0.0,0.0,0.0,0.0,0.0,0.0,0.0,0.0,0.0,0.0,0.0,0.0,0.0,0.0,0.0,0.0,0.0,0.0,0.0,0.0,0.0,0.0,0.0,0.0,0.0,0.0,0.0,0.0,0.0,0.0,0.0,0.0,0.0,0.0,0.0,0.0,0.0,0.0,0.0,0.0,0.0,0.0,0.0,0.0,0.0,0.0,0.0,0.0,0.0,0.0,0.0,0.0,0.0,0.0,0.0,0.0,0.0,0.0,0.0,0.0,0.0,0.0,0.0,0.0,0.0,0.0,0.0,0.0,0.0,0.0,0.0,0.0,0.0,0.0,0.0,0.0,0.0,0.0,0.0,0.0,0.0,0.0,2.4102,2.8203,3.4062,3.5859,3.6406,3.5937,3.4726,3.1797,2.6602,2.5859,0.0,0.0,0.0,0.0,0.0,0.0,0.0,0.0,0.0,0.0,0.0,0.0,0.0,0.0,0.0,0.0,0.0,0.0,0.0,0.0,0.0,0.0,0.0,0.0,0.0,0.0,0.0,0.0,0.0,0.0,0.0,0.0,0.0,0.0,0.0,0.0,0.0,0.0,0.0,0.0,0.0,0.0,0.0,0.0,0.0,0.0,0.0,0.0,0.0,0.0,0.0,0.0,0.0,0.0,0.0,0.0,0.0,0.0,0.0,0.0,0.0,0.0,0.0,0.0,0.0,0.0,0.0,0.0,0.0,0.0,0.0,0.0,0.0,0.0,0.0,0.0,0.0,0.0,0.0,0.0,0.0,0.0,0.0,0.0,0.0,0.0,0.0,0.0,0.0,0.0,0.0,0.0,0.0,0.0,0.0,0.0,0.0,0.0,0.0,0.0,0.0,0.0,2.7031,3.0312,3.3984,3.5156,3.5351,3.4453,3.3047,3.043,2.6289,2.4414,0.0,0.0,0.0,0.0,0.0,0.0,0.0,0.0,0.0,0.0,0.0,0.0,0.0,0.0,0.0,0.0,0.0,0.0,0.0,0.0,0.0,0.0,0.0,0.0,0.0,0.0,0.0,0.0,0.0,0.0,0.0,0.0,0.0,0.0,0.0,0.0,0.0,0.0,0.0,0.0,0.0,0.0,0.0,0.0,0.0,0.0,0.0,0.0,0.0,0.0,0.0,0.0,0.0,0.0,0.0,0.0,0.0,0.0,0.0,0.0,0.0,0.0,0.0,0.0,0.0,0.0,0.0,0.0,0.0,0.0,0.0,0.0,0.0,0.0,0.0,0.0,0.0,0.0,0.0,0.0,0.0,0.0,0.0,0.0,0.0,0.0,0.0,0.0,0.0,0.0,0.0,0.0,0.0,0.0,0.0,0.0,0.0,0.0,0.0,0.0,0.0,0.0,2.8086,3.1445,3.3281,3.4258,3.4453,3.3555,3.0508,2.8164,2.6992,2.3125,0.0,0.0,0.0,0.0,0.0,0.0,0.0,0.0,0.0,0.0,0.0,0.0,0.0,0.0,0.0,0.0,0.0,0.0,0.0,0.0,0.0,0.0,0.0,0.0,0.0,0.0,0.0,0.0,0.0,0.0,0.0,0.0,0.0,0.0,0.0,0.0,0.0,0.0,0.0,0.0,0.0,0.0,0.0,0.0,0.0,0.0,0.0,0.0,0.0,0.0,0.0,0.0,0.0,0.0,0.0,0.0,0.0,0.0,0.0,0.0,0.0,0.0,0.0,0.0,0.0,0.0,0.0,0.0,0.0,0.0,0.0,0.0,0.0,0.0,0.0,0.0,0.0,0.0,0.0,0.0,0.0,0.0,0.0,0.0,0.0,0.0,0.0,0.0,0.0,0.0,0.0,0.0,0.0,0.0,0.0,0.0,0.0,0.0,0.0,0.0,0.0,0.0,2.6445,2.9531,0.0,3.3398,3.3555,3.2734,3.0976,2.8867,2.6367,0.0,0.0,0.0,0.0,0.0,0.0,0.0,0.0,0.0,0.0,0.0,0.0,0.0,0.0,0.0,0.0,0.0,0.0,0.0,0.0,0.0,0.0,0.0,0.0,0.0,0.0,0.0,0.0,0.0,0.0,0.0,0.0,0.0,0.0,0.0,0.0,0.0,0.0,0.0,0.0,0.0,0.0,0.0,0.0,0.0,0.0,0.0,0.0,0.0,0.0,0.0,0.0,0.0,0.0,0.0,0.0,0.0,0.0,0.0,0.0,0.0,0.0,0.0,0.0,0.0,0.0,0.0,0.0,0.0,0.0,0.0,0.0,0.0,0.0,0.0,0.0,0.0,0.0,0.0,0.0,0.0,0.0,0.0,0.0,0.0,0.0,0.0,0.0,0.0,0.0,0.0,0.0,0.0,0.0,0.0,0.0,0.0,0.0,0.0,0.0,0.0,0.0,2.3125,2.6055,2.8828,0.0,3.2539,3.2578,3.1484,3.0078,2.8125,2.5469,0.0,0.0,0.0,0.0,0.0,0.0,0.0,0.0,0.0,0.0,0.0,0.0,0.0,0.0,0.0,0.0,0.0,0.0,0.0,0.0,0.0,0.0,0.0,0.0,0.0,0.0,0.0,0.0,0.0,0.0,0.0,0.0,0.0,0.0,0.0,0.0,0.0,0.0,0.0,0.0,0.0,0.0,0.0,0.0,0.0,0.0,0.0,0.0,0.0,0.0,0.0,0.0,0.0,0.0,0.0,0.0,0.0,0.0,0.0,0.0,0.0,0.0,0.0,0.0,0.0,0.0,0.0,0.0,0.0,0.0,0.0,0.0,0.0,0.0,0.0,0.0,0.0,0.0,0.0,0.0,0.0,0.0,0.0,0.0,0.0,0.0,0.0,0.0,0.0,0.0,0.0,0.0,0.0,0.0,0.0,0.0,0.0,0.0,0.0,0.0,0.0,0.0,2.4219,2.7422,2.9922,3.082,3.168,3.1484,2.9766,2.7226,2.5352,0.0,0.0,0.0,0.0,0.0,0.0,0.0,0.0,0.0,0.0,0.0,0.0,0.0,0.0,0.0,0.0,0.0,0.0,0.0,0.0,0.0,0.0,0.0,0.0,0.0,0.0,0.0,0.0,0.0,0.0,0.0,0.0,0.0,0.0,0.0,0.0,0.0,0.0,0.0,0.0,0.0,0.0,0.0,0.0,0.0,0.0,0.0,0.0,0.0,0.0,0.0,0.0,0.0,0.0,0.0,0.0,0.0,0.0,0.0,0.0,0.0,0.0,0.0,0.0,0.0,0.0,0.0,0.0,0.0,0.0,0.0,0.0,0.0,0.0,0.0,0.0,0.0,0.0,0.0,0.0,0.0,0.0,0.0,0.0,0.0,0.0,0.0,0.0,0.0,0.0,0.0,0.0,0.0,0.0,0.0,0.0,0.0,0.0,0.0,0.0,0.0,0.0,0.0,2.5039,2.7305,2.9492,3.1601,3.1484,3.082,2.9687,2.832,2.6367,2.3633,0.0,0.0,0.0,0.0,0.0,0.0,0.0,0.0,0.0,0.0,0.0,0.0,0.0,0.0,0.0,0.0,0.0,0.0,0.0,0.0,0.0,0.0,0.0,0.0,0.0,0.0,0.0,0.0,0.0,0.0,0.0,0.0,0.0,0.0,0.0,0.0,0.0,0.0,0.0,0.0,0.0,0.0,0.0,0.0,0.0,0.0,0.0,0.0,0.0,0.0,0.0,0.0,0.0,0.0,0.0,0.0,0.0,0.0,0.0,0.0,0.0,0.0,0.0,0.0,0.0,0.0,0.0,0.0,0.0,0.0,0.0,0.0,0.0,0.0,0.0,0.0,0.0,0.0,0.0,0.0,0.0,0.0,0.0,0.0,0.0,0.0,0.0,0.0,0.0,0.0,0.0,0.0,0.0,0.0,0.0,0.0,0.0,0.0,0.0,0.0,0.0,0.0,2.5391,2.7539,2.9531,3.1484,3.1523,3.0937,2.9687,2.9101,2.7617,2.4844,0.0,0.0,0.0,0.0,0.0,0.0,0.0,0.0,0.0,0.0,0.0,0.0,0.0,0.0,0.0,0.0,0.0,0.0,0.0,0.0,0.0,0.0,0.0,0.0,0.0,0.0,0.0,0.0,0.0,0.0,0.0,0.0,0.0,0.0,0.0,0.0,0.0,0.0,0.0,0.0,0.0,0.0,0.0,0.0,0.0,0.0,0.0,0.0,0.0,0.0,0.0,0.0,0.0,0.0,0.0,0.0,0.0,0.0,0.0,0.0,0.0,0.0,0.0,0.0,0.0,0.0,0.0,0.0,0.0,0.0,0.0,0.0,0.0,0.0,0.0,0.0,0.0,0.0,0.0,0.0,0.0,0.0,0.0,0.0,0.0,0.0,0.0,0.0,0.0,0.0,0.0,0.0,0.0,0.0,0.0,0.0,0.0,0.0,0.0,0.0,0.0,0.0,2.5703,2.8164,3.0078,3.1016,3.1758,3.1484,2.9766,2.9609,2.8828,2.6992,0.0,0.0,0.0,0.0,0.0,0.0,0.0,0.0,0.0,0.0,0.0,0.0,0.0,0.0,0.0,0.0,0.0,0.0,0.0,0.0,0.0,0.0,0.0,0.0,0.0,0.0,0.0,0.0,0.0,0.0,0.0,0.0,0.0,0.0,0.0,0.0,0.0,0.0,0.0,0.0,0.0,0.0,0.0,0.0,0.0,0.0,0.0,0.0,0.0,0.0,0.0,0.0,0.0,0.0,0.0,0.0,0.0,0.0,0.0,0.0,2.7187,0.0,0.0,0.0,0.0,0.0,0.0,0.0,0.0,0.0,0.0,0.0,0.0,0.0,0.0,0.0,0.0,0.0,0.0,0.0,0.0,0.0,0.0,0.0,0.0,0.0,0.0,0.0,0.0,0.0,0.0,0.0,0.0,0.0,0.0,0.0,0.0,0.0,0.0,0.0,0.0,0.0,2.7422,2.9414,3.1211,3.2695,3.2461,3.1484,2.9766,2.9609,2.8555,2.6133,0.0,0.0,0.0,0.0,0.0,0.0,0.0,0.0,0.0,0.0,0.0,0.0,0.0,0.0,0.0,0.0,0.0,0.0,0.0,0.0,0.0,0.0,0.0,0.0,0.0,0.0,0.0,0.0,0.0,0.0,0.0,0.0,0.0,0.0,0.0,0.0,0.0,0.0,0.0,0.0,0.0,0.0,0.0,0.0,0.0,0.0,0.0,0.0,0.0,0.0,0.0,0.0,0.0,0.0,0.0,0.0,0.0,0.0,0.0,0.0,0.0,2.8008,0.0,0.0,0.0,0.0,0.0,0.0,0.0,0.0,0.0,0.0,0.0,0.0,0.0,0.0,0.0,0.0,0.0,0.0,0.0,0.0,0.0,0.0,0.0,0.0,0.0,0.0,0.0,0.0,0.0,0.0,0.0,0.0,0.0,0.0,0.0,0.0,0.0,0.0,0.0,0.0,2.8594,3.0469,3.1992,3.3281,3.3398,3.2695,3.0976,3.0859,3.0078,2.832,2.7031,0.0,0.0,0.0,0.0,0.0,0.0,0.0,0.0,0.0,0.0,0.0,0.0,0.0,0.0,0.0,0.0,0.0,0.0,0.0,0.0,0.0,0.0,0.0,0.0,0.0,0.0,0.0,0.0,0.0,0.0,0.0,0.0,0.0,0.0,0.0,0.0,0.0,0.0,0.0,0.0,0.0,0.0,0.0,0.0,0.0,0.0,0.0,0.0,0.0,0.0,0.0,0.0,0.0,3.8594,3.9023,3.8867,3.8711,3.832,3.7578,3.3437,3.2461,3.3633,0.0,0.0,0.0,0.0,0.0,0.0,0.0,0.0,0.0,0.0,0.0,0.0,0.0,0.0,0.0,0.0,0.0,0.0,0.0,0.0,0.0,0.0,0.0,0.0,0.0,3.582,3.5273,0.0,0.0,0.0,0.0,0.0,0.0,0.0,0.0,0.0,0.0,0.0,0.0,2.9492,3.1328,3.2734,3.3555,3.4258,3.4023,3.2344,3.2187,3.1836,3.0976,2.8867,2.7695,0.0,0.0,0.0,0.0,0.0,0.0,0.0,0.0,0.0,0.0,0.0,0.0,0.0,0.0,0.0,0.0,0.0,0.0,0.0,0.0,0.0,0.0,0.0,0.0,0.0,0.0,0.0,0.0,0.0,0.0,0.0,0.0,3.4883,3.5898,0.0,0.0,0.0,0.0,0.0,0.0,0.0,0.0,0.0,0.0,0.0,0.0,0.0,3.957,4.1367,4.2891,4.3711,4.3828,4.5469,4.5859,4.5078,4.4336,4.4336,4.4766,4.1211,0.0,3.5625,3.5156,0.0,0.0,0.0,0.0,0.0,0.0,0.0,0.0,0.0,0.0,0.0,0.0,0.0,0.0,0.0,0.0,0.0,0.0,0.0,0.0,0.0,0.0,3.8047,3.9883,4.0351,4.0234,0.0,3.5742,3.1758,3.0742,0.0,0.0,0.0,0.0,0.0,0.0,0.0,0.0,3.0508,3.2187,3.3555,3.4453,3.4648,3.4023,3.2344,3.2187,3.1836,3.0976,3.0586,3.0391,3.0391,2.8828,0.0,0.0,0.0,0.0,0.0,0.0,0.0,0.0,0.0,0.0,0.0,0.0,0.0,0.0,0.0,0.0,0.0,0.0,0.0,0.0,0.0,0.0,0.0,0.0,0.0,0.0,0.0,0.0,0.0,3.6094,3.832,3.8203,3.8945,3.8476,0.0,0.0,0.0,0.0,0.0,0.0,0.0,0.0,0.0,4.3555,4.4023,4.5039,4.6758,4.8476,4.8867,4.7969,5.0156,5.0469,4.918,4.9297,4.9258,4.9062,4.7578,4.5547,4.3008,3.9609,3.7148,3.5469,0.0,0.0,0.0,0.0,3.2656,3.2148,3.3906,3.5078,0.0,0.0,0.0,0.0,0.0,0.0,0.0,0.0,0.0,0.0,0.0,0.0,0.0,4.207,4.2617,4.2617,4.2617,4.0156,3.7109,0.0,3.3359,3.2344,3.0156,0.0,0.0,0.0,0.0,0.0,3.3476,3.3984,3.4648,3.6016,3.5703,3.4922,3.3711,3.3164,3.2539,3.168,3.1172,3.0898,3.0898,3.0156,2.9101,0.0,0.0,0.0,0.0,0.0,0.0,0.0,0.0,0.0,0.0,0.0,0.0,0.0,0.0,0.0,0.0,0.0,0.0,0.0,0.0,0.0,0.0,0.0,0.0,0.0,0.0,0.0,0.0,3.8748,4.1052,4.0039,4.16,4.1521,0.0,0.0,0.0,0.0,0.0,0.0,4.3047,4.3398,4.5273,4.9101,4.9453,5.0312,5.1836,5.3281,5.3398,5.2187,5.4101,5.4336,5.3086,5.3281,5.3008,5.2383,5.2148,5.1211,4.9453,4.4062,4.0703,3.8906,3.8476,3.6836,3.4922,3.668,3.6797,3.6328,3.8242,3.9219,3.9531,3.9336,0.0,3.7695,3.6172,0.0,0.0,0.0,0.0,3.543,3.8476,4.0078,4.1445,4.3828,4.4335,4.4294,4.4294,4.3626,4.1865,0.0,3.6598,3.5151,3.2567,0.0,0.0,0.0,0.0,3.3621,3.5965,3.5691,3.5772,3.7106,3.6676,3.5858,3.4805,3.3906,3.3047,3.2266,3.1367,3.0898,3.0898,3.0898,3.0272,2.893,0.0,0.0,0.0,0.0,0.0,0.0,0.0,0.0,0.0,0.0,0.0,0.0,0.0,0.0,0.0,0.0,0.0,0.0,0.0,0.0,0.0,0.0,0.0,0.0,0.0,0.0,0.0,0.0,0.0,4.0078,4.4157,0.0,0.0,0.0,0.0,4.2148,4.3633,4.5742,4.8359,4.9297,5.0976,5.3594,5.4492,5.5351,5.6289,5.7187,5.7617,5.75,5.7656,5.7656,5.7539,5.5898,5.5156,5.5078,5.4219,5.3359,5.2226,4.8672,4.5703,4.3203,4.1641,3.9922,3.8555,4.0312,4.0391,4.0,4.25,4.2851,4.2461,4.4101,4.4023,4.2695,3.9414,3.832,0.0,0.0,3.707,3.875,4.0586,4.2266,4.3945,4.5742,4.6084,4.5976,4.5976,4.5258,4.3813,0.0,4.0038,3.8617,3.591,0.0,3.4895,3.3283,3.3754,3.4924,3.6717,3.6911,3.695,3.7104,3.707,3.6424,3.4843,3.3906,3.3047,3.2266,3.1367,3.0898,3.0898,3.0898,3.0859,3.0781,2.914,0.0,0.0,0.0,0.0,0.0,0.0,0.0,0.0,0.0,0.0,0.0,0.0,0.0,0.0,0.0,0.0,0.0,0.0,0.0,0.0,0.0,0.0,0.0,0.0,0.0,0.0,0.0,0.0,4.4653,4.8595,0.0,4.6547,4.7019,4.7646,4.7922,4.912,5.0928,5.3405,5.3933,5.5304,5.779,5.8176,5.8453,5.8765,5.9666,5.958,5.8568,5.903,5.9058,5.8711,5.788,5.7302,5.6953,5.651,5.5575,5.4297,5.3047,5.0391,4.6914,4.5781,4.4609,4.3711,4.4883,4.5117,4.5078,4.6523,4.6836,4.6601,4.6641,4.6094,4.5039,4.3242,4.3125,4.3437,4.2812,4.3476,4.4648,4.5728,4.6035,4.6225,4.673,4.6427,4.5978,4.5978,4.5714,4.5205,4.4263,4.2563,4.0567,3.8498,3.8144,3.7759,3.6627,3.6705,3.7331,3.8506,3.8191,3.8047,3.8634,3.7702,3.6779,3.6224,3.49,3.4003,3.3691,3.2327,3.1547,3.1547,3.1003,3.0949,3.1487,3.0859,2.9706,0.0,0.0,0.0,0.0,0.0,0.0,0.0,0.0,0.0,0.0,0.0,0.0,0.0,0.0,0.0,0.0,0.0,0.0,0.0,0.0,0.0,0.0,0.0,0.0,0.0,0.0,4.8777,4.8516,5.2447,5.4181,5.165,5.1934,5.2678,5.3545,5.4743,5.613,5.7753,5.8238,5.907,6.0388,6.0421,6.0421,6.0421,6.1011,6.075,5.9693,5.9921,5.9819,5.9462,5.8944,5.8334,5.7746,5.7889,5.7232,5.5989,5.5677,5.3879,5.1185,4.9842,4.8789,4.8086,4.8672,4.8867,4.8945,4.9219,4.9336,4.918,4.832,4.7656,4.707,4.6484,4.6678,4.7104,4.7104,4.7486,4.8016,4.8518,4.7999,4.7327,4.7216,4.6508,4.5857,4.5857,4.582,4.5789,4.5754,4.4181,4.2087,3.9441,3.8732,3.8001,3.6304,3.6076,3.6387,3.725,3.7584,3.7904,3.8227,3.7989,3.7575,3.7035,3.5175,3.4199,3.4471,3.2603,3.1744,3.2325,3.1203,3.087,3.1386,3.0537,2.954,2.8418,0.0,0.0,0.0,0.0,0.0,0.0,0.0,0.0,0.0,0.0,0.0,0.0,0.0,0.0,0.0,0.0,0.0,0.0,0.0,0.0,0.0,0.0,0.0,4.4439,4.9107,5.2043,5.1419,5.5652,5.768,5.5365,5.6641,5.7936,5.8836,6.0372,6.1246,6.1214,6.2043,6.2127,6.1349,6.131,6.131,6.131,6.131,6.1271,6.1277,6.0409,6.002,5.9993,5.9159,5.8303,5.7548,5.8387,5.8231,5.7392,5.6525,5.6175,5.5891,5.3613,5.2226,5.1484,5.1484,5.1445,5.1328,5.0546,5.0234,5.0078,4.9257,4.8984,4.8945,4.8945,4.8854,4.8774,4.8735,4.8674,4.8579,4.8574,4.7923,4.7266,4.7262,4.6541,4.5848,4.5848,4.5704,4.5594,4.5594,4.5032,4.3169,3.8929,3.7507,3.5846,3.2545,3.2045,0.0,3.3122,3.5391,3.6607,3.5759,3.797,3.8794,3.7063,3.474,3.3689,3.4461,3.213,3.1466,3.3167,3.1582,3.0694,3.0694,2.8262,2.7836,2.9494,0.0,0.0,0.0,0.0,0.0,0.0,0.0,0.0,0.0,0.0,0.0,0.0,0.0,0.0,0.0,0.0,0.0,0.0,0.0,0.0,0.0,0.0,4.9037,4.9791,5.3225,5.649,5.8778,6.1318,6.2898,6.2838,6.2155,6.205,6.2909,6.2935,6.2624,6.187,6.215,6.2206,6.188,6.1252,6.1252,6.187,6.1252,6.1002,6.1089,6.076,6.0696,6.0927,6.0437,5.9882,5.9287,5.9389,5.9015,5.8315,5.8076,5.7614,5.6814,5.4308,5.3202,5.3007,5.3007,5.2618,5.2037,5.1803,5.1335,5.0793,5.0559,5.0481,5.0364,4.9737,4.9952,5.0322,4.9694,4.9945,5.0363,5.0287,4.9602,4.8916,4.881,4.7687,4.6596,4.6596,4.6052,4.5594,4.5594,4.5453,4.4699,4.2871,4.2354,4.17,4.02,3.9969,0.0,4.0277,4.0893,4.0292,3.7616,3.9613,3.948,3.5299,3.6027,3.6253,3.5288,3.3975,3.344,3.3903,3.2861,3.2552,3.3208,3.1895,3.1471,0.0,0.0,0.0,0.0,0.0,0.0,0.0,0.0,0.0,0.0,0.0,0.0,0.0,0.0,0.0,0.0,0.0,0.0,0.0,0.0,0.0,0.0,5.0625,5.4626,5.7819,5.905,6.0781,6.382,6.5397,6.6244,6.6397,6.5474,6.4974,6.5128,6.4794,6.4161,6.3217,6.3213,6.307,6.2639,6.2127,6.1935,6.2101,6.1601,6.118,6.0915,6.0834,6.0882,6.1079,6.0899,6.0419,0.0,6.0046,5.9746,5.9055,5.9055,5.8745,0.0,0.0,0.0,0.0,0.0,5.3608,5.2829,5.2829,5.2523,5.2134,5.2134,5.2134,5.2057,5.1546,5.1703,5.1889,5.099,5.1095,5.133,5.0905,5.0185,4.9495,4.9432,4.8394,4.7394,4.7394,4.674,4.6124,4.6124,0.0,0.0,4.494,4.3662,4.2085,4.02,3.9931,3.9931,3.9931,4.0854,4.0623,3.8238,4.0277,4.0315,3.6668,3.7007,0.0,0.0,0.0,3.4584,3.4205,3.3353,0.0,0.0,0.0,3.2391,3.343,0.0,0.0,0.0,3.0777,3.0583,0.0,0.0,0.0,0.0,0.0,0.0,0.0,0.0,0.0,0.0,0.0,0.0,0.0,0.0,0.0,0.0,5.4703,5.9588,6.6667,6.5628,6.5013,6.7244,6.8205,6.8359,6.7475,6.7205,6.6782,6.609,6.5936,6.5513,6.4666,0.0,0.0,0.0,0.0,6.3012,6.2409,6.2178,6.1716,6.0935,6.0858,6.0781,6.0781,6.0781,6.0396,5.9704,6.0473,6.0358,5.9665,5.9665,5.9588,5.9364,5.7908,5.6873,5.6063,5.5279,5.4457,5.3713,5.3713,0.0,0.0,5.3557,5.3557,5.3557,5.3557,5.3455,5.3204,5.2322,5.1987,5.1692,5.0894,5.0125,4.9548,4.9548,4.8894,4.824,4.824,4.7548,4.6885,4.6885,4.6201,4.5594,4.5594,4.3094,4.0092,3.7077,3.6654,3.6654,3.6654,3.8623,3.9592,3.8392,0.0,0.0,3.9161,3.7853,3.7392,3.7969,3.6615,3.543,3.4667,3.3891,3.2776,3.1308,3.1269,3.2391,3.4629,3.4629,3.5853,3.8046,3.4199,3.366,0.0,0.0,0.0,0.0,0.0,0.0,0.0,0.0,0.0,0.0,0.0,0.0,0.0,0.0,0.0,5.6357,6.1973,6.7167,7.0706,7.0167,6.9629,7.009,7.0321,7.009,6.9283,6.7936,6.7051,6.6859,6.6282,6.5513,6.4666,6.4589,0.0,6.4359,6.3666,6.3551,6.4128,6.2781,6.2024,6.1831,0.0,0.0,6.0781,6.0781,6.0704,6.055,6.0742,6.0704,6.055,6.055,6.0127,5.9331,5.7706,5.656,5.5789,5.5625,5.5046,5.4352,5.4352,5.3889,5.3262,5.3262,5.3262,5.3262,5.3262,5.3273,0.0,5.2194,5.1924,5.1692,5.0894,5.0558,5.0442,5.0442,4.9779,4.9163,4.9163,4.7971,4.6885,4.6885,4.6201,4.5594,4.5594,4.5056,4.4402,4.3748,4.3671,4.3671,4.3671,4.4094,4.3247,4.0323,4.2316,4.2008,3.7584,3.8777,3.9238,3.8084,3.77,3.743,3.7276,3.7084,3.6853,3.6546,3.6546,3.6776,3.7276,3.7276,3.7892,3.9015,3.7507,3.743,0.0,0.0,0.0,0.0,0.0,0.0,0.0,0.0,0.0,0.0,0.0,4.6009,0.0,0.0,5.8588,6.1627,6.6359,7.0398,7.2552,7.2476,7.2052,7.1591,7.1168,7.0591,6.9783,6.8898,6.8052,6.7167,6.6744,6.6128,6.5282,6.5243,6.5243,6.5243,6.482,6.4589,6.4589,6.3782,6.3128,6.2704,6.1858,6.1447,6.1435,6.1012,6.0781,6.0781,6.0781,6.0781,6.0781,6.0781,6.0281,5.9435,5.8588,5.7473,5.6291,5.5857,5.5434,5.5088,5.5088,5.4818,5.4434,5.4434,5.4434,5.4434,5.4434,5.4434,5.428,5.3433,5.3203,5.301,5.2164,5.1625,5.1318,5.1318,5.0664,5.0048,5.0048,4.9048,4.8009,4.7586,4.6817,4.6124,4.5671,4.5594,4.5594,4.5594,4.5594,4.5594,4.5594,4.5594,4.4786,4.2632,4.3547,4.2931,3.9538,4.0008,4.0131,3.9315,3.8854,3.8661,3.8661,3.8238,3.82,3.8623,3.8661,3.8854,3.9238,3.9238,3.9477,3.99,3.9438,3.9477,0.0,0.0,0.0,0.0,0.0,0.0,0.0,0.0,4.3547,4.5624,4.8202,5.0923,5.3615,5.828,6.2897,6.6513,6.9667,7.2129,7.3553,7.3437,7.2937,7.2052,7.1475,7.0783,6.9783,6.9552,6.8783,6.7205,6.6974,6.659,6.5936,6.5897,6.5897,6.5897,6.5897,6.5628,6.5089,6.4743,6.432,6.3782,6.2627,6.2101,6.2062,6.1204,6.0781,6.0781,6.0781,6.0781,6.0781,6.0781,6.0396,5.9742,5.9588,5.8665,5.7368,5.6511,5.6203,5.6203,5.6203,5.6088,5.5934,5.5934,5.5818,5.5703,5.5703,5.5703,5.5511,5.4741,5.4511,5.428,5.3433,5.2692,5.2154,5.2154,5.1548,5.0933,5.0933,5.0125,4.9202,4.8509,4.7702,4.6855,4.6009,4.5864,4.5787,4.5633,4.5594,4.5594,4.5594,4.5594,4.5325,4.4624,4.4393,4.3701,4.22,4.1239,4.0746,4.0746,3.9977,3.9515,3.9515,3.8854,3.8815,3.9515,3.9515,3.9861,4.0516,4.0516,4.0516,4.0516,4.0669,4.0669,3.5772,3.4603,3.5591,3.8438,4.0123,4.2731,0.0,0.0,5.2702,5.5934,5.9204,6.1577,6.1973,6.6205,7.0052,7.1283,7.3053,7.4361,7.4553,7.3283,7.2014,7.1168,7.1629,7.1437,6.986,6.9013,6.8129,6.7167,6.6436,6.5974,6.5897,6.5897,6.5897,6.5897,6.5897,6.6205,6.6821,6.5359,6.4936,6.559,6.3217,6.2101,6.2062,6.1204,6.0781,6.0781,6.0781,6.0781,6.0781,6.0781,6.0742,6.0589,5.9819,5.9396,5.9127,5.8319,5.8011,5.8011,5.8011,5.7511,5.6868,5.6868,5.6329,5.5703,5.5703,5.5703,5.5511,5.4741,5.4511,5.428,5.3433,5.3126,5.3049,5.3049,5.2385,5.1769,5.1769,5.051,4.9356,4.9279,4.8548,4.7702,4.6894,4.674,4.6509,4.571,4.5594,4.5594,4.5594,4.5594,4.5556,4.5479,4.4739,4.3932,4.3047,4.2162,4.1662,4.1662,4.0854,4.0362,4.0362,4.0285,4.0285,4.0362,4.0362,4.04,4.0516,4.0516,4.0516,4.0516,4.1277,4.1239,4.0546,3.9738,4.0431,0.0,4.7201,4.9817,5.5126,5.7396,5.905,6.1473,6.4666,6.7167,6.7628,7.0667,7.3245,0.0,7.4245,7.4361,7.3399,7.2206,7.0937,6.959,6.9321,6.9167,6.8975,6.8629,6.8052,6.7167,6.6782,6.659,6.659,6.6128,6.609,6.659,6.659,6.6551,6.6397,6.6167,6.6013,6.5859,6.432,6.3281,6.2781,6.1935,6.1293,6.0781,6.0781,6.0781,6.0781,6.0781,6.0781,6.0742,6.0396,6.0242,6.0089,5.8781,5.8319,5.8242,5.7703,5.7291,5.6907,5.6406,5.6011,5.5703,5.5703,5.5703,5.5626,5.528,5.5203,5.5126,5.4741,5.4318,5.3972,5.3972,5.328,5.25,5.2,5.1346,5.0587,4.9586,4.9125,4.8432,4.7115,4.6885,4.6586,4.5748,4.5594,4.5594,4.5594,4.5594,4.5594,4.5594,4.4816,4.4162,4.3816,4.3047,4.2547,4.2547,4.22,4.2008,4.2008,4.2008,4.2008,4.2008,4.2008,4.2008,4.2008,4.2008,4.2008,4.2008,4.2393,4.2354,4.3355,4.3701,0.0,5.0943,5.4241,5.7049,6.105,6.3281,6.4859,6.609,6.8706,7.0783,7.0898,7.2591,7.4014,7.4014,7.3822,7.3245,7.2014,7.0898,6.9513,6.759,6.659,6.6205,6.6628,6.7321,6.7552,6.7128,6.709,6.7205,6.7436,6.6898,6.6859,6.7436,6.7475,6.7282,6.6936,6.7282,6.7167,6.659,6.5474,6.4397,6.3281,6.2204,6.1408,6.0781,6.0781,6.0781,6.0781,6.0781,6.0781,6.0781,6.0781,6.0781,6.0666,5.9435,5.8973,5.8858,5.7973,5.7703,5.7511,5.6395,5.6049,5.6011,5.578,5.5703,5.5703,5.5703,5.5703,5.5703,5.5703,5.528,5.4818,5.4818,5.4164,5.3318,5.2462,5.2077,5.1462,5.0048,4.974,4.9317,4.7855,4.7586,4.724,4.6124,4.597,4.5855,4.5633,4.5594,4.5594,4.5594,4.5056,4.4662,4.4662,4.3893,4.3431,4.3431,4.3201,4.3085,4.3085,4.3085,4.3085,4.3085,4.3085,4.3085,4.3085,4.3085,4.3085,4.3124,4.3316,4.3431,4.1546,4.3701,4.6278,5.4713,5.9935,6.3897,6.7359,6.9436,7.0667,7.0706,7.2129,7.2899,7.1206,7.1629,7.2283,7.2283,7.1552,7.1014,7.0937,6.9513,6.7552,6.5013,6.3935,6.3128,0.0,6.4512,6.6282,6.7051,6.709,6.7475,6.8321,6.8346,6.8346,6.8359,6.8359,6.8744,6.959,6.8783,6.8359,6.8321,6.6667,6.4974,6.3231,6.1589,6.0819,6.0781,6.0781,6.0781,6.0781,6.0781,6.0781,6.0781,6.0781,6.0781,6.0781,6.0742,6.0704,6.0589,5.9742,5.9435,5.9165,5.7522,5.6945,5.6791,5.5972,5.5703,5.5703,5.5703,5.5703,5.5703,5.5703,5.5665,5.5665,5.5665,5.5049,5.4203,5.3356,5.25,5.1654,5.0818,5.0673,5.0366,4.9471,4.9317,4.8779,4.7124,4.6846,4.6547,4.571,4.5594,4.5594,4.5594,4.5594,4.5556,4.5556,4.4739,4.4239,4.4239,4.3547,4.3085,4.3085,4.3085,4.3085,4.3085,4.3085,4.3085,4.3085,4.3085,4.3085,4.3124,4.3893,4.4239,4.5817,4.9933,5.4252,6.0473,6.5205,6.8936,7.1283,7.2245,7.2322,7.1129,6.9129,6.6898,6.4628,6.3051,6.2858,6.5128,6.6205,6.7321,6.9013,6.8783,6.7475,6.4897,6.382,0.0,0.0,0.0,0.0,6.532,6.5974,6.6936,6.8321,6.8385,6.8667,6.9244,6.9244,6.9129,6.8859,6.8552,6.8129,6.7513,6.5243,6.3858,6.3231,6.155,6.0781,6.0781,6.0781,6.0781,6.0781,6.0781,6.0781,6.0781,6.0781,6.0781,6.0781,6.0781,6.0781,6.0666,5.9819,5.9165,5.8511,5.7368,5.6599,5.6214,5.6483,5.6165,5.5818,5.6406,5.6137,5.5703,5.5703,5.5703,5.5703,5.5703,5.5472,5.5049,5.4241,5.3818,5.3203,5.1779,5.151,5.1048,4.9625,4.9394,4.8817,4.7163,4.6394,4.5932,4.5633,4.5594,4.5594,4.5594,4.5594,4.5594,4.5594,4.5325,4.5171,4.5171,4.4902,4.4748,4.4748,4.4748,4.4748,4.4748,4.4748,4.4748,4.4748,4.4748,4.4748,4.4786,4.5056,4.5171,5.024,5.5588,6.055,6.5974,6.9821,7.2552,7.3668,7.3476,7.2206,6.9244,6.5513,6.182,5.8665,5.6011,5.5703,6.005,6.1396,6.3281,6.7359,6.7167,6.609,6.4743,6.332,6.2127,0.0,0.0,0.0,6.4474,6.5974,6.7398,6.8783,6.9129,6.9552,7.0129,7.0129,6.986,6.9321,6.9013,6.8282,6.7051,6.4512,6.3308,6.3231,6.155,6.0781,6.0781,6.0781,6.0781,6.0781,6.0781,6.0781,6.0781,6.0781,6.0781,6.0781,6.0781,6.0781,6.0666,5.9819,5.9358,5.9011,5.7819,5.728,5.7126,5.7396,5.7049,5.6665,5.6945,5.6599,5.6088,5.578,5.5703,5.5703,5.5703,5.5703,5.5472,5.4664,5.4511,5.4087,5.2654,5.2346,5.2,5.0933,5.024,4.9394,4.8009,4.6817,4.5932,4.5633,4.5594,4.5594,4.5594,4.5594,4.5594,4.5594,4.5594,4.5594,4.5594,4.5594,4.5594,4.5594,4.5594,4.5594,4.5594,4.5594,4.5594,4.5594,4.5594,4.5594,4.5594,4.5594,4.5594,5.4829,6.0589,6.5205,7.0975,7.3553,7.4668,7.4591,7.3091,7.0321,6.5243,6.1243,5.7396,5.3241,0.0,5.0894,5.6857,5.7434,5.9446,6.6167,6.5089,6.3897,0.0,0.0,0.0,0.0,0.0,0.0,6.4628,0.0,6.8744,6.9667,7.0475,7.0898,7.0898,7.086,7.0821,7.0821,6.9975,6.8744,6.7051,6.4512,6.3308,6.3231,6.155,6.0781,6.0781,6.0781,6.0781,6.0781,6.0781,6.0781,6.0781,6.0781,6.0781,6.0781,6.0781,6.0781,6.0666,5.9858,6.0089,6.0473,5.8896,5.8858,5.9319,5.8588,5.8319,5.8127,5.7291,5.7022,5.683,5.5972,5.5742,5.5703,5.5742,5.5742,5.5472,5.4741,5.4549,5.4318,5.3433,5.3241,5.3203,5.3126,5.1818,5.0442,4.9548,4.8048,4.6701,4.5787,4.5633,4.5594,4.5594,4.5594,4.5594,4.5594,4.5594,4.5594,4.5594,4.5594,4.5594,4.5594,4.5594,4.5594,4.5594,4.5594,4.5594,4.5594,4.5594,4.5594,4.5594,4.5594,4.5594,6.2627,6.7628,7.1552,7.4322,7.4861,7.4361,7.3129,6.9052,6.432,5.9858,5.2702,4.6355,4.3393,4.2786,0.0,5.0702,5.5703,0.0,6.632,6.7667,0.0,6.659,0.0,6.5359,6.4974,6.5474,0.0,0.0,6.7051,6.809,6.9629,7.0475,7.0898,7.0898,7.0321,7.0014,7.0014,6.8513,6.7552,6.7051,6.4512,6.3308,6.3231,6.155,6.0781,6.0781,6.0781,6.0781,6.0781,6.0781,6.0781,6.0781,6.0781,6.0781,6.0781,6.0781,6.0781,6.0781,6.055,6.0204,5.9742,5.9319,5.8934,5.8665,5.9088,5.8781,5.8242,5.805,5.7511,5.6945,5.6714,5.6214,5.5857,5.6522,5.6165,5.5626,5.5434,5.5395,5.5164,5.4318,5.3626,5.301,5.2346,5.1885,5.1087,4.9625,4.9048,4.824,4.6778,4.6009,4.5594,4.5594,4.5594,4.5594,4.5594,4.5594,4.5594,4.5594,4.5594,4.5594,4.5594,4.5594,4.5594,4.5594,4.5594,4.5594,4.5594,4.5594,4.5594,4.5594,4.5594,4.5594,6.8744,7.3014,7.5822,7.6399,7.563,7.3591,6.9283,6.4589,5.9165,5.2318,4.5547,4.0431,3.8969,3.8777,0.0,0.0,0.0,0.0,6.5628,6.709,6.7667,0.0,6.7552,0.0,6.7013,6.7744,6.8244,0.0,6.8244,6.8667,6.9667,7.0475,7.0898,7.0898,7.0475,6.986,6.9129,6.7782,6.6898,6.6551,6.4359,6.3308,6.3231,6.155,6.0781,6.0781,0.0,6.0781,6.0781,6.0781,6.0781,6.0781,6.0781,6.0781,6.0781,6.0781,6.0781,6.0781,6.0781,6.0242,5.955,5.9935,5.9781,5.9473,5.9935,5.9742,5.9319,5.8934,5.8204,5.7473,5.7099,5.6637,5.6291,5.6406,5.6368,5.6175,5.578,5.5703,5.5549,5.5126,5.4626,5.3895,5.2692,5.2462,5.1895,5.0202,4.9625,4.9048,4.8125,4.6932,4.6009,4.5633,4.5594,4.5594,4.5594,4.5594,4.5594,4.5594,4.5594,4.5594,4.5594,4.5594,4.5594,4.5594,4.5594,4.5594,4.5594,4.5594,4.5594,4.5594,4.5594,4.5594,7.3245,7.6746,7.84,7.74,7.5668,7.2206,6.4551,5.9858,5.4357,4.4586,3.9777,3.7392,3.7623,3.7161,3.9777,4.9173,0.0,5.6319,6.4705,6.5436,6.6244,6.9321,6.8552,6.8052,6.8821,6.9706,7.0167,7.0052,7.0129,7.0167,7.0052,7.0706,7.0975,7.0744,7.0629,6.986,6.8398,6.7436,6.6628,6.6051,6.432,6.3462,6.3423,6.1743,6.0973,6.0973,0.0,0.0,6.0781,6.0781,6.0781,6.0781,6.0781,6.0781,6.0781,6.0781,6.0781,6.0781,6.0781,6.0319,5.9781,6.0435,6.0627,6.0627,6.0627,6.0704,6.0627,5.9742,5.9011,5.828,5.7522,5.7253,5.6983,5.6203,5.6522,5.6753,5.5895,5.5703,5.5703,5.5703,5.5703,5.5203,5.3626,5.328,5.2664,5.1087,5.0125,4.951,4.9394,4.8048,4.674,4.5864,4.5787,4.5748,4.5594,4.5594,4.5594,4.5594,4.5594,4.5594,4.5594,4.5594,4.5594,4.5594,4.5594,4.5594,4.5594,4.5594,4.5594,4.5594,4.5594,4.5594,7.5245,7.763,7.9054,7.6784,7.386,6.9552,6.1897,5.5395,0.0,4.147,3.6661,3.4237,3.5654,3.6346,3.9777,4.9173,5.2702,5.7011,6.4782,0.0,6.8244,0.0,0.0,0.0,0.0,0.0,0.0,0.0,0.0,7.2552,7.1783,7.1898,7.1321,6.9937,6.9206,6.8706,6.8385,6.6898,6.6359,6.6859,6.5166,6.4359,6.432,6.2627,6.187,6.1831,6.1089,0.0,6.0781,6.0781,6.0781,6.0781,6.0781,6.0781,6.0781,6.0781,6.0781,6.0781,6.0781,6.0704,6.0473,5.9896,5.9742,5.9742,5.9742,6.0242,6.0627,5.9742,5.9396,5.9281,5.9127,5.8588,5.805,5.7896,5.7396,5.6753,5.5895,5.5703,5.5703,5.5703,5.5703,5.5395,5.4434,5.3664,5.2856,5.1846,5.101,5.0212,4.9471,4.8509,4.7586,4.6778,4.6663,4.6394,4.5671,4.5594,4.5594,4.5594,4.5594,4.5594,4.5594,4.5594,4.5594,4.5594,4.5594,4.5594,4.5594,4.5594,4.5594,4.5594,4.5594,4.5594,7.5207,7.7169,7.8631,7.6515,7.2783,6.6987,5.6986,0.0,0.0,3.6803,3.3708,3.3072,3.4925,3.6327,3.9023,4.4755,4.9171,5.3914,5.9863,0.0,0.0,0.0,0.0,0.0,0.0,0.0,0.0,0.0,0.0,7.336,7.1629,7.1514,7.1168,7.036,6.9513,6.8859,6.8385,6.7167,6.6513,6.6436,6.5205,6.4359,6.3897,6.2666,6.187,6.1408,6.0973,0.0,6.0781,6.0781,6.0781,6.0781,6.0781,6.0781,6.0781,6.0781,6.0781,6.0781,6.0781,6.0512,6.005,5.9627,5.9819,6.0165,6.0165,6.0473,6.0704,6.0281,5.9858,5.9396,5.8973,5.8588,5.8088,5.7165,5.6626,5.6214,5.578,5.5703,5.5703,5.5703,5.5703,5.5434,5.4626,5.4164,5.3433,5.2115,5.1587,5.101,5.0164,4.9702,4.8817,4.7077,4.6885,4.6547,4.5671,4.5594,4.5594,4.5594,4.5594,4.5594,4.5594,4.5594,4.5594,4.5594,4.5594,4.5594,4.5594,4.5594,4.5594,4.5594,4.5594,4.5594,7.4514,7.6553,7.7923,7.5618,7.1339,6.464,5.2829,4.7339,0.0,3.3636,3.2141,3.3034,3.523,3.6068,3.7519,4.081,4.4704,4.9193,5.4632,0.0,0.0,0.0,0.0,0.0,0.0,0.0,0.0,0.0,0.0,0.0,7.1283,7.1168,7.1091,7.0898,7.0129,6.9283,6.8398,6.7552,6.6705,6.5897,6.5205,6.4512,6.382,6.282,6.1973,6.132,6.0973,0.0,0.0,6.0781,6.0781,6.0781,6.0781,6.0781,6.0781,6.0781,6.0781,6.0781,6.0781,6.0358,5.9781,5.9781,6.0127,6.0512,6.0512,6.0666,6.0781,6.0781,6.0319,5.9627,5.9011,5.8858,5.8396,5.6665,5.5972,5.5703,5.5703,5.5703,5.5703,5.5703,5.5703,5.5511,5.4857,5.4626,5.4049,5.2654,5.2154,5.1654,5.1048,5.0827,4.9856,4.7663,4.7278,4.6817,4.5932,4.571,4.5594,4.5594,4.5594,4.5594,4.5594,4.5594,4.5594,4.5594,4.5594,4.5594,4.5594,4.5594,4.5594,4.5594,4.5594,4.5594,7.386,7.6553,7.7455,7.2948,6.8693,6.2771,5.2011,0.0,4.1597,3.4958,3.3439,3.414,3.686,3.4765,3.4725,4.1135,4.1298,4.3625,5.2413,5.6564,0.0,0.0,0.0,0.0,0.0,0.0,0.0,0.0,0.0,0.0,7.2052,7.2091,7.1706,7.0937,7.0129,6.9283,6.8398,6.7552,6.6705,6.5897,6.582,6.5743,6.559,6.3935,6.3166,6.3012,6.1473,0.0,0.0,6.0781,6.0781,6.0781,6.0781,6.0781,6.0781,6.0781,6.0781,6.0781,6.0781,6.0742,6.0666,6.0666,6.0204,5.9627,5.9627,6.0165,6.0781,6.0781,6.0742,6.0666,6.0589,6.055,6.0165,5.8473,5.6857,5.5703,5.5703,5.5703,5.5703,5.5703,5.5703,5.5665,5.5588,5.4972,5.4434,5.428,5.2933,5.1885,5.1808,5.1164,5.0327,4.9279,4.8471,4.7663,4.6855,4.6047,4.5594,4.5594,4.5594,4.5594,4.5594,4.5594,4.5594,4.5594,4.5594,4.5594,4.5594,4.5594,4.5594,4.5594,4.5594,4.5594,6.694,7.1067,7.4193,7.0989,6.5962,5.9333,4.9951,0.0,4.0052,3.4459,3.3482,3.389,3.4685,3.3623,3.3145,3.4766,3.5964,3.887,4.5117,4.984,0.0,0.0,0.0,0.0,0.0,0.0,0.0,0.0,0.0,0.0,7.093,7.1247,7.1245,7.0898,7.0129,6.9283,6.8398,6.7552,6.6705,6.5897,6.5897,6.5359,6.432,6.3628,6.2743,6.1743,6.1089,0.0,0.0,6.0781,6.0781,6.0781,6.0781,6.0781,6.0781,6.0781,6.0781,6.0781,6.0781,6.0781,6.0781,6.0781,6.055,6.0281,6.0281,6.0512,6.0781,6.0781,6.0781,6.0666,6.0165,5.9281,5.8473,5.8319,5.7357,5.6483,5.6483,5.6483,5.6329,5.578,5.5703,5.5703,5.5703,5.5434,5.5049,5.4549,5.3472,5.25,5.1962,5.1202,5.0558,5.0212,4.9394,4.8355,4.7,4.6586,4.6163,4.5633,4.5594,4.5594,4.5594,4.5594,4.5594,4.5594,4.5594,4.5594,4.5594,4.5594,4.5594,4.5594,4.5594,4.5594,6.0692,6.5351,6.9277,6.8312,6.2749,5.5638,0.0,0.0,3.812,3.4151,3.3598,3.3692,3.3396,3.3275,3.2723,3.1152,3.269,3.5627,4.011,4.4949,0.0,0.0,0.0,0.0,0.0,0.0,0.0,0.0,0.0,0.0,0.0,7.0233,7.0478,7.0538,7.0014,6.9167,6.8013,6.7398,6.6705,6.5897,6.5897,6.5128,6.3666,6.3423,6.2551,6.1166,0.0,0.0,0.0,6.0781,6.0781,6.0781,6.0781,6.0781,6.0781,6.0781,6.0781,6.0781,6.0781,6.0781,6.0781,6.0781,6.0781,6.0781,6.0781,6.0781,6.0781,6.0781,6.0781,6.0666,6.005,5.8819,5.7819,5.8204,5.7627,5.6945,5.6676,5.6637,5.6445,5.5818,5.5703,5.5703,5.5703,5.5703,5.5511,5.4934,5.3895,5.3087,5.2692,5.1702,5.1048,5.1048,5.051,4.9471,4.7778,4.7201,4.6624,4.6009,4.5748,4.5594,4.5594,4.5594,4.5594,4.5594,4.5485,4.5448,4.5448,4.5333,4.5371,4.5448,4.5333,4.5371,5.658,6.0373,6.274,6.4507,5.8874,5.1852,4.7997,4.1515,3.5938,3.45,3.3968,3.3876,3.414,3.3968,3.3513,3.2693,3.2596,3.4321,3.9203,4.3387,0.0,0.0,0.0,0.0,0.0,0.0,0.0,0.0,0.0,0.0,0.0,6.9313,6.9451,6.9679,6.9706,6.8859,6.7128,6.709,6.6705,6.5897,6.5897,6.5436,6.4551,6.3705,6.2858,0.0,0.0,0.0,0.0,6.0781,6.0781,6.0781,6.0781,6.0781,6.0781,6.0781,6.0781,6.0781,6.0781,6.0781,6.0781,6.0781,6.0781,6.0781,6.0781,6.0781,6.0781,6.0781,6.0781,6.0781,6.0781,6.0127,5.9281,5.8511,5.7627,5.6753,5.5895,5.5703,5.5703,5.5703,5.5703,5.5703,5.5703,5.5703,5.5703,5.5703,5.428,5.351,5.4357,5.2972,5.1885,5.1885,5.1885,5.1192,4.951,4.7855,4.6885,4.6885,4.6086,4.5594,4.5594,4.5594,4.5594,4.5594,4.5263,4.5115,4.5115,4.4788,4.4788,4.5115,4.4776,4.48,4.6968,5.0583,5.3211,5.2826,4.9159,4.4892,4.2005,3.827,3.5119,3.4136,3.385,3.3847,3.3915,3.385,3.3733,3.3476,3.344,3.4357,3.7074,0.0,0.0,0.0,0.0,0.0,0.0,0.0,0.0,0.0,0.0,0.0,0.0,6.8249,6.8145,6.8577,6.8025,6.7189,6.6087,6.5848,6.5603,6.5335,6.4814,6.4252,6.3654,6.2514,0.0,0.0,0.0,0.0,0.0,6.0781,6.0781,6.0781,6.0781,6.0781,6.0781,6.0781,6.0781,6.0781,6.0781,6.0781,6.0781,6.0781,6.0396,6.0012,6.0627,6.0781,6.0781,6.0781,6.0781,6.0781,6.0781,6.0165,5.9588,5.9935,5.8934,5.7973,5.8242,5.7396,5.6599,5.6599,5.6088,5.5703,5.5703,5.5703,5.5703,5.5703,5.4526,5.3733,5.4,5.2792,5.1681,5.1163,5.1087,5.0633,4.9519,4.8894,4.8125,4.6962,4.6387,4.5827,4.5291,4.5033,4.4919,4.4919,4.4825,4.4763,4.4763,4.4663,4.4663,4.4763,4.4663,4.4952,3.989,4.295,4.5472,4.6046,4.3094,0.0,3.8909,3.6083,3.3647,3.377,3.3807,3.3807,3.3807,3.3807,3.3807,3.3807,3.355,3.4027,0.0,0.0,0.0,0.0,0.0,0.0,0.0,0.0,0.0,0.0,0.0,0.0,0.0,6.7259,6.6858,6.6596,6.6435,6.5974,6.5143,6.4944,6.4681,6.4339,6.3861,6.3153,6.2271,6.15,0.0,0.0,0.0,0.0,0.0,6.0734,6.0781,6.0781,6.0781,6.0781,6.0781,6.0781,6.0781,6.0781,6.0781,6.0781,6.0781,6.0781,6.0204,5.9665,6.055,6.0781,6.0781,6.0781,6.0781,6.0781,6.0781,6.0396,6.005,6.0242,5.9511,5.8819,5.9011,5.8242,5.7439,5.7273,5.6532,5.5921,5.5747,5.5467,5.5237,5.5237,5.4278,5.3708,5.4012,5.3059,5.2212,5.1699,5.1375,5.0847,4.9942,4.9301,4.8498,4.7455,4.6865,4.6339,4.5834,4.5609,4.5491,4.5491,4.5354,4.5284,4.5284,4.5284,4.5213,4.5118,4.5368,4.5673,0.0,3.7201,3.9155,4.2684,3.9643,3.6193,3.7808,3.4651,0.0,3.3476,3.3807,3.3807,3.3807,3.3807,3.3807,3.388,3.333,3.3697,0.0,0.0,0.0,0.0,0.0,0.0,0.0,0.0,0.0,0.0,0.0,0.0,0.0,6.6439,6.5705,6.4127,6.4946,6.5028,6.4275,6.4275,6.3842,6.3068,6.2918,6.2106,6.0707,6.0597,0.0,0.0,0.0,0.0,0.0,6.0508,6.0722,6.0722,6.0722,6.0722,6.0722,6.0722,6.0722,6.0722,6.0722,6.0722,6.0683,6.0645,6.0056,5.9557,6.0364,6.063,6.0704,6.0781,6.0781,6.0781,6.0781,6.0781,6.0589,5.9781,5.955,5.9319,5.8627,5.8396,5.8177,5.7794,5.6976,5.6269,5.5794,5.5034,5.4484,5.4484,5.3795,5.3537,5.4361,5.3709,5.3188,5.3112,5.2391,5.1563,5.0681,4.9181,4.8268,4.8192,4.7486,4.7043,4.6968,4.6939,4.6925,4.6925,4.6567,4.6359,4.6359,4.6359,4.6214,4.5902,4.6598,4.6772,3.1336,0.0,3.1815,3.2513,3.1702,3.1152,0.0,3.2241,3.1874,3.3476,3.3807,3.3807,3.3807,3.3807,3.399,3.4601,3.5128,3.5862,0.0,0.0,0.0,0.0,0.0,0.0,0.0,0.0,0.0,0.0,0.0,0.0,0.0,6.5925,6.5118,6.4127,6.3689,6.3376,6.3191,6.296,6.2782,6.2537,6.1307,6.0736,6.067,5.9628,0.0,0.0,0.0,0.0,5.9559,5.9658,5.9744,5.9744,5.9744,5.9744,5.9744,5.9744,5.9744,5.9744,5.9744,5.9744,5.963,5.8932,5.8644,5.8546,5.8704,5.9248,5.9935,6.0589,6.0781,6.0781,6.0781,6.0781,6.0742,6.055,5.9973,5.9627,6.0127,5.9204,5.833,5.8481,5.7357,5.6269,5.5794,5.5034,5.4484,5.4484,5.4037,5.3717,5.3959,5.3515,5.2966,5.2338,5.1581,5.0731,4.988,4.9423,4.8923,4.8244,4.7777,4.7255,4.6551,4.6298,4.6165,4.6165,4.6061,4.6008,4.6008,4.6008,4.5992,4.5883,4.6061,4.6428,2.9942,2.9771,2.9494,2.9346,2.9448,2.9915,3.1272,3.179,3.2302,3.355,3.3807,3.3807,3.3807,3.3807,3.4064,3.4857,3.6362,0.0,0.0,0.0,0.0,0.0,0.0,0.0,0.0,0.0,0.0,0.0,0.0,0.0,0.0,6.5191,6.42,6.2989,6.2511,6.2254,6.2254,6.21,6.167,6.0929,6.0063,5.9568,5.9448,5.8709,5.8545,0.0,0.0,0.0,5.9121,5.9302,5.9389,5.9389,5.9389,5.9389,5.9389,5.9389,5.9389,5.9389,5.9389,5.9389,5.9314,5.8844,5.822,5.7729,5.8467,5.8508,5.8582,5.9817,6.0161,6.0161,6.0161,6.0161,6.0161,6.0161,5.9803,5.9574,6.0084,5.9421,5.8796,5.8769,5.7456,5.6229,5.5716,5.5007,5.4335,5.3963,5.3978,5.395,5.358,5.3318,5.3041,5.2601,5.1499,5.0765,5.0655,4.9601,4.8725,4.8278,4.8096,4.7771,4.7292,4.7114,4.6985,4.6985,4.6985,4.6985,4.6985,4.6985,4.6985,4.6985,4.6985,4.7241,2.99,2.9877,2.9715,2.9821,3.0044,3.0549,3.1681,3.2268,3.2839,3.3623,3.3807,3.388,3.4137,3.4394,0.0,0.0,0.0,0.0,0.0,0.0,0.0,0.0,0.0,0.0,0.0,0.0,0.0,0.0,0.0,0.0,0.0,6.4347,6.3172,6.163,6.1484,6.1374,6.1227,6.1227,6.0566,5.9184,5.9074,5.8657,5.7997,5.7997,5.7997,0.0,0.0,0.0,5.8632,5.9009,5.9176,5.9176,5.9176,5.9176,5.9176,5.9176,5.9176,5.9176,5.9176,5.9101,5.9025,5.9138,5.8143,5.7166,5.8725,5.818,5.7354,5.88,5.9284,5.9389,5.9389,5.9389,5.9389,5.9389,5.9389,5.9389,5.9389,5.9389,5.921,5.8627,5.7429,5.6266,5.5536,5.495,5.4289,5.3314,5.3885,5.4106,5.3298,5.3203,5.3203,5.3203,5.1867,5.1242,5.194,4.9958,4.8636,4.8526,4.8379,4.8306,4.8306,4.8306,4.8306,4.8306,4.8306,4.8306,4.8306,4.8306,4.8306,4.8306,4.8306,4.8306,3.0124,3.003,2.9821,3.0316,3.0501,3.0902,3.2195,3.2548,3.2839,3.3623,3.3807,3.4247,3.5642,3.7037,3.8432,0.0,0.0,0.0,0.0,0.0,0.0,0.0,0.0,0.0,0.0,0.0,0.0,0.0,0.0,0.0,0.0,6.3466,6.2585,6.163,6.0933,6.0272,5.9588,5.9551,5.9441,5.9184,5.851,5.8107,5.7997,5.7997,5.7997,0.0,0.0,5.8097,5.8119,5.8209,5.8194,5.8194,5.8194,5.8194,5.8194,5.8194,5.8194,5.8194,5.8194,5.7752,5.7309,5.7973,5.7567,5.7014,5.7936,5.8047,5.7899,5.812,5.8776,5.9389,5.9389,5.9389,5.9389,5.9389,5.9389,5.9389,5.9389,5.9389,5.906,5.79,5.7484,5.6729,5.4911,5.506,5.4913,5.3445,5.3885,5.4106,5.3298,5.3203,5.3203,5.3203,5.238,5.1867,5.1977,5.1022,5.0141,4.9463,4.871,4.8306,4.8306,4.8306,4.8306,4.8306,4.8306,4.8306,4.8306,4.8306,4.8306,4.8306,4.8306,4.8306,3.0038,3.0122,3.0402,3.2787,3.1846,3.0715,3.191,3.2379,3.2839,3.3623,3.344,3.3917,3.6501,0.0,4.0671,4.6636,0.0,0.0,0.0,0.0,0.0,0.0,0.0,0.0,0.0,0.0,0.0,0.0,0.0,0.0,0.0,0.0,6.1153,6.0346,5.9942,5.9391,5.8547,5.8547,5.8547,5.8547,5.818,5.7997,5.7997,5.7997,5.7997,5.7997,0.0,5.7997,5.7997,5.7997,5.7997,5.796,5.7519,5.7336,5.7336,5.7336,5.7629,5.7997,5.7997,5.7776,5.7519,5.7886,5.7446,5.6969,5.7776,5.7703,5.7446,5.7886,5.8326,5.8652,5.8652,5.8652,5.8652,5.8652,5.8652,5.8652,5.8652,5.8652,5.8459,5.7873,5.7402,5.6799,5.5875,5.6014,5.5868,5.4656,5.4803,5.4766,5.3959,5.3482,5.3203,5.3203,5.2491,5.216,5.2601,5.1499,5.0472,4.9647,4.8783,4.8306,4.8306,4.8306,4.8306,4.8306,4.8306,4.8306,4.8306,4.8306,4.8306,4.8306,4.8306,4.8563,2.9698,3.003,3.0692,3.3569,3.2698,3.1715,3.4006,3.4716,3.5188,3.6376,3.6009,3.6252,3.8961,4.0744,0.0,5.172,0.0,0.0,0.0,0.0,0.0,0.0,0.0,0.0,0.0,0.0,0.0,0.0,0.0,0.0,0.0,0.0,5.9832,5.9221,5.9001,5.8621,5.7997,5.7997,5.7997,5.7997,5.7997,5.7997,5.7997,5.7997,5.7997,5.7997,5.7813,5.7703,5.7703,5.7703,5.7703,5.7666,5.7042,5.6822,5.6822,5.6822,5.7299,5.7997,5.7997,5.7997,5.7997,5.7997,5.7593,5.7189,5.7813,5.7556,5.7226,5.7813,5.7997,5.7997,5.7997,5.7997,5.7997,5.7997,5.7997,5.7997,5.7997,5.7997,5.7923,5.7776,5.7373,5.6969,5.6602,5.6822,5.6748,5.5757,5.5757,5.55,5.4509,5.3849,5.3408,5.3203,5.2637,5.2527,5.313,5.1903,5.0802,5.0198,4.937,4.882,4.86,4.86,4.8526,4.8306,4.8306,4.8306,4.8306,4.8489,4.86,4.86,4.882,4.9224,2.8973,2.9577,3.003,3.0107,3.2029,3.544,4.1319,4.2119,4.2249,4.4562,4.4378,4.4121,4.5112,4.8453,0.0,0.0,0.0,0.0,0.0,0.0,0.0,0.0,0.0,0.0,0.0,0.0,0.0,0.0,0.0,0.0,0.0,0.0,0.0,5.9184,5.8474,5.807,5.7997,5.7997,5.7997,5.7997,5.7997,5.7997,5.7997,5.7997,5.7997,5.796,5.7226,5.6895,5.6895,5.6895,5.6895,5.6895,5.6822,5.6822,5.6822,5.6822,5.7299,5.7997,5.7997,5.7997,5.7997,5.7997,5.796,5.7923,5.796,5.796,5.7923,5.796,5.7997,5.7997,5.7997,5.7997,5.7997,5.7997,5.7997,5.7997,5.7997,5.7997,5.7776,5.7042,5.7446,5.7446,5.5941,5.6932,5.7373,5.5831,5.6235,5.6161,5.4583,5.4363,5.4032,5.3277,5.313,5.3151,5.3203,5.2417,5.1867,5.183,5.1059,5.0288,4.9537,4.95,4.9133,4.8306,4.8306,4.8306,4.8306,4.9114,4.95,4.9537,5.0251,5.0655,2.9698,3.1318,3.3204,3.4879,3.5783,3.6998,3.9858,4.1594,4.3257,4.546,4.6067,4.6746,4.86,0.0,5.5464,0.0,0.0,0.0,0.0,0.0,0.0,0.0,0.0,0.0,0.0,0.0,0.0,0.0,0.0,0.0,0.0,0.0,0.0,5.8437,5.8143,5.7776,5.7262,5.7262,5.7005,5.6492,5.7005,5.7005,5.6492,5.6492,5.6492,5.6492,5.6198,5.6051,5.6051,5.6051,5.6051,5.5978,5.55,5.5611,5.6051,5.6051,5.6859,5.7997,5.7997,5.7997,5.7997,5.7997,5.7997,5.7997,5.7997,5.7997,5.7997,5.7997,5.7997,5.7997,5.7997,5.7997,5.7997,5.7997,5.7997,5.7997,5.7997,5.7997,5.7923,5.7593,5.7776,5.7813,5.7189,5.7593,5.7776,5.7189,5.6932,5.6418,5.528,5.4693,5.4106,5.3277,5.3203,5.3203,5.3203,5.2931,5.2747,5.2747,5.1536,5.0435,4.9647,4.961,4.9206,4.8343,4.882,4.9114,4.9114,4.9921,5.0362,5.0362,5.0655,5.1059,3.0101,3.2324,3.4969,3.6831,3.829,3.9727,4.1344,4.2606,4.4531,4.851,4.9591,5.0068,5.1022,0.0,0.0,0.0,0.0,0.0,0.0,0.0,0.0,0.0,0.0,0.0,0.0,0.0,0.0,0.0,0.0,0.0,0.0,0.0,0.0,0.0,5.774,5.7373,5.6822,5.6565,5.6014,5.5207,5.5794,5.5904,5.5596,5.5596,5.5596,5.5574,5.5317,5.5207,5.5207,5.5207,5.5207,5.517,5.4876,5.495,5.528,5.5794,5.6675,5.7666,5.7923,5.7997,5.7997,5.7997,5.7997,5.7997,5.7997,5.7997,5.7997,5.7997,5.7997,5.7997,5.7997,5.7997,5.7997,5.7997,5.7997,5.7997,5.7997,5.7997,5.7997,5.7997,5.7997,5.7997,5.7997,5.7997,5.7997,5.7997,5.7336,5.6528,5.5684,5.4913,5.4106,5.3277,5.3203,5.3203,5.3203,5.3203,5.3203,5.3203,5.216,5.1206,5.0381,5.0381,4.9958,4.9114,4.9664,4.9978,4.9978,5.0802,5.1169,5.1169,5.1426,5.1867,3.0038,3.2268,3.4534,3.4323,3.8777,4.4106,4.7555,4.6471,4.7058,5.5097,5.6161,5.4876,5.2491,5.3995,0.0,0.0,0.0,0.0,0.0,0.0,0.0,0.0,0.0,0.0,0.0,0.0,0.0,0.0,0.0,0.0,0.0,0.0,0.0,0.0,5.7226,5.6785,5.6785,5.5978,5.517,5.4399,5.4399,5.4803,5.5596,5.5596,5.5596,5.5537,5.473,5.4399,5.4399,5.4399,5.4399,5.4473,5.5244,5.5097,5.4583,5.6198,5.6785,5.6895,5.7703,5.7997,5.7997,5.7997,5.7997,5.7997,5.796,5.796,5.7997,5.7997,5.7997,5.7997,5.7997,5.7997,5.7997,5.7997,5.7997,5.7997,5.7997,5.7997,5.7997,5.7997,5.7997,5.7997,5.7997,5.7997,5.7997,5.7997,5.7336,5.6528,5.5684,5.4876,5.4069,5.3277,5.3203,5.3203,5.3203,5.3203,5.3203,5.3203,5.3203,5.2858,5.2013,5.1977,5.161,5.0839,5.0802,5.0802,5.0802,5.161,5.2013,5.2013,5.2821,5.3203,3.3278,3.6351,3.9554,4.0313,4.2418,4.5349,4.9491,4.9434,4.9603,5.3472,5.6345,5.7593,5.5721,5.7336,0.0,0.0,0.0,0.0,0.0,0.0,0.0,0.0,0.0,0.0,0.0,0.0,0.0,0.0,0.0,0.0,0.0,0.0,0.0,0.0,5.6932,5.6271,5.5133,5.4876,5.4363,5.3555,5.3555,5.3702,5.3922,5.3922,5.3922,5.3922,5.3665,5.3555,5.3555,5.3555,5.3555,5.3592,5.3812,5.4106,5.4509,5.5574,5.5941,5.6161,5.7519,5.7629,5.7152,5.7152,5.7152,5.7042,5.6492,5.6712,5.7152,5.7152,5.7556,5.7997,5.7997,5.7997,5.7997,5.7997,5.7997,5.7997,5.7997,5.7997,5.7997,5.7997,5.7997,5.7997,5.7997,5.7997,5.7997,5.7997,5.7336,5.6308,5.4913,5.4069,5.3482,5.3203,5.3203,5.3203,5.3203,5.3203,5.3203,5.3203,5.3203,5.2858,5.2013,5.1977,5.161,5.0839,5.1353,5.1646,5.1646,5.2454,5.2858,5.2858,5.3115,5.3203,3.4579,3.8102,4.2094,4.3468,4.548,4.7904,5.0897,5.2673,5.4051,5.5324,5.7753,5.9501,5.8841,5.9391,0.0,0.0,0.0,0.0,0.0,0.0,0.0,0.0,0.0,0.0,0.0,0.0,0.0,0.0,0.0,0.0,0.0,0.0,0.0,0.0,5.6198,5.539,5.4399,5.4069,5.3702,5.3203,5.3203,5.3203,5.3203,5.3203,5.3203,5.3203,5.3203,5.3203,5.3203,5.3203,5.3203,5.3203,5.3555,5.3775,5.4069,5.517,5.539,5.5317,5.6602,5.6712,5.6308,5.6308,5.6308,5.6308,5.6124,5.6198,5.6455,5.7116,5.7409,5.7593,5.7923,5.7997,5.7997,5.7997,5.7997,5.7997,5.7997,5.7997,5.7997,5.7997,5.7997,5.7997,5.7997,5.7997,5.7997,5.7997,5.7042,5.5757,5.4142,5.3518,5.3203,5.3203,5.3203,5.3203,5.3203,5.3203,5.3203,5.3203,5.3203,5.3004,5.2491,5.2491,5.2234,5.1756,5.2234,5.2491,5.2491,5.2968,5.3203,5.3203,5.3203,5.3203,3.4872,3.8485,4.2873,4.4782,4.8379,5.1683,5.2454,5.6124,5.9148,5.8561,0.0,6.0639,6.108,0.0,0.0,0.0,0.0,0.0,0.0,0.0,0.0,0.0,0.0,0.0,0.0,0.0,0.0,0.0,0.0,0.0,0.0,0.0,0.0,5.6602,5.517,5.4363,5.4289,5.3592,5.3203,0.0,5.3203,5.3203,5.3203,5.3203,5.3203,5.3203,5.3203,5.3203,5.3203,5.3203,5.3203,5.3298,5.3995,5.3849,5.3408,5.4913,5.4987,5.4436,5.528,5.5559,5.5486,5.5486,5.5486,5.5611,5.6271,5.6014,5.5794,5.7336,5.7299,5.7005,5.7776,5.7997,5.7997,5.7997,5.7997,5.7997,5.7997,5.7997,5.7997,5.7997,5.7997,5.7997,5.7997,5.7997,5.796,5.7813,5.6455,5.495,5.3387,5.3203,5.3203,5.3203,5.3203,5.3203,5.3203,5.3203,5.3203,5.3203,5.3203,5.3203,5.3203,5.3203,5.3203,5.3203,5.3203,5.3203,5.3203,5.3203,5.3203,5.3203,5.3203,5.3203,3.8329,4.1086,4.4232,4.8453,5.3004,5.6675,5.7483,5.8951,5.8731,5.3665,5.7262,6.0603,0.0,0.0,0.0,0.0,0.0,0.0,0.0,0.0,0.0,0.0,0.0,0.0,0.0,0.0,0.0,0.0,0.0,0.0,0.0,0.0,0.0,5.495,5.4583,5.4106,5.3482,5.3277,5.3203,0.0,5.3203,5.3203,5.3203,5.3203,5.3203,5.3203,5.3203,5.3203,5.3203,5.3203,5.3203,5.3203,5.3408,5.3371,5.3314,5.4289,5.4142,5.3665,5.5097,5.517,5.4656,5.4656,5.4656,5.4583,5.4106,5.4289,5.484,5.5831,5.6455,5.7005,5.7776,5.7997,5.7997,5.7997,5.7997,5.7997,5.7997,5.7997,5.7997,5.7997,5.7997,5.7997,5.7997,5.7997,5.7556,5.633,5.528,5.4289,5.3335,5.3203,5.3203,5.3203,5.3203,5.3203,5.3203,5.3203,5.3203,5.3203,5.3203,5.3203,5.3203,5.3203,5.3203,5.3203,5.3203,5.3203,5.3203,5.3203,5.3203,5.3203,5.3203,5.3203,3.8403,4.1477,4.5443,5.1096,5.4987,5.7629,5.8437,5.9245,5.8767,5.5023,5.785,0.0,0.0,0.0,0.0,0.0,0.0,0.0,0.0,0.0,0.0,0.0,0.0,0.0,0.0,0.0,0.0,0.0,0.0,0.0,0.0,5.5464,5.4656,5.3849,5.3445,5.3041,5.2637,5.2234,5.2234,5.2637,5.2637,5.2821,5.3203,5.3203,5.3203,5.3203,5.3203,5.3203,5.3203,5.3203,5.3203,5.3203,5.3203,5.3203,5.324,5.3665,5.3555,5.3314,5.4179,5.4179,5.3849,5.3849,5.3849,5.3812,5.3775,5.3812,5.4142,5.5721,5.6198,5.6492,5.7703,5.7997,5.7997,5.7997,5.7997,5.7997,5.7997,5.7997,5.7997,5.7997,5.7997,5.7997,5.7997,5.7666,5.7005,5.5757,5.4913,5.4106,5.3298,5.3203,5.3203,5.3203,5.3203,5.3203,5.3203,5.3203,5.3203,5.3203,5.3203,5.3203,5.3203,5.3203,5.3203,5.3203,5.3203,5.3203,5.3203,5.3203,5.3203,5.3203,5.3203,5.3203,3.7199,4.1222,4.6526,5.2491,5.5207,5.6602,5.7409,5.8217,5.8597,5.7923,5.9061,0.0,0.0,0.0,0.0,0.0,0.0,0.0,0.0,0.0,0.0,0.0,0.0,0.0,0.0,0.0,0.0,0.0,0.0,0.0,5.517,5.4399,5.3628,5.2821,5.2123,5.1793,5.1793,5.1132,5.1132,5.1793,5.1793,5.2197,5.3004,5.3004,5.3057,5.3203,5.3203,5.3203,5.3203,5.3203,5.3203,5.3203,5.3203,5.3203,5.3203,5.3203,5.3203,5.3203,5.3203,5.3203,5.3203,5.3203,5.3203,5.3314,5.3995,5.3739,5.3644,5.5941,5.6088,5.5978,5.7556,5.7997,5.7997,5.7997,5.7997,5.7997,5.7997,5.7997,5.7997,5.7997,5.7997,5.7997,5.7997,5.7336,5.6565,5.5904,5.5133,5.4363,5.3702,5.3628,5.3628,5.3628,5.3628,5.3555,5.3445,5.3555,5.3555,5.3445,5.3555,5.3555,5.3408,5.3408,5.3314,5.3203,5.3203,5.3203,5.3203,5.3203,5.3203,5.3203,5.3203,5.3203,3.6905,4.2029,4.7663,5.1389,5.3518,5.4913,5.5721,5.6528,5.7116,0.0,0.0,0.0,0.0,0.0,0.0,0.0,0.0,0.0,0.0,0.0,0.0,0.0,0.0,0.0,0.0,0.0,0.0,0.0,0.0,0.0,5.3555,5.2747,5.194,5.1169,5.1022,5.0949,5.0949,5.0839,5.0839,5.0949,5.0949,5.1389,5.216,5.216,5.2527,5.3203,5.3203,5.3203,5.3203,5.3203,5.3203,5.3203,5.3203,5.3203,5.3203,5.3203,5.3203,5.3203,5.3203,5.3203,5.3203,5.3203,5.3203,5.3203,5.3335,5.3277,5.3555,5.528,5.5706,5.5978,5.7556,5.7997,5.7997,5.7997,5.7997,5.7997,5.7997,5.7997,5.7997,5.7997,5.7997,5.7997,5.7997,5.7336,5.6748,5.6675,5.5941,5.539,5.528,5.528,5.528,5.528,5.528,5.4987,5.4289,5.4876,5.4987,5.4289,5.4876,5.495,5.4289,5.4252,5.3922,5.3203,5.3203,5.3203,5.3203,5.3203,5.3203,5.3203,5.3203,5.3203,3.6831,4.1222,4.5736,4.8563,5.1169,5.3371,5.462,5.5537,5.6124,0.0,0.0,0.0,0.0,0.0,0.0,0.0,0.0,0.0,0.0,0.0,0.0,0.0,0.0,0.0,0.0,0.0,0.0,0.0,0.0,5.3371,5.2564,5.2197,5.1426,5.0178,5.0105,5.0105,5.0105,4.9627,4.9627,5.0068,5.0105,5.0545,5.1316,5.1316,5.1756,5.2527,5.2527,5.2527,5.2527,5.2527,5.2784,5.3203,5.3203,5.3203,5.3203,5.3203,5.3203,5.3203,5.3203,5.3203,5.3203,5.3203,5.3203,5.3203,5.3203,5.3203,5.3555,5.5133,5.5596,5.5978,5.7556,5.7997,5.7997,5.7997,5.7997,5.7997,5.7997,5.7997,5.7997,5.7997,5.7997,5.7997,5.7997,5.7336,5.6822,5.6822,5.6124,5.5596,5.5596,5.5596,5.5596,5.5596,5.5596,5.5486,5.5097,5.539,5.5427,5.5097,5.539,5.5427,5.5097,5.506,5.4693,5.3885,5.3424,5.3203,5.3203,5.3203,5.3203,5.3203,5.3203,5.3203,3.6574,3.9549,4.2653,4.548,4.8196,5.0692,5.2711,0.0,5.473,0.0,0.0,0.0,0.0,0.0,0.0,0.0,0.0,0.0,0.0,0.0,0.0,0.0,0.0,0.0,0.0,0.0,0.0,0.0,0.0,5.2527,5.172,5.1499,5.0749,4.9317,4.928,4.928,4.928,4.8636,4.86,4.9187,4.9224,4.9701,5.0508,5.0508,5.0802,5.1389,5.161,5.1683,5.172,5.1903,5.2344,5.2931,5.3093,5.3203,5.3203,5.3203,5.3203,5.3203,5.3203,5.3203,5.3203,5.3203,5.3203,5.3203,5.3203,5.3203,5.3482,5.4913,5.5427,5.5904,5.7336,5.785,5.7997,5.7997,5.7997,5.7997,5.7997,5.7997,5.7997,5.7997,5.7997,5.7997,5.7997,5.7483,5.7116,5.7116,5.6602,5.6198,5.6198,5.6198,5.6198,5.6198,5.6198,5.6124,5.5904,5.6088,5.6124,5.5904,5.6088,5.6124,5.5904,5.5904,5.5537,5.473,5.3922,5.3387,5.3203,5.3203,5.3203,5.3203,5.3203,5.3203,3.5899,3.7088,3.8778,4.2707,4.4378,4.592,0.0,0.0,0.0,0.0,0.0,0.0,0.0,0.0,0.0,0.0,0.0,0.0,0.0,0.0,0.0,0.0,0.0,0.0,0.0,0.0,0.0,0.0,0.0,5.172,5.0912,5.0141,4.9297,4.8416,4.8379,4.8379,4.8379,4.8343,4.8343,4.8379,4.8379,4.882,4.9647,4.9647,4.9684,4.9757,5.0508,5.0875,5.0912,5.1683,5.2013,5.2123,5.2894,5.3203,5.3203,5.3203,5.3203,5.3203,5.3203,5.3203,5.3203,5.3203,5.3203,5.3203,5.3203,5.3203,5.3408,5.4216,5.4987,5.5794,5.6638,5.7446,5.7997,5.7997,5.7997,5.7997,5.7997,5.7997,5.7997,5.7997,5.7997,5.7997,5.7997,5.796,5.7923,5.7923,5.7886,5.7886,5.7886,5.7886,5.7886,5.7886,5.7886,5.7556,5.6822,5.7446,5.7556,5.6785,5.7446,5.7519,5.6785,5.6748,5.6345,5.5537,5.473,5.3959,5.3203,5.3203,5.3203,5.3203,5.3203,5.3203,3.3917,3.5312,3.7088,3.8505,4.0634,4.282,4.4525,4.6544,0.0,0.0,0.0,0.0,0.0,0.0,0.0,0.0,0.0,0.0,0.0,0.0,0.0,0.0,0.0,0.0,0.0,0.0,0.0,0.0,0.0,0.0,5.0068,4.9224,4.8379,4.7553,4.7021,4.6764,4.6764,4.6764,4.7021,4.7516,4.7516,4.7976,4.8783,4.8783,4.8783,4.8783,4.9077,4.9517,5.0088,5.0912,5.1536,5.2087,5.2894,5.3203,5.3203,5.3203,5.3203,5.3203,5.3203,5.3203,5.3203,5.3203,5.3203,5.3203,5.3203,5.3203,5.335,5.4179,5.4987,5.5794,5.6602,5.7409,5.7997,5.7997,5.7997,5.7997,5.7997,5.7997,5.7997,5.7997,5.7997,5.7997,5.7997,5.7997,5.7997,5.7997,5.7997,5.7997,5.7997,5.7997,5.7997,5.7997,5.7997,5.7886,5.7593,5.7813,5.7886,5.7593,5.785,5.7886,5.7593,5.7556,5.7189,5.6381,5.6088,5.528,5.3959,5.3445,5.3203,5.3203,5.3203,5.3203,3.3146,3.4211,3.5605,3.6156,3.7918,3.9863,4.1185,0.0,0.0,0.0,0.0,0.0,0.0,0.0,0.0,0.0,0.0,0.0,0.0,0.0,0.0,0.0,0.0,0.0,0.0,0.0,0.0,0.0,0.0,0.0,4.961,4.8269,4.7241,4.6709,4.6177,4.5883,4.5883,4.5883,4.6177,4.6709,4.6709,4.7113,4.7883,4.7883,4.8049,4.8306,4.8306,4.8636,4.9224,5.0362,5.1096,5.1683,5.2784,5.3203,5.3203,5.3203,5.3203,5.3203,5.3203,5.3203,5.3203,5.3203,5.3203,5.3203,5.3203,5.3203,5.3314,5.3849,5.4766,5.5721,5.6271,5.7189,5.7997,5.7997,5.7997,5.7997,5.7997,5.7997,5.7997,5.7997,5.7997,5.7997,5.7997,5.7997,5.7997,5.7997,5.7997,5.7997,5.7997,5.7997,5.7997,5.7997,5.7997,5.7997,5.7997,5.7997,5.7997,5.7997,5.7997,5.7997,5.7997,5.7997,5.774,5.7226,5.6932,5.6271,5.5207,5.4142,5.3482,5.3203,5.3203,5.3203,0.0,0.0,0.0,0.0,0.0,0.0,3.9255,0.0,0.0,0.0,0.0,0.0,0.0,0.0,0.0,0.0,0.0,0.0,0.0,0.0,0.0,0.0,0.0,0.0,0.0,0.0,0.0,0.0,0.0,4.86,4.9463,4.7168,4.5847,4.581,4.581,4.581,4.581,4.581,4.5847,4.5847,4.5847,4.6287,4.7076,4.7076,4.7516,4.8269,4.8306,4.8306,4.8453,5.0068,5.0765,5.0949,5.2564,5.3167,5.3203,5.3203,5.3203,5.3203,5.3203,5.3203,5.3203,5.3203,5.3203,5.3203,5.3203,5.3203,5.3203,5.3203,5.4326,5.5596,5.5611,5.6822,5.7997,5.7997,5.7997,5.7997,5.7997,5.7997,5.7997,5.7997,5.7997,5.7997,5.7997,5.7997,5.7997,5.7997,5.7997,5.7997,5.7997,5.7997,5.7997,5.7997,5.7997,5.7997,5.7997,5.7997,5.7997,5.7997,5.7997,5.7997,5.7997,5.7997,5.7997,5.7997,5.7226,5.6822,5.6822,5.5207,5.4032,5.3298,5.324,5.3203,3.3807,0.0,0.0,0.0,0.0,0.0,0.0,0.0,0.0,0.0,0.0,0.0,0.0,0.0,0.0,0.0,0.0,0.0,0.0,0.0,0.0,0.0,0.0,0.0,0.0,0.0,0.0,0.0,4.6691,4.6654,4.6911,4.5736,4.4782,4.4158,4.4158,4.4158,4.4158,4.4158,4.4452,4.5039,4.5039,4.5443,4.625,4.6819,4.7223,4.7443,4.803,4.8306,4.8379,4.9481,5.0251,5.0912,5.194,5.2711,5.3203,5.3203,5.3203,5.3203,5.3203,5.3203,5.3203,5.3203,5.3203,5.3203,5.3203,5.3203,5.3203,5.3203,5.3959,5.4987,5.6161,5.7226,5.7997,5.7997,5.7997,5.7997,5.7997,5.7997,5.7997,5.7997,5.7997,5.7997,5.7997,5.7997,5.7997,5.7997,5.7997,5.7997,5.7997,5.7997,5.7997,5.7997,5.7997,5.7997,5.7997,5.7997,5.7997,5.7997,5.7997,5.7997,5.7997,5.7997,5.7997,5.7997,5.7776,5.7373,5.6822,5.5757,5.5133,5.4913,5.4326,5.3775,0.0,0.0,0.0,0.0,0.0,0.0,3.5018,3.5789,0.0,0.0,0.0,0.0,0.0,0.0,0.0,0.0,0.0,0.0,0.0,0.0,0.0,0.0,0.0,0.0,0.0,0.0,0.0,4.5883,4.559,4.5259,4.4929,4.4782,4.4342,4.3551,4.3515,4.3515,4.3515,4.3515,4.3718,4.4195,4.4195,4.4635,4.5406,4.5865,4.6269,4.6654,4.7095,4.7498,4.7846,4.8343,4.926,5.0398,5.1536,5.227,5.2747,5.3078,5.3203,5.3203,5.3203,5.3203,5.3203,5.3203,5.3203,5.3203,5.3203,5.3203,5.3203,5.3203,5.3775,5.484,5.6785,5.7409,5.7593,5.7923,5.7997,5.7997,5.7997,5.7997,5.7997,5.7997,5.7997,5.7997,5.7997,5.7997,5.7997,5.7997,5.7997,5.7997,5.7997,5.7997,5.7997,5.7997,5.7997,5.7997,5.7997,5.7997,5.7997,5.7997,5.7997,5.7997,5.7997,5.7997,5.7997,5.7997,5.7997,5.7776,5.7299,5.6492,5.5941,5.5574,5.5097,5.4656,0.0,0.0,0.0,0.0,0.0,0.0,3.4027,3.5092,3.6523,0.0,0.0,0.0,0.0,0.0,0.0,0.0,0.0,0.0,0.0,0.0,0.0,0.0,0.0,0.0,0.0,4.5626,4.5626,4.5626,4.4966,4.4268,4.3551,4.4195,4.4232,4.3515,4.3515,4.3515,4.3515,4.3515,4.3515,4.3515,4.3515,4.3864,4.4544,4.4672,4.5112,4.5773,4.5957,4.6434,4.7113,4.7186,4.8159,4.9757,5.1242,5.1903,5.2087,5.2894,5.3203,5.3203,5.3203,5.3203,5.3203,5.3203,5.3203,5.3203,5.3203,5.3203,5.3203,5.3203,5.3775,5.4913,5.7152,5.7262,5.7005,5.7813,5.7997,5.7997,5.7997,5.7997,5.7997,5.7997,5.7997,5.7997,5.7997,5.7997,5.7997,5.7997,5.7997,5.7997,5.7997,5.7997,5.7997,5.7997,5.7997,5.7997,5.7997,5.7997,5.7997,5.7997,5.7997,5.7997,5.7997,5.7997,5.7997,5.7997,5.7997,5.7997,5.7997,5.7299,5.6528,5.5721,5.5721,5.5684,0.0,0.0,0.0,0.0,0.0,0.0,3.5495,3.5018,3.5128,0.0,0.0,0.0,0.0,0.0,0.0,0.0,0.0,0.0,0.0,0.0,0.0,0.0,0.0,0.0,0.0,4.3975,4.3975,4.3975,4.3828,4.3644,4.3515,4.3662,4.3644,4.3515,4.3515,4.3515,4.3515,4.3515,4.3515,4.3515,4.3515,4.3588,4.3754,4.4415,4.4764,4.5002,4.6305,4.6966,4.7149,4.7773,4.8673,4.9721,5.0655,5.1426,5.2087,5.2894,5.3203,5.3203,5.3203,5.3203,5.3203,5.3203,5.3203,5.3203,5.3203,5.3203,5.3203,5.3203,5.3775,5.4656,5.5757,5.6418,5.7005,5.7813,5.7997,5.7997,5.7997,5.7997,5.7997,5.7997,5.7997,5.7997,5.7997,5.7997,5.7997,5.7997,5.7997,5.7997,5.7997,5.7997,5.7997,5.7997,5.7997,5.7997,5.7997,5.7997,5.7997,5.7997,5.7997,5.7997,5.7997,5.7997,5.7997,5.7997,5.7997,5.7997,5.7997,5.785,5.7336,5.6565,5.6565,5.6235,0.0,0.0,0.0,3.3807,0.0,0.0,0.0,3.4394,3.4504,0.0,0.0,0.0,0.0,0.0,0.0,0.0,0.0,0.0,0.0,0.0,0.0,0.0,0.0,0.0,0.0,4.3515,4.3515,4.3515,4.3515,4.3515,4.3515,4.3515,4.3515,4.3515,4.3515,4.3515,4.3515,4.3515,4.3515,4.3515,4.3515,4.3515,4.3497,4.3901,4.4085,4.4158,4.4966,4.5773,4.6544,4.6948,4.7829,4.904,4.9848,5.0692,5.1499,5.2307,5.2858,5.3203,5.3203,5.3203,5.3203,5.3203,5.3203,5.3203,5.3203,5.3203,5.3277,5.3702,5.3812,5.4179,5.5794,5.6198,5.6492,5.7703,5.7997,5.7997,5.7997,5.7997,5.7997,5.7997,5.7997,5.7997,5.7997,5.7997,5.7997,5.7997,5.7997,5.7997,5.7997,5.7997,5.7997,5.7997,5.7997,5.7997,5.7997,5.7997,5.7997,5.7997,5.7997,5.7997,5.7997,5.7997,5.7997,5.7997,5.7997,5.7997,5.7997,5.7997,5.7776,5.7409,5.7409,5.7189,0.0,0.0,0.0,0.0,0.0,3.4027,0.0,0.0,0.0,3.5752,0.0,0.0,0.0,0.0,0.0,0.0,0.0,0.0,0.0,0.0,0.0,0.0,0.0,0.0,0.0,4.3331,4.3515,4.3515,4.3515,4.3515,4.3515,4.3515,4.3515,4.3515,4.3515,4.3515,4.3515,4.3515,4.3515,4.3515,4.3515,4.3515,4.3515,4.3515,4.3515,4.3515,4.3644,4.4452,4.57,4.5993,4.6911,4.8159,4.9187,4.9994,5.0692,5.1646,5.2417,5.3004,5.313,5.3203,5.3203,5.3203,5.3203,5.3203,5.3203,5.3203,5.3314,5.3995,5.3702,5.3717,5.5978,5.6088,5.6037,5.7629,5.7997,5.7997,5.7997,5.7997,5.7997,5.7997,5.7997,5.7997,5.7997,5.7997,5.7997,5.7997,5.7997,5.7997,5.7997,5.7997,5.7997,5.7997,5.7997,5.7997,5.7997,5.7997,5.7997,5.7997,5.7997,5.7997,5.7997,5.7997,5.7997,5.7997,5.7997,5.7997,5.7997,5.7997,5.7997,5.7997,5.7997,5.7997,0.0,0.0,0.0,0.0,3.4344,0.0,0.0,0.0,3.4931,3.5114,0.0,0.0,0.0,0.0,0.0,0.0,0.0,0.0,0.0,0.0,0.0,0.0,0.0,0.0,0.0,0.0,4.3515,4.3515,4.3515,4.3515,4.3515,4.3515,4.3515,4.3515,4.3515,4.3515,4.3515,4.3515,4.3515,4.3515,4.3515,4.3515,4.3515,4.3515,4.3515,4.3551,4.4268,4.4672,4.4948,4.6379,4.7076,4.7369,4.8967,4.9647,4.9941,5.1446,5.205,5.2234,5.2968,5.3203,5.3203,5.3203,5.3203,5.3203,5.3203,5.3203,5.3203,5.3314,5.3298,5.3592,5.528,5.5647,5.6037,5.7629,5.7997,5.7997,5.7997,5.7997,5.7997,5.7997,5.7997,5.7997,5.7997,5.7997,5.7997,5.7997,5.7997,5.7997,5.7997,5.7997,5.7997,5.7997,5.7997,5.7997,5.7997,5.7997,5.7997,5.7997,5.7997,5.7997,5.7997,5.7997,5.7997,5.7997,5.7997,5.7997,5.7997,5.7997,5.7997,5.7997,5.7997,5.7997,0.0,0.0,0.0,0.0,0.0,0.0,0.0,0.0,3.5591,0.0,0.0,0.0,0.0,0.0,0.0,0.0,0.0,0.0,0.0,0.0,0.0,0.0,0.0,0.0,0.0,0.0,0.0,0.0,0.0,4.2103,4.2103,4.2983,4.3515,4.3515,4.3515,4.3515,4.3515,4.3515,4.3515,4.3515,4.3515,4.3515,4.3515,4.3515,4.3515,4.3515,4.3864,4.4268,4.4728,4.5425,4.6269,4.7186,4.7865,4.8746,4.9757,5.0875,5.161,5.2123,5.2931,5.3203,5.3203,5.3203,5.3203,5.3203,5.3203,5.3555,5.3922,5.3922,5.3922,5.4289,5.5868,5.5941,5.6037,5.7629,5.7997,5.7997,5.7997,5.7997,5.7997,5.7997,5.7997,5.7997,5.7997,5.7997,5.7997,5.7997,5.7997,5.7997,5.7997,5.7997,5.7997,5.7997,5.7997,5.7997,5.7997,5.7997,5.7997,5.7997,5.7997,5.7997,5.7997,5.7997,5.7997,5.7997,5.7997,5.7997,5.7997,5.7997,5.7997,5.7997,5.7997,5.7997,3.6604,0.0,0.0,0.0,0.0,0.0,0.0,0.0,0.0,0.0,0.0,0.0,0.0,0.0,0.0,0.0,0.0,0.0,0.0,0.0,0.0,0.0,0.0,0.0,0.0,0.0,0.0,3.9697,4.0055,4.0434,4.0873,4.2162,4.302,4.3515,4.3515,4.3515,4.3515,4.3515,4.3515,4.3515,4.3515,4.3515,4.3515,4.3515,4.3515,4.3515,4.3515,4.3828,4.4415,4.4856,4.5718,4.6819,4.7259,4.8159,4.937,5.0435,5.1169,5.183,5.2858,5.3203,5.3203,5.3203,5.3203,5.3203,5.3203,5.3775,5.4399,5.4399,5.4546,5.506,5.6455,5.6381,5.6271,5.7666,5.7997,5.7997,5.7997,5.7997,5.7997,5.7997,5.7997,5.7997,5.7997,5.7997,5.7997,5.7997,5.7997,5.7997,5.7997,5.7997,5.7997,5.7997,5.7997,5.7997,5.7997,5.7997,5.7997,5.7997,5.7997,5.7997,5.7997,5.7997,5.7997,5.7997,5.7997,5.7997,5.7997,5.7997,5.7997,5.7997,5.7997,5.7997,0.0,0.0,0.0,3.8285,0.0,0.0,0.0,0.0,3.6303,0.0,0.0,0.0,0.0,0.0,0.0,0.0,0.0,0.0,0.0,0.0,0.0,0.0,0.0,0.0,0.0,0.0,0.0,3.6435,3.743,3.8772,4.0347,4.0912,4.1882,4.3441,4.3515,4.3515,4.3515,4.3515,4.3515,4.3515,4.3515,4.3515,4.3515,4.3515,4.3515,4.3515,4.3515,4.3497,4.3662,4.5223,4.5883,4.6104,4.7645,4.8306,4.8526,5.0178,5.0839,5.1059,5.2674,5.3203,5.3203,5.3203,5.3203,5.3203,5.3203,5.3775,5.4399,5.4399,5.495,5.5757,5.6602,5.6785,5.6969,5.7813,5.7997,5.7997,5.7997,5.7997,5.7997,5.7997,5.7997,5.7997,5.7997,5.7997,5.7997,5.7997,5.7997,5.7997,5.7997,5.7997,5.7997,5.7997,5.7997,5.7997,5.7997,5.7997,5.7997,5.7997,5.7997,5.7997,5.7997,5.7997,5.7997,5.7997,5.7997,5.7997,5.7997,5.7997,5.7997,5.7997,5.7997,5.7997,0.0,0.0,3.9753,4.0818,0.0,0.0,0.0,0.0,0.0,0.0,0.0,0.0,0.0,0.0,0.0,0.0,0.0,0.0,0.0,0.0,0.0,0.0,0.0,0.0,0.0,0.0,0.0,3.4513,3.4989,3.6266,3.8702,3.9963,4.1518,4.3424,4.3515,4.3515,4.3515,4.3515,4.3515,4.3515,4.3515,4.3515,4.3515,4.3515,4.3515,4.3515,4.3515,4.3791,4.4342,4.4892,4.5736,4.6746,4.7296,4.8196,4.9297,5.0398,5.0802,5.1022,5.2637,5.3203,5.3203,5.3203,5.3203,5.3298,5.3849,5.4546,5.5317,5.5831,5.6198,5.6565,5.7373,5.7189,5.7005,5.7813,5.7997,5.7997,5.7997,5.7997,5.7997,5.7997,5.7997,5.7997,5.7997,5.7997,5.7997,5.7997,5.7997,5.7997,5.7997,5.7997,5.7997,5.7997,5.7997,5.7997,5.7997,5.7997,5.7997,5.7997,5.7997,5.7997,5.7997,5.7997,5.7997,5.7997,5.7997,5.7997,5.7997,5.7997,5.7997,5.7997,5.7997,5.7997,4.1662,4.1535,0.0,4.2433,4.1699,0.0,4.0744,0.0,0.0,0.0,0.0,0.0,0.0,0.0,0.0,0.0,0.0,0.0,0.0,2.965,0.0,0.0,0.0,0.0,0.0,0.0,3.0629,3.1986,3.2457,3.4093,0.0,0.0,4.0672,4.3141,4.3374,4.3515,4.3515,4.3515,4.3515,4.3515,4.3515,4.3515,4.3515,4.3515,4.3515,4.3515,4.3791,4.4232,4.4728,4.5315,4.6159,4.7113,4.7406,4.8379,4.9721,5.0508,5.1169,5.1793,5.2837,5.3203,5.3203,5.3203,5.3203,5.3298,5.3812,5.473,5.5647,5.5868,5.6565,5.7299,5.7519,5.7409,5.7373,5.7886,5.7997,5.7997,5.7997,5.7997,5.7997,5.7997,5.7997,5.7997,5.7997,5.7997,5.7997,5.7997,5.7997,5.7997,5.7997,5.7997,5.7997,5.7997,5.7997,5.7997,5.7997,5.7997,5.7997,5.7997,5.7997,5.7997,5.7997,5.7997,5.8253,5.8841,5.829,5.829,5.8841,5.829,5.7997,5.7997,5.7997,5.7997]}]]